     2.10           OBSERVATION DATA    G (GPS)             RINEX VERSION / TYPE
teqc 2005May6 SOPAC 20050707 00:24:50UTC                    PGM / RUN BY / DATE
Linux 2.4.20-8|Pentium IV|gcc|Linux|486/DX+                 COMMENT
BIT 2 OF LLI FLAGS DATA COLLECTED UNDER A/S CONDITION       COMMENT
PILGRIM                                                     MARKER NAME
PILG                                                        MARKER NUMBER
Tim Dowell                                                  OBSERVER / AGENCY
0220202930 TRIMBLE 4700 1.30                                REC # / TYPE / VERS
0220063966 TRM22020.00+GP NONE                              ANT # / TYPE
 -2543616.0000 -4073501.0000  4184857.0000                  APPROX POSITION XYZ
        2.0000        0.0000        0.0000                  ANTENNA: DELTA H/E/N
     1     1                                                WAVELENGTH FACT L1/2
     6    L1    L2    C1    P2    P1    D1                  # / TYPES OF OBSERV
    15.0000                                                 INTERVAL
Northern California Height Modernization 2004               COMMENT
                                                            COMMENT
SOPAC - Scripps Orbit and Permanent Array Center            COMMENT
IGPP - Institute of Geophysics and Planetary Physics        COMMENT
SIO - Scripps Institution of Oceanography                   COMMENT
UCSD - University of California, San Diego                  COMMENT
                                                            COMMENT
email: archive@gpsmail.ucsd.edu                             COMMENT
ftp://garner.ucsd.edu                                       COMMENT
http://sopac.ucsd.edu                                       COMMENT
                                                            COMMENT
                                                            COMMENT
Approximate Lat, Lon : 41.260, -121.982                     COMMENT
                                                            COMMENT
SNR is mapped to RINEX snr flag value [0-9]                 COMMENT
L1 & L2: 2-19 dBHz = 1, 20-27 dBHz = 2, 28-31 dBHz = 3      COMMENT
32-35 dBHz = 4, 36-38 dBHz = 5, 39-41 dBHz = 6              COMMENT
42-44 dBHz = 7, 45-48 dBHz = 8, >= 49 dBHz = 9              COMMENT
  2004     9     7    20    58    0.0000000     GPS         TIME OF FIRST OBS
                                                            END OF HEADER
 04  9  7 20 58  0.0000000  0  3G 3G 8G27
    -20175.61858    -13564.50553  23345213.9064   23345213.2114
       568.9384
    -61572.31358    -32886.21854  23331499.5634   23331498.2854
      1781.3444
    -19428.43459    -13529.74157  21736911.3524   21736908.8984
       553.8754
 04  9  7 20 58 15.0000000  0  6G 3G 8G13G16G23G27
    -28636.40448    -20157.30843  23343604.3134   23343603.1724
       558.5314
    -88255.83548    -53678.53944  23326421.9064   23326421.2344
      1775.7504
     23568.37759      8375.45858  20314500.2584   20314496.9494
      -539.6724
    181475.85957     92563.87253  23704370.9534   23704369.6804
     -4071.1564
    134923.98659     67826.46458  21305942.8134   21305937.8874
     -3031.8754
    -27694.91149    -19971.15047  21735338.2274   21735336.0204
       547.6884
 04  9  7 20 58 30.0000000  0  6G 3G 8G13G16G23G27
    -36923.97448    -26615.10143  23342027.2894   23342025.7274
       546.5634
   -114839.87948    -74393.36244  23321363.2114   23321361.7854
      1768.7974
     31748.37149     14749.47948  20316056.9614   20316053.3834
      -551.0624
    242608.95947    140200.01143  23716004.3984   23716002.2974
     -4079.8914
    180480.50949    103325.03247  21314612.3204   21314606.8874
     -3042.3754
    -35853.81249    -26328.72247  21733785.6254   21733783.3014
       540.1254
 04  9  7 20 58 45.0000000  0  6G 3G 8G13G16G23G27
    -45014.68748    -32919.55843  23340487.3364   23340486.6294
       531.9694
   -141301.06348    -95012.45644  23316327.9304   23316326.3914
      1759.0944
     40117.63549     21270.96848  20317649.7034   20317645.7504
      -565.1094
    303889.37047    187950.94743  23727665.7734   23727664.0984
     -4091.0624
    226213.77849    138961.31947  21323314.7734   21323309.2704
     -3055.6414
    -43881.85449    -32584.33647  21732258.2194   21732255.6414
       529.9844
 04  9  7 20 59  0.0000000  0  6G 3G 8G13G16G23G27
    -52890.18148    -39056.27243  23338989.4454   23338987.4574
       517.2504
   -167621.28348   -115521.69744  23311319.4384   23311318.8014
      1749.3914
     48694.26349     27954.05548  20319281.3754   20319277.9924
      -579.3444
    365334.84347    235830.47743  23739358.8204   23739357.0904
     -4102.4694
    272141.59049    174749.20048  21332054.8284   21332050.0274
     -3068.9844
    -51761.08849    -38723.99047  21730758.5394   21730756.6374
       519.6254
 04  9  7 20 59 15.0000000  0  6G 3G 8G13G16G23G27
    -60533.85348    -45012.34543  23337534.2894   23337533.1334
       501.8284
   -193784.12548   -135908.30844  23306340.7114   23306339.8674
      1739.0314
     57494.56749     34811.43348  20320956.3754   20320953.0864
      -594.0944
    426961.21247    283851.01443  23751085.3594   23751084.1374
     -4114.4064
    318280.36849    210701.46847  21340835.0864   21340829.4574
     -3082.9064
    -59475.10049    -44734.90347  21729289.9384   21729287.9384
       508.8594
 04  9  7 20 59 30.0000000  0  6G 3G 8G13G16G23G27
    -67940.41448    -50783.69043  23336125.2194   23336123.6134
       485.5634
   -219784.85248   -156168.59344  23301393.4144   23301392.2384
      1727.6094
     66523.84349     41847.22648  20322674.9534   20322670.9884
      -609.8914
    488773.27347    332016.23243  23762848.4454   23762846.0314
     -4127.3914
    364634.95249    246821.89648  21349655.6724   21349650.1804
     -3097.7814
    -67019.01149    -50613.27747  21727855.0784   21727852.8444
       497.0004
 04  9  7 20 59 45.0000000  0  6G 3G 8G13G16G23G27
    -75097.87048    -56360.90943  23334762.6174   23334762.2934
       469.1724
   -245611.62748   -176293.33444  23296478.1024   23296477.3794
      1716.2974
     75793.62649     49070.42148  20324438.6024   20324435.2344
      -625.7344
    550782.36147    380334.97544  23774647.9614   23774646.2464
     -4140.2344
    411216.96549    283119.53847  21358520.0474   21358514.6214
     -3112.7034
    -74381.13749    -56349.99147  21726454.1024   21726451.8754
       485.0634
 04  9  7 21  0  0.0000000  0  6G 3G 8G13G16G23G27
    -82004.26048    -61742.46843  23333448.6024   23333447.6414
       452.0784
   -271262.35848   -196280.89044  23291596.8754   23291596.7664
      1704.2504
     85306.24549     56482.86248  20326248.8134   20326245.2894
      -642.1564
    612989.85347    428808.30643  23786485.9844   23786485.0124
     -4153.6724
    458028.04749    319595.68547  21367428.0474   21367422.6564
     -3128.2814
    -81559.79249    -61943.73447  21725088.1724   21725085.9184
       472.4534
 04  9  7 21  0 15.0000000  0  6G 3G 8G13G16G23G27
    -88665.34748    -66932.92643  23332180.8524   23332180.1524
       435.8284
   -296743.13948   -216136.02744  23286748.8284   23286747.5394
      1692.9534
     95055.67049     64079.80048  20328104.2424   20328100.3874
      -657.9224
    675389.47647    477431.33143  23798360.6954   23798358.2424
     -4166.3594
    505062.13949    356245.60647  21376378.0554   21376372.9574
     -3143.0474
    -88561.02149    -67399.23247  21723755.6644   21723753.3524
       460.7974
 04  9  7 21  0 30.0000000  0  6G 3G 8G13G16G23G27
    -95079.78148    -71931.13943  23330959.9694   23330959.7774
       419.2974
   -322052.74448   -235857.79044  23281931.8594   23281930.8554
      1681.4694
    105043.07249     71862.18748  20330004.7344   20330000.7304
      -673.9374
    737981.83947    526204.58443  23810271.7034   23810269.1054
     -4179.3594
    552320.11449    393069.97047  21385371.3284   21385365.8794
     -3158.0624
    -95383.67949    -72715.58647  21722457.3364   21722454.6254
       448.7814
 04  9  7 21  0 45.0000000  0  6G 3G 8G13G16G23G27
   -101248.29948    -76737.75343  23329786.5314   23329784.8134
       403.2814
   -347192.39248   -255447.11644  23277147.6954   23277146.5434
      1670.5474
    115267.53049     79829.28848  20331950.2664   20331946.2974
      -689.3124
    800765.65347    575127.02743  23822218.9304   23822216.6644
     -4191.7504
    599800.93349    430067.99347  21394406.2974   21394401.1994
     -3172.6254
   -102028.81849    -77893.61147  21721192.8834   21721190.4694
       437.3134
 04  9  7 21  1  0.0000000  0  6G 3G 8G13G16G23G27
   -107175.38247    -81356.24343  23328658.5004   23328657.1454
       387.2814
   -372167.02248   -274907.82844  23272394.6724   23272394.3014
      1659.5634
    125724.46649     87977.55648  20333939.9224   20333936.5084
      -704.7814
    863735.97247    624194.77143  23834201.1884   23834198.6094
     -4204.0944
    647499.86549    467235.96647  21403483.0394   21403478.2114
     -3187.0314
   -108501.30849    -82937.09747  21719961.2894   21719958.9414
       425.8444
 04  9  7 21  1 15.0000000  0  6G 3G 8G13G16G23G27
   -112863.13147    -85788.23043  23327576.3754   23327574.6374
       371.5004
   -396978.76348   -294241.64444  23267674.1024   23267672.5744
      1649.0784
    136411.62549     96305.20048  20335973.8204   20335970.0204
      -719.8284
    926889.86447    673405.54543  23846218.7194   23846217.1254
     -4215.9534
    695414.30149    504571.86147  21412600.8834   21412595.9774
     -3201.1874
   -114803.60749    -87847.97047  21718761.9774   21718759.2664
       414.8134
 04  9  7 21  1 30.0000000  0  6G 3G 8G13G16G23G27
   -118325.79546    -90044.84043  23326536.1564   23326535.5044
       356.2194
   -421641.86248   -313459.61844  23262980.3054   23262979.3834
      1638.8754
    147314.73449    104801.12148  20338048.7274   20338044.7974
      -734.4844
    990212.71647    722747.98443  23858269.3444   23858267.1914
     -4227.6094
    743529.71649    542064.37247  21421756.9924   21421751.5514
     -3214.8754
   -120949.98549    -92637.34947  21717592.5314   21717590.1214
       404.1254
 04  9  7 21  1 45.0000000  0  6G 3G 8G13G16G23G27
   -123563.04647    -94125.77544  23325540.1724   23325539.3244
       341.7504
   -446156.56548   -332561.97644  23258315.3834   23258314.6094
      1629.4384
    158433.82249    113465.34348  20340164.5164   20340161.2154
      -748.3914
   1053704.02846    772221.74143  23870350.9454   23870348.6054
     -4238.2814
    791845.99849    579713.40047  21430951.5394   21430946.5044
     -3227.7664
   -126940.67848    -97305.40947  21716452.2974   21716450.4304
       394.2504
 04  9  7 21  2  0.0000000  0  6G 3G 8G13G16G23G27
   -128579.09246    -98034.34443  23324584.3754   23324584.0944
       327.0004
   -470527.27248   -351552.11644  23253677.9144   23253676.9964
      1619.8914
    169764.48749    122294.43548  20342320.5704   20342317.5354
      -762.4064
   1117359.02947    821822.96842  23882463.8754   23882461.7234
     -4249.1094
    840358.54649    617515.37747  21440183.1954   21440177.9654
     -3240.6724
   -132780.11549   -101855.60947  21715341.1954   21715339.0664
       384.2194
 04  9  7 21  2 15.0000000  0  6G 3G 8G13G16G23G27
   -133375.33548   -101771.65244  23323673.0474   23323672.1374
       312.6564
   -494755.38048   -370431.13144  23249067.0634   23249066.6954
      1610.6884
    181305.48949    131287.42648  20344516.9064   20344513.4184
      -776.1254
   1181175.80747    871550.29243  23894608.5474   23894606.2664
     -4259.5314
    889065.77149    655469.03847  21449451.7894   21449446.8594
     -3253.4224
   -138469.79649   -106289.12147  21714258.2664   21714256.0634
       374.5474
 04  9  7 21  2 30.0000000  0  6G 3G 8G13G16G23G27
   -137961.71248   -105345.41943  23322799.8284   23322799.0784
       298.6414
   -518850.89548   -389206.84344  23244481.5084   23244481.1684
      1601.8284
    193046.55449    140436.30148  20346751.2734   20346747.3674
      -789.5624
   1245143.82547    921395.46243  23906780.6094   23906779.1954
     -4269.7344
    937957.33849    693566.33547  21458755.4304   21458750.4184
     -3265.7034
   -144020.21349   -110614.11647  21713202.1954   21713199.8634
       365.2664
 04  9  7 21  2 45.0000000  0  6G 3G 8G13G16G23G27
   -142338.06748   -108755.55943  23321967.5704   23321965.7584
       284.9694
   -542814.26348   -407879.58144  23239921.8754   23239920.9964
      1593.3134
    204987.64149    149741.04248  20349023.8134   20349019.6094
      -802.4694
   1309262.60947    971358.12443  23918982.4384   23918980.6844
     -4279.2344
    987033.01549    731807.11147  21468094.3284   21468089.0824
     -3277.6564
   -149431.45849   -114830.65947  21712172.2424   21712170.3014
       356.3754
 04  9  7 21  3  0.0000000  0  6G 3G 8G13G16G23G27
   -146510.39548   -112006.67043  23321173.0084   23321172.1374
       271.0314
   -566651.68548   -426454.18644  23235386.7194   23235385.1294
      1584.7034
    217122.66049    159196.88748  20351332.9144   20351329.2894
      -815.8444
   1373525.54047   1021433.11043  23931212.5394   23931209.1524
     -4289.2814
   1036286.31949    770186.28447  21477467.0314   21477461.6024
     -3289.7814
   -154709.81149   -118943.65747  21711168.1094   21711165.7704
       347.1564
 04  9  7 21  3 15.0000000  0  6G 3G 8G13G16G23G27
   -150479.99848   -115099.83943  23320417.5864   23320416.3284
       257.7974
   -590364.81648   -444931.92144  23230872.5554   23230873.4694
      1576.6884
    229450.16749    168802.74648  20353678.4304   20353674.7544
      -828.3594
   1437930.72847   1071618.95843  23943467.1954   23943464.0944
     -4298.5624
   1085715.67949    808702.65047  21486873.2034   21486868.3204
     -3301.2344
   -159856.79049   -122954.27447  21710188.6564   21710186.0434
       338.7034
 04  9  7 21  3 30.0000000  0  6G 3G 8G13G16G23G27
   -154251.23248   -118038.45443  23319700.2734   23319698.8244
       245.1254
   -613958.04748   -463316.22944  23226383.7504   23226383.1954
      1569.2034
    241965.71549    178555.12548  20356060.1804   20356056.8594
      -840.3124
   1502473.26846   1121911.81443  23955749.6644   23955747.1844
     -4307.0944
   1135316.46549    847352.58747  21496311.9304   21496307.0554
     -3312.0784
   -164877.05449   -126866.16147  21709233.2664   21709230.9144
       330.8134
 04  9  7 21  3 45.0000000  0  6G 3G 8G13G16G23G27
   -157826.05047   -120823.98744  23319019.2424   23319019.0434
       232.1564
   -637433.60048   -481608.85244  23221916.8674   23221915.4104
      1561.5314
    254667.23549    188452.40648  20358477.2274   20358473.9614
      -852.5944
   1567150.55248   1172309.68743  23968057.3524   23968054.9224
     -4315.9694
   1185086.26049    886134.22247  21505783.0164   21505777.5204
     -3323.2504
   -169772.85949   -130681.07047  21708301.2894   21708299.2894
       322.5784
 04  9  7 21  4  0.0000000  0  6G 3G 8G13G16G23G27
   -161209.19548   -123460.18944  23318375.3834   23318375.1414
       219.1254
   -660796.29248   -499813.51744  23217470.8364   23217469.4804
      1553.7504
    267549.82649    198490.78848  20360928.6094   20360925.2234
      -864.8754
   1631957.29447   1222808.39943  23980389.3834   23980387.7114
     -4324.7664
   1235019.97849    925043.57847  21515284.9454   21515279.9384
     -3334.3444
   -174549.17849   -134402.86547  21707392.5314   21707390.2304
       314.4694
 04  9  7 21  4 15.0000000  0  6G 3G 8G13G16G23G27
   -164400.81448   -125947.14144  23317768.4614   23317768.2424
       206.7034
   -684046.34948   -517930.43944  23213046.4144   23213045.3284
      1546.5784
    280613.30949    208670.12748  20363414.4144   20363411.1484
      -876.5624
   1696892.83947   1273407.49143  23992746.1804   23992744.4144
     -4332.9694
   1285117.27149    964080.40247  21524817.9224   21524812.8714
     -3344.9064
   -179206.45549   -138031.91147  21706506.2274   21706503.9304
       306.8284
 04  9  7 21  4 30.0010000  0  6G 3G 8G13G16G23G27
   -167407.56148   -128290.01544  23317196.4584   23317195.5674
       194.5004
   -707192.21748   -535966.16244  23208641.2084   23208640.7784
      1539.6414
    293851.99349    218985.98048  20365933.6924   20365929.8644
      -888.0474
   1761954.43147   1324104.80543  24005127.2004   24005125.1854
     -4340.9224
   1335374.60849   1003241.93847  21534381.7314   21534377.0954
     -3355.3284
   -183751.70749   -141573.65447  21705641.2474   21705639.0954
       299.4844
 04  9  7 21  4 45.0010000  0  6G 3G 8G13G16G23G27
   -170233.66548   -130492.15644  23316658.5674   23316658.1854
       182.5474
   -730235.71548   -553922.11444  23204256.9424   23204256.0914
      1533.0314
    307259.23149    229433.18248  20368485.0914   20368481.5404
      -899.2974
   1827128.09147   1374889.45143  24017529.3804   24017527.2864
     -4348.6414
   1385780.26149   1042519.05147  21543973.5834   21543968.5404
     -3365.2814
   -188189.37049   -145031.55847  21704796.8724   21704794.5524
       292.4694
 04  9  7 21  5  0.0010000  0  6G 3G 8G13G16G23G27
   -172878.00148   -132552.65644  23316154.8964   23316154.4664
       170.5944
   -753177.32248   -571798.67244  23199891.4424   23199891.0674
      1526.3284
    320837.10649    240013.33748  20371068.8644   20371065.2864
      -910.6094
   1892418.94546   1425765.40643  24029953.7314   24029952.3964
     -4356.3444
   1436338.61149   1081915.14747  21553594.6384   21553589.5094
     -3375.3284
   -192518.53349   -148404.93547  21703973.2084   21703971.0674
       285.2974
 04  9  7 21  5 15.0010000  0  6G 3G 8G13G16G23G27
   -175342.66448   -134473.16544  23315686.5214   23315685.3134
       158.2344
   -776019.07348   -589597.41244  23195544.2244   23195543.6424
      1519.3754
    334583.35949    250724.69848  20373684.4894   20373681.2744
      -922.1094
   1957824.45047   1476730.69543  24042399.8884   24042398.8604
     -4364.2034
   1487047.11349   1121428.23747  21563243.5674   21563239.1384
     -3385.6564
   -196741.63349   -151695.65547  21703169.6694   21703167.5094
       277.9384
 04  9  7 21  5 30.0010000  0  6G 3G 8G13G16G23G27
   -177631.21648   -136256.42744  23315250.9974   23315250.7744
       146.7664
   -798764.99848   -607321.49844  23191215.9744   23191215.4114
      1513.2664
    348494.35749    261564.43848  20376332.3564   20376328.6964
      -932.7664
   2023340.41647   1527782.06843  24054866.7714   24054865.2084
     -4371.3594
   1537901.98949   1161055.39547  21572921.5524   21572916.6924
     -3395.0944
   -200862.51149   -154906.72047  21702385.0834   21702383.2044
       271.3754
 04  9  7 21  5 45.0010000  0  6G 3G 8G13G16G23G27
   -179744.51348   -137903.11944  23314848.7004   23314847.6494
       135.0314
   -821416.13148   -624971.71944  23186905.2164   23186904.6884
      1506.9534
    362569.21649    272531.85948  20379010.4114   20379006.4424
      -943.7664
   2088965.25646   1578918.28043  24067355.7714   24067354.0174
     -4378.5004
   1588902.03749   1200795.66247  21582626.0674   21582621.5524
     -3404.8284
   -204882.23549   -158038.95947  21701620.5214   21701618.7824
       264.6254
 04  9  7 21  6  0.0010000  0  6G 3G 8G13G16G23G27
   -181684.26147   -139414.60444  23314479.8494   23314478.7554
       123.5634
   -843974.47448   -642549.62644  23182612.4034   23182612.3254
      1500.9064
    376805.94549    283625.40148  20381719.3564   20381715.9354
      -954.4374
   2154696.81247   1630137.63543  24079864.1224   24079862.1424
     -4385.6254
   1640045.02849   1240647.32147  21592358.5284   21592353.9544
     -3414.1724
   -208802.93949   -161094.05847  21700874.2784   21700872.0174
       258.1884
 04  9  7 21  6 15.0010000  0  6G 3G 8G13G16G23G27
   -183454.19748   -140793.74344  23314142.5994   23314141.7164
       112.3284
   -866443.98748   -660058.32544  23178336.8644   23178335.7864
      1495.0634
    391200.60949    294842.02648  20384458.7474   20384455.2554
      -964.8594
   2220530.57147   1681436.62143  24092391.2554   24092389.5444
     -4392.3124
   1691326.98349   1280607.26347  21602117.5994   21602112.6144
     -3423.4374
   -212628.64249   -164075.11547  21700146.5054   21700144.1814
       251.9224
 04  9  7 21  6 30.0010000  0  6G 3G 8G13G16G23G27
   -185050.69548   -142037.76144  23313838.6694   23313837.8104
       100.9224
   -888821.18948   -677495.09444  23174079.1464   23174077.9744
      1489.0164
    405756.77949    306184.49948  20387228.4584   20387225.0914
      -975.5474
   2286469.69646   1732817.76343  24104939.0214   24104937.6464
     -4399.2034
   1742751.13649   1320678.00647  21611903.2394   21611898.1964
     -3432.7344
   -216355.92149   -166979.47948  21699437.2864   21699434.5054
       245.5164
 04  9  7 21  6 45.0010000  0  6G 3G 8G13G16G23G27
   -186477.19548   -143149.29444  23313567.1224   23313567.0244
        89.3594
   -911109.78548   -694862.80844  23169837.7864   23169836.6144
      1482.9384
    420470.86049    317650.00448  20390028.5754   20390025.0134
      -986.2034
   2352510.18646   1784277.82142  24117506.1464   24117505.2394
     -4406.0944
   1794313.75849   1360856.64447  21621715.3564   21621710.2124
     -3442.1254
   -219988.48649   -169810.04248  21698745.5604   21698743.4974
       239.0004
 04  9  7 21  7  0.0010000  0  6G 3G 8G13G16G23G27
   -187732.61048   -144127.51944  23313328.3494   23313327.8214
        77.9384
   -933308.85948   -712160.76944  23165612.9194   23165612.3724
      1476.8444
    435343.92849    329239.41348  20392858.8254   20392855.4624
      -996.9064
   2418652.59447   1835817.33343  24130093.3804   24130091.0284
     -4412.9694
   1846015.47349   1401143.67347  21631553.5754   21631548.5604
     -3451.5004
   -223525.51249   -172566.15647  21698072.9424   21698070.6034
       232.5474
 04  9  7 21  7 15.0010000  0  6G 3G 8G13G16G23G27
   -188822.51148   -144976.78444  23313121.1064   23313119.9584
        67.0784
   -955424.03148   -729393.34544  23161404.6224   23161403.5954
      1471.4844
    450370.27749    340948.25848  20395718.1304   20395714.6494
     -1006.9064
   2484890.77647   1887431.46943  24142698.0994   24142695.8104
     -4419.0944
   1897850.44649   1441534.53447  21641417.3174   21641412.4784
     -3460.0784
   -226972.84649   -175252.38847  21697416.9194   21697414.2394
       226.8134
 04  9  7 21  7 30.0010000  0  6G 3G 8G13G16G23G27
   -189742.28048   -145693.48743  23312946.4584   23312945.3414
        55.9224
   -977450.82148   -746557.06444  23157212.8334   23157212.1694
      1465.7034
    465554.43649    352780.05848  20398607.7944   20398603.6034
     -1017.2504
   2551228.80646   1939123.40443  24155321.0444   24155319.9354
     -4425.6414
   1949823.05449   1482032.65047  21651307.3104   21651302.5134
     -3469.0624
   -230326.08749   -177865.29347  21696778.7394   21696776.2634
       220.6724
 04  9  7 21  7 45.0010000  0  6G 3G 8G13G16G23G27
   -190498.87448   -146283.00144  23312802.3024   23312801.3374
        44.9224
   -999396.55748   -763657.60844  23153037.2394   23153036.2044
      1460.2814
    480889.37049    364729.35548  20401526.0054   20401522.4584
     -1027.4374
   2617659.11047   1990887.25142  24167962.3104   24167960.6064
     -4431.8754
   2001925.92049   1522632.26747  21661222.5284   21661217.1064
     -3477.8914
   -233592.44149   -180410.50147  21696157.2394   21696154.9854
       214.8134
 04  9  7 21  8  0.0010000  0  6G 3G 8G13G16G23G27
   -191090.11348   -146743.69943  23312689.4584   23312687.8884
        34.0944
  -1021259.14748   -780693.37244  23148877.0834   23148875.7284
      1454.9534
    496377.04449    376797.67148  20404473.1924   20404469.5524
     -1037.3754
   2684183.38247   2042724.34842  24180622.5604   24180619.2394
     -4437.9064
   2054160.80949   1563334.75047  21671162.8254   21671157.8104
     -3486.5004
   -236769.94549   -182886.46747  21695552.5214   21695550.2124
       209.1094
 04  9  7 21  8 15.0010000  0  6G 3G 8G13G16G23G27
   -191519.18548   -147078.03643  23312607.5214   23312607.2084
        23.3284
  -1043042.18348   -797667.15445  23144731.9194   23144729.9424
      1449.7504
    512014.01549    388982.31148  20407448.5914   20407445.0714
     -1047.3124
   2750797.76447   2094631.61243  24193298.2084   24193296.2354
     -4443.8754
   2106524.16049   1604137.32647  21681126.9894   21681122.0134
     -3495.0624
   -239862.24849   -185296.05247  21694963.6144   21694961.2744
       203.4384
 04  9  7 21  8 30.0010000  0  7G 3G 8G13G16G23G27G19
   -191787.95848   -147287.45043  23312556.5994   23312555.7044
        12.7974
  -1064747.71348   -814580.51944  23140600.7474   23140600.4974
      1444.7034
    527798.44749    401281.86348  20410452.2164   20410448.9194
     -1057.0164
   2817499.87747   2146607.24543  24205991.4354   24205989.3374
     -4449.4374
   2159013.91849   1645038.42147  21691115.4114   21691110.6384
     -3503.3444
   -242871.25149   -187640.72247  21694391.2314   21694389.3414
       198.0004
    -52710.30256    -37651.43853  24378121.8024   24378120.9584
      1535.5634
 04  9  7 21  8 45.0010000  0  7G 3G 8G13G16G23G27G19
   -191890.63148   -147367.43943  23312537.2634   23312535.9584
         1.2194
  -1086369.93648   -831428.99545  23136486.8564   23136485.6614
      1438.7194
    543736.08149    413700.79748  20413484.9744   20413481.1264
     -1067.6724
   2884294.92847   2198655.32042  24218701.6694   24218699.7784
     -4456.1724
   2211635.49049   1686042.22047  21701128.8254   21701123.6264
     -3512.6254
   -245791.51249   -189916.25447  21693835.9034   21693833.5364
       191.6564
    -75699.00746    -55564.61743  24373747.9744   24373746.6494
      1529.7814
 04  9  7 21  9  0.0010000  0  7G 3G 8G13G16G23G27G19
   -191828.42648   -147318.94344  23312548.9974   23312547.2284
        -9.5474
  -1107910.50948   -848213.82644  23132387.5214   23132385.9664
      1433.4534
    559825.58349    426238.07148  20416546.9584   20416543.2354
     -1077.5944
   2951181.16547   2250774.42342  24231429.7084   24231427.1654
     -4461.9534
   2264387.36849   1727147.55547  21711167.5284   21711162.7594
     -3520.9534
   -248624.46149   -192123.73947  21693296.3254   21693293.7354
       186.0784
    -98607.30846    -73415.14843  24369388.5834   24369387.3534
      1524.6564
 04  9  7 21  9 15.0010000  0  7G 3G 8G13G16G23G27G19
   -191605.30848   -147145.09844  23312591.5604   23312590.4464
       -20.1414
  -1129373.30448   -864938.05845  23128302.9114   23128302.4894
      1428.3284
    576062.72149    438890.37748  20419636.8174   20419633.0094
     -1087.3914
   3018154.02547   2302961.04343  24244174.5754   24244172.7984
     -4467.7194
   2317265.08349   1768350.94447  21721229.5054   21721224.7944
     -3529.3914
   -251374.33949   -194266.48847  21692773.4744   21692771.0214
       180.6254
   -121439.07946    -91206.09043  24365043.7554   24365041.9624
      1519.5164
 04  9  7 21  9 30.0010000  0  7G 3G 8G13G16G23G27G19
   -191222.82448   -146847.03444  23312664.4274   23312663.5674
       -30.8754
  -1150760.35348   -881603.26645  23124233.5134   23124232.4384
      1423.1414
    592445.89949    451656.47848  20422754.2084   20422750.4314
     -1097.1564
   3085211.57348   2355213.66843  24256935.4974   24256933.6344
     -4473.4534
   2370266.87649   1809651.00347  21731315.4664   21731311.0524
     -3537.7194
   -254042.97949   -196345.95347  21692265.3174   21692262.9354
       175.0634
   -144195.75947   -108938.49943  24360713.7784   24360711.7514
      1514.4844
 04  9  7 21  9 45.0010000  0  7G 3G 8G13G16G23G27G19
   -190684.05348   -146427.20744  23312766.4664   23312765.7284
       -41.0944
  -1172075.06548   -898212.12344  23120176.9744   23120176.1814
      1418.6564
    608971.85149    464533.84448  20425899.2314   20425895.2904
     -1106.4374
   3152349.96948   2407529.28843  24269711.6614   24269709.4234
     -4478.4844
   2423389.27549   1851045.06247  21741424.7164   21741419.8024
     -3545.4064
   -256633.82649   -198364.78147  21691772.1064   21691769.8924
       170.1724
   -166880.41046   -126614.79943  24356396.4354   24356395.2394
      1509.9534
 04  9  7 21 10  0.0010000  0  7G 3G 8G13G16G23G27G19
   -189988.36948   -145885.09444  23312898.4354   23312898.0714
       -51.5944
  -1193316.68047   -914764.01145  23116135.3104   23116135.0994
      1413.6564
    625641.09849    477522.85948  20429071.3494   20429067.3884
     -1116.0474
   3219569.35247   2459907.97942  24282502.8494   24282500.7204
     -4484.0004
   2476632.57249   1892533.33047  21751556.6924   21751551.1034
     -3553.5474
   -259146.38649   -200322.61247  21691294.3964   21691291.8254
       164.9224
   -189492.14746   -144234.26843  24352093.0914   24352091.6224
      1504.9694
 04  9  7 21 10 15.0010000  0  7G 3G 8G13G16G23G27G19
   -189136.08048   -145220.95944  23313060.9354   23313060.3564
       -61.9534
  -1214485.89348   -931259.46445  23112106.8174   23112105.8024
      1408.8914
    642453.25949    490623.23048  20432270.5054   20432266.8454
     -1125.5314
   3286868.87547   2512349.14043  24295309.6694   24295308.0564
     -4489.2504
   2529996.16349   1934115.32347  21761710.9664   21761706.2744
     -3561.4844
   -261581.22349   -202219.88747  21690830.9814   21690828.4154
       159.7504
   -212031.25647   -161797.18242  24347804.5754   24347801.6774
      1500.2344
 04  9  7 21 10 30.0010000  0  7G 3G 8G13G16G23G27G19
   -188123.59648   -144432.01844  23313253.7864   23313253.0604
       -72.4534
  -1235579.18648   -947695.76145  23108092.7554   23108091.0834
      1404.1254
    659411.76349    503837.66348  20435497.6694   20435494.0524
     -1135.0784
   3354251.43547   2564855.01743  24308131.7864   24308130.2314
     -4494.5164
   2583483.29049   1975793.58847  21771889.3104   21771884.3534
     -3569.5624
   -263935.02649   -204054.00547  21690382.7554   21690380.4854
       154.6414
   -234493.87947   -179300.47143  24343531.7864   24343527.9384
      1495.3754
 04  9  7 21 10 45.0010000  0  7G 3G 8G13G16G23G27G19
   -186955.29348   -143521.62144  23313476.1384   23313475.2204
       -83.1414
  -1256601.24248   -964076.57945  23104092.4114   23104091.2164
      1398.9844
    676512.10849    517162.59748  20438751.5834   20438747.8964
     -1144.7974
   3421712.20547   2617421.80842  24320968.7084   24320967.6614
     -4500.0164
   2637089.12849   2017564.34447  21782090.3494   21782085.1614
     -3577.6874
   -266212.47549   -205828.64247  21689949.4664   21689946.9234
       149.2504
   -256884.29147   -196747.49643  24339269.3334   24339267.4744
      1490.1884
 04  9  7 21 11  0.0010000  0  7G 3G 8G13G16G23G27G19
   -185630.91648   -142489.63244  23313728.0674   23313726.4784
       -93.7034
  -1277551.85748   -980401.69345  23100105.7714   23100105.1034
      1394.1564
    693754.55349    530598.26648  20442032.7084   20442028.9504
     -1154.5004
   3489250.88947   2670049.35443  24333821.0834   24333819.9784
     -4505.3754
   2690813.65949   2059427.59547  21792313.3494   21792308.7284
     -3585.8124
   -268413.46049   -207543.69348  21689530.8334   21689528.5134
       143.9694
   -279202.14847   -214137.98143  24335021.4584   24335020.2944
      1485.2344
 04  9  7 21 11 15.0010000  0  7G 3G 8G13G16G23G27G19
   -184142.49148   -141329.78544  23314011.6694   23314010.1464
      -104.8914
  -1298423.41148   -996665.22645  23096134.0214   23096133.6854
      1388.6094
    711146.91149    544150.75148  20445342.3644   20445338.7004
     -1164.7344
   3556874.98847   2722743.40143  24346690.1224   24346688.9814
     -4511.2974
   2744664.46049   2101389.22947  21802560.9664   21802556.4624
     -3594.4374
   -270530.25349   -209193.13848  21689128.2714   21689126.0604
       138.0474
   -301439.35547   -231465.61043  24330790.3884   24330788.8994
      1479.6414
 04  9  7 21 11 30.0010000  0  7G 3G 8G13G16G23G27G19
   -182494.09748   -140045.31544  23314325.1304   23314324.4154
      -115.0784
  -1319220.25248  -1012870.50545  23092176.4194   23092175.4074
      1384.1414
    728684.94549    557816.75548  20448679.9974   20448676.1034
     -1173.9224
   3624579.73247   2775500.29642  24359573.1464   24359572.5604
     -4516.1724
   2798637.14849   2143445.84847  21812831.5134   21812826.5954
     -3602.0944
   -272567.26549   -210780.41947  21688740.3254   21688738.1304
       133.2664
   -323599.78647   -248733.42743  24326574.2164   24326571.2244
      1474.9534
 04  9  7 21 11 45.0010000  0  7G 3G 8G13G16G23G27G19
   -180688.22248   -138638.13144  23314668.4584   23314667.0284
      -125.7814
  -1339944.79448  -1029019.48045  23088232.9354   23088231.6814
      1379.1414
    746365.98649    571594.17948  20452044.5914   20452040.9384
     -1183.5474
   3692362.14947   2828317.76642  24372472.2714   24372470.3414
     -4521.5164
   2852728.87049   2185595.20647  21823125.3174   21823120.0714
     -3610.2034
   -274527.23749   -212307.66648  21688367.7164   21688365.1384
       127.9694
   -345685.79348   -265943.25443  24322371.1304   24322368.8254
      1469.7814
 04  9  7 21 12  0.0010000  0  7G 3G 8G13G16G23G27G19
   -178726.84647   -137109.77944  23315042.0284   23315041.3174
      -135.4534
  -1360599.03548  -1045113.67145  23084302.1854   23084301.7044
      1375.1254
    764188.05049    585481.49848  20455435.7634   20455432.0834
     -1192.3444
   3760219.66047   2881193.72643  24385384.7394   24385383.2824
     -4525.8284
   2906937.40349   2227835.59647  21833440.6694   21833435.8724
     -3617.3124
   -276412.26949   -213776.51847  21688008.6464   21688006.2474
       123.6094
   -367699.24748   -283096.55443  24318182.6224   24318179.2634
      1465.6564
 04  9  7 21 12 15.0010000  0  7G 3G 8G13G16G23G27G19
   -176610.48148   -135460.65344  23315444.6534   23315443.9114
      -146.6094
  -1381184.11748  -1061153.95645  23080385.1924   23080384.1694
      1369.7194
    782150.38049    599478.10948  20458854.0134   20458850.5524
     -1202.4534
   3828151.29647   2934127.40342  24398312.2394   24398309.5834
     -4531.5314
   2961261.82249   2270166.28547  21843778.0444   21843773.3254
     -3625.8124
   -278223.32749   -215187.72947  21687664.0214   21687661.6654
       117.9694
   -389640.53448   -300193.61743  24314006.7554   24314004.3684
      1460.0314
 04  9  7 21 12 30.0010000  0  7G 3G 8G13G16G23G27G19
   -174334.74948   -133687.34344  23315878.4584   23315877.2434
      -156.9374
  -1401695.95048  -1077137.17045  23076481.7314   23076480.8964
      1365.1414
    800257.42249    613587.49248  20462299.9194   20462295.8024
     -1211.9064
   3896160.94347   2987121.93942  24411253.8334   24411252.0214
     -4536.5314
   3015706.31149   2312590.53847  21854138.5834   21854134.0214
     -3633.5474
   -279955.94449   -216537.81647  21687334.2474   21687331.8884
       112.9844
   -411505.05947   -317230.84643  24309844.8334   24309843.9154
      1455.1564
 04  9  7 21 12 45.0010000  0  7G 3G 8G13G16G23G27G19
   -171903.16647   -131792.58644  23316341.2244   23316339.8454
      -167.6094
  -1422137.85248  -1093065.89645  23072592.1534   23072589.9034
      1360.1884
    818505.47949    627806.75448  20465772.2394   20465768.3214
     -1221.4844
   3964244.52547   3040174.01142  24424210.1464   24424208.2554
     -4541.5624
   3070266.86149   2355105.21947  21864521.0834   21864516.7204
     -3641.4844
   -281614.11949   -217829.89848  21687018.8414   21687016.1104
       107.8134
   -433296.12748   -334210.84043  24305699.0444   24305697.2634
      1449.9694
 04  9  7 21 13  0.0010000  0  7G 3G 8G13G16G23G27G19
   -169313.92948   -129774.97844  23316833.1064   23316832.2784
      -177.4374
  -1442508.21948  -1108938.88345  23068715.5134   23068714.1064
      1356.0634
    836896.26849    642137.24548  20469271.8884   20469268.0404
     -1230.4064
   4032403.28047   3093284.69842  24437179.9504   24437178.2784
     -4545.9694
   3124945.08449   2397711.60147  21874926.2244   21874921.2864
     -3648.7504
   -283196.14649   -219062.63547  21686717.5524   21686715.3964
       103.3134
   -455011.76248   -351132.06943  24301566.8884   24301564.4544
      1445.5634
 04  9  7 21 13 15.0010000  0  7G 3G 8G13G16G23G27G19
   -166572.86848   -127639.07844  23317354.6384   23317353.6494
      -187.9374
  -1462813.24048  -1124760.94245  23064851.3334   23064850.2044
      1351.2814
    855423.59349    656574.10948  20472797.2554   20472793.1774
     -1239.9064
   4100630.60647   3146448.80742  24450163.6774   24450162.1034
     -4550.9064
   3179734.55249   2440404.66147  21885352.4034   21885347.6104
     -3656.5944
   -284708.37649   -220240.99847  21686429.8564   21686427.7164
        98.2664
   -476657.77448   -367999.05143  24297447.7554   24297445.7514
      1440.4844
 04  9  7 21 13 30.0010000  0  7G 3G 8G13G16G23G27G19
   -163676.16348   -125381.87944  23317905.8964   23317904.7314
      -198.2504
  -1483049.39148  -1140529.33745  23061001.2084   23061000.0674
      1346.7974
    874091.38349    671120.44248  20476349.8334   20476345.7904
     -1249.1724
   4168930.09747   3199669.15742  24463159.3024   24463159.0674
     -4555.5474
   3234638.93549   2483187.26647  21895800.6924   21895795.5714
     -3664.0474
   -286147.05549   -221362.04547  21686156.1064   21686153.7944
        93.5314
   -498230.32148   -384808.76944  24293342.1614   24293340.6694
      1435.8134
 04  9  7 21 13 45.0010000  0  7G 3G 8G13G16G23G27G19
   -160626.36048   -123005.38044  23318486.1384   23318485.7594
      -208.0474
  -1503219.25948  -1156246.07945  23057162.2944   23057161.6344
      1342.7974
    892897.01249    685774.17448  20479927.9664   20479924.7634
     -1258.0004
   4237298.63547   3252943.26642  24476169.9584   24476169.7004
     -4559.9374
   3289655.30449   2526057.14347  21906269.9354   21906264.7474
     -3671.1874
   -287514.91949   -222427.90048  21685896.0914   21685893.4894
        89.1254
   -519731.66948   -401563.01044  24289251.2314   24289248.7744
      1431.3444
 04  9  7 21 14  0.0010000  0  7G 3G 8G13G16G23G27G19
   -157421.22447   -120507.86644  23319096.5604   23319095.2004
      -218.9844
  -1523320.79648  -1171909.58445  23053337.3644   23053336.1264
      1337.6564
    911842.59849    700536.96548  20483533.6854   20483530.3724
     -1267.8444
   4305737.71447   3306272.40742  24489194.3024   24489192.6884
     -4565.0474
   3344785.60249   2569015.79447  21916760.3884   21916755.9664
     -3679.2504
   -288810.03549   -223437.08147  21685649.6304   21685646.5244
        83.7974
   -541159.36348   -418259.87043  24285172.3174   24285171.0094
      1425.8754
 04  9  7 21 14 15.0010000  0  7G 3G 8G13G16G23G27G19
   -154062.93047   -117890.98044  23319734.9424   23319734.7354
      -229.0004
  -1543356.17148  -1187521.53945  23049524.7164   23049523.2514
      1333.4384
    930925.84449    715407.03048  20487165.1144   20487161.0714
     -1276.8754
   4374244.86047   3359654.58042  24502230.6534   24502228.8604
     -4569.3754
   3400027.28649   2612061.24847  21927272.6774   21927268.2514
     -3686.5474
   -290034.63749   -224391.30347  21685416.3414   21685414.0834
        79.2034
   -562515.46647   -434900.93543  24281108.5994   24281107.1924
      1421.2664
 04  9  7 21 14 30.0010000  0  7G 3G 8G13G16G23G27G19
   -150550.70848   -115154.18144  23320404.0364   23320402.8994
      -239.7814
  -1563324.92248  -1203081.56945  23045724.4354   23045724.2044
      1328.5784
    950147.33749    730384.80248  20490822.8254   20490819.5174
     -1286.5004
   4442820.26847   3413089.96342  24515280.0754   24515278.3374
     -4574.5164
   3455380.87149   2655193.88447  21937806.1384   21937801.5134
     -3694.4844
   -291188.24949   -225290.22347  21685196.9894   21685194.5094
        74.0164
   -583799.00447   -451485.44743  24277058.5994   24277057.4424
      1416.0004
 04  9  7 21 14 45.0010000  0  7G 3G 8G13G16G23G27G19
   -146882.57348   -112295.87744  23321101.1924   23321101.0174
      -249.7974
  -1583225.25748  -1218588.29445  23041937.8334   23041936.5134
      1324.4844
    969509.04449    745471.84248  20494507.4194   20494503.9314
     -1295.4694
   4511465.37947   3466579.58842  24528342.5134   24528341.3764
     -4578.6564
   3510848.01549   2698415.00847  21948361.4034   21948356.3024
     -3701.5624
   -292269.17149   -226132.49648  21684991.2554   21684989.1734
        69.6724
   -605007.78248   -468011.70944  24273023.7004   24273021.6144
      1411.4224
 04  9  7 21 15  0.0010000  0  7G 3G 8G13G16G23G27G19
   -143054.23348   -109312.72244  23321830.7084   23321829.1924
      -260.0784
  -1603052.87748  -1234038.35645  23038164.6614   23038163.4314
      1319.9064
    989015.07249    760671.34848  20498219.1694   20498215.4314
     -1304.6564
   4580184.02047   3520126.57542  24541419.7944   24541417.8804
     -4583.1874
   3566432.63249   2741727.67847  21958938.8104   21958934.2084
     -3709.0314
   -293273.28549   -226914.91348  21684800.0444   21684798.0914
        64.9694
   -626137.38948   -484476.28244  24269002.4744   24269000.4584
      1406.5004
 04  9  7 21 15 15.0010000  0  7G 3G 8G13G16G23G27G19
   -139074.92747   -106211.93544  23322587.6614   23322586.0634
      -270.3444
  -1622817.31448  -1249439.17845  23034403.5674   23034401.8644
      1315.4534
   1008656.15849    775976.08648  20501956.7714   20501952.9154
     -1313.9694
   4648966.33047   3573723.11942  24554507.9114   24554506.2434
     -4587.7664
   3622125.20449   2785124.45847  21969536.6924   21969532.3214
     -3716.5004
   -294210.15349   -227644.93848  21684621.7864   21684619.6104
        60.2194
   -647197.00348   -500886.29744  24264995.1854   24264993.4074
      1401.6094
 04  9  7 21 15 30.0010000  0  7G 3G 8G13G16G23G27G19
   -134943.63347   -102992.73544  23323373.4664   23323372.3214
      -279.9534
  -1642517.82448  -1264790.19545  23030654.8414   23030653.9544
      1311.7664
   1028433.19649    791386.76048  20505720.1224   20505716.5714
     -1322.4844
   4717812.73947   3627369.66442  24567609.4974   24567608.0214
     -4591.3444
   3677926.34249   2828605.84147  21980155.5284   21980150.7124
     -3723.1724
   -295078.90749   -228321.88848  21684456.6924   21684454.3174
        56.2194
   -668185.40547   -517240.83444  24261000.0674   24260999.0094
      1397.4534
 04  9  7 21 15 45.0010000  0  7G 3G 8G13G16G23G27G19
   -130661.52747    -99656.00144  23324188.5674   23324187.4234
      -290.3594
  -1662155.41548  -1280092.16945  23026917.5364   23026916.6464
      1307.1094
   1048345.03449    806902.47448  20509509.2634   20509505.6034
     -1331.9064
   4786721.84447   3681065.07242  24580722.6534   24580720.5214
     -4595.9534
   3733834.71049   2872170.77347  21990794.1614   21990789.6034
     -3730.7664
   -295880.83949   -228946.76348  21684304.1304   21684301.8024
        51.2664
   -689103.35848   -533540.46944  24257020.1854   24257018.7714
      1392.2194
 04  9  7 21 16  0.0010000  0  6G 3G 8G13G23G27G19
   -126224.04648    -96198.21444  23325032.7634   23325032.0794
      -300.6414
  -1681726.01548  -1295341.97045  23023193.4274   23023192.0404
      1302.7664
   1068395.86749    822526.49448  20513324.8104   20513321.1304
     -1341.0474
   3789854.39649   2915822.44447  22001454.5674   22001449.7244
     -3737.9844
   -296611.80149   -229516.33748  21684164.9584   21684162.0994
        46.6564
   -709946.48147   -549781.81443  24253052.1534   24253051.2714
      1387.4384
 04  9  7 21 16 15.0010000  0  6G 3G 8G13G23G27G19
   -121631.66048    -92619.70344  23325906.0284   23325905.8494
      -311.4694
  -1701230.28348  -1310540.06845  23019482.0674   23019480.6924
      1297.8914
   1088585.31249    838258.52048  20517166.8494   20517162.9974
     -1350.7814
   3845984.63549   2959560.26947  22012135.5444   22012130.9154
     -3745.8914
   -297272.31649   -230031.01847  21684039.1384   21684037.0914
        41.5004
   -730714.88447   -565964.90443  24249101.5214   24249099.8844
      1381.9064
 04  9  7 21 16 30.0010000  0  6G 3G 8G13G23G27G19
   -116882.13548    -88918.75544  23326810.5604   23326809.9544
      -322.0164
  -1720666.19648  -1325684.91445  23015783.2394   23015782.6424
      1293.3134
   1108915.45849    854100.19148  20521035.2554   20521031.8214
     -1360.1564
   3902227.40049   3003385.76947  22022838.5604   22022833.3064
     -3753.3914
   -297860.51049   -230489.35148  21683927.1064   21683925.0564
        36.6254
   -751406.13347   -582087.89443  24245163.4114   24245162.9854
      1376.7194
 04  9  7 21 16 45.0010000  0  6G 3G 8G13G23G27G19
   -111980.12048    -85098.97644  23327743.2864   23327742.2084
      -331.7974
  -1740038.39848  -1340780.09045  23012096.5134   23012095.4114
      1289.5004
   1129381.50649    870047.75748  20524929.7634   20524926.0174
     -1368.7504
   3958577.56749   3047294.97747  22033561.3254   22033557.0094
     -3760.1254
   -298381.19849   -230895.07048  21683827.9744   21683825.9194
        32.6094
   -772025.01947   -598154.47744  24241240.9744   24241239.0134
      1372.3444
 04  9  7 21 17  0.0010000  0  6G 3G 8G13G23G27G19
   -106925.55748    -81160.34044  23328704.7784   23328704.1384
      -342.3754
  -1759347.05748  -1355825.77145  23008422.6854   23008421.1924
      1284.8444
   1149983.39249    886101.16648  20528850.5214   20528846.8924
     -1378.2974
   4015035.02149   3091287.76247  22044304.8104   22044300.2284
     -3767.6564
   -298834.56249   -231248.34548  21683741.7784   21683739.3884
        27.6564
   -792571.14448   -614164.39043  24237330.9194   24237327.9274
      1367.0314
 04  9  7 21 17 15.0010000  0  6G 3G 8G13G23G27G19
   -101713.11348    -77098.67344  23329696.9814   23329696.1384
      -352.9694
  -1778587.19548  -1370818.05745  23004761.0834   23004760.6814
      1280.2504
   1170726.37649    902264.52548  20532797.4814   20532793.8724
     -1387.7034
   4071604.72349   3135368.03247  22055070.0284   22055065.1064
     -3775.1874
   -299215.45549   -231545.13147  21683669.7714   21683667.2514
        22.8444
   -813038.93747   -630113.28243  24233435.5284   24233433.5634
      1361.7504
 04  9  7 21 17 30.0010000  0  6G 3G 8G13G23G27G19
    -96346.76148    -72917.06444  23330717.8964   23330717.1884
      -362.8124
  -1797762.69048  -1385759.96445  23001112.5284   23001111.0174
      1276.3134
   1191606.36049    918534.64348  20536770.9194   20536767.0874
     -1396.4844
   4128282.28949   3179532.35147  22065855.1774   22065850.3804
     -3782.0164
   -299528.10449   -231788.74548  21683609.5214   21683607.4314
        18.6414
   -833432.24046   -646004.08644  24229554.5834   24229552.8294
      1357.0784
 04  9  7 21 17 45.0010000  0  6G 3G 8G13G23G27G19
    -90825.05647    -68614.43244  23331768.3564   23331767.8174
      -373.7194
  -1816872.26448  -1400650.52845  22997475.8724   22997474.3724
      1271.4384
   1212624.65949    934912.53748  20540770.6854   20540767.0444
     -1406.1724
   4185068.88349   3223781.60847  22076661.0834   22076656.8174
     -3789.7504
   -299771.13649   -231978.11948  21683563.9354   21683561.3134
        13.5784
   -853749.44047   -661835.61144  24225688.5604   24225686.4384
      1351.5634
 04  9  7 21 18  0.0010000  0  6G 3G 8G13G23G27G19
    -85146.83748    -64189.81044  23332849.4744   23332848.0364
      -383.8594
  -1835914.95348  -1415488.94145  22993852.3724   22993850.8994
      1267.3134
   1233782.47649    951399.14648  20544797.1064   20544793.3884
     -1415.1724
   4241965.35249   3268116.49547  22087488.8414   22087483.6924
     -3796.8124
   -299943.75949   -232112.62547  21683530.4504   21683528.3764
         9.1094
   -873989.13548   -677606.71844  24221836.9974   24221834.7634
      1346.7194
 04  9  7 21 18 15.0010000  0  6G 3G 8G13G23G27G19
    -79316.55348    -59646.70644  23333959.2004   23333958.0524
      -393.6874
  -1854895.15148  -1430278.68045  22990240.2084   22990238.9584
      1263.2974
   1255075.26349    967990.92448  20548848.4424   20548845.0014
     -1424.0624
   4298967.08749   3312533.40447  22098335.0524   22098330.7164
     -3803.5474
   -300050.53849   -232195.82448  21683510.5364   21683508.1104
         4.9224
   -894155.65248   -693320.82244  24217999.4354   24217997.1854
      1342.0474
 04  9  7 21 18 30.0010000  0  6G 3G 8G13G23G27G19
    -73337.18148    -54987.45344  23335096.2314   23335095.6304
      -403.7504
  -1873816.32348  -1445022.42745  22986639.8494   22986638.6884
      1259.3444
   1276499.79749    984685.35448  20552925.5604   20552921.7904
     -1432.8284
   4356070.65649   3357029.66347  22109202.2164   22109197.6064
     -3810.4224
   -300094.60349   -232230.16347  21683501.7084   21683499.6774
         0.7034
   -914251.88647   -708980.15844  24214175.1774   24214172.6884
      1337.2504
 04  9  7 21 18 45.0010000  0  6G 3G 8G13G23G27G19
    -67205.26047    -50209.30244  23336263.4354   23336262.4114
      -413.6414
  -1892674.96548  -1459717.44445  22983050.3804   22983049.4934
      1255.4844
   1298059.40749   1001485.03948  20557028.3414   20557024.6964
     -1441.5624
   4413279.24249   3401607.75847  22120088.7084   22120083.6184
     -3817.1254
   -300072.76249   -232213.13148  21683506.0994   21683503.6104
        -3.4224
   -934274.03547   -724581.77143  24210364.6534   24210363.1384
      1332.5634
 04  9  7 21 19  0.0010000  0  6G 3G 8G13G23G27G19
    -60928.87047    -45318.58544  23337457.6464   23337456.2744
      -423.6094
  -1911479.33848  -1474370.17446  22979472.4974   22979471.8334
      1251.4694
   1319746.03449   1018383.70048  20561155.1774   20561151.6884
     -1450.3594
   4470584.36249   3446261.07247  22130993.0054   22130988.6734
     -3823.8594
   -299993.39049   -232151.27748  21683521.1534   21683519.4584
        -7.5164
   -954230.03948   -740131.84344  24206567.6774   24206564.8374
      1327.8594
 04  9  7 21 19 15.0010000  0  6G 3G 8G13G23G27G19
    -54497.45847    -40307.08944  23338681.8104   23338680.5524
      -434.0624
  -1930219.21348  -1488972.63545  22975906.3884   22975905.1464
      1247.1254
   1341570.10149   1035389.47648  20565308.1384   20565304.6884
     -1459.5004
   4527996.22849   3490997.56647  22141918.1384   22141913.6064
     -3831.0784
   -299846.16549   -232036.54848  21683549.0834   21683546.9154
       -12.1564
   -974109.22247   -755622.06744  24202783.9194   24202782.7674
      1322.6094
 04  9  7 21 19 30.0010000  0  6G 3G 8G13G23G27G19
    -47912.50448    -35175.94744  23339933.9974   23339933.4034
      -444.0784
  -1948896.16048  -1503526.08145  22972352.2394   22972350.9154
      1243.0784
   1363530.15549   1052501.20148  20569487.3644   20569483.3924
     -1468.4694
   4585513.11649   3535815.90146  22152863.5214   22152858.6344
     -3837.8914
   -299632.57549   -231870.10348  21683589.8174   21683587.9744
       -16.3914
   -993912.87647   -771053.39844  24199015.8724   24199014.3604
      1317.7814
 04  9  7 21 19 45.0010000  0  6G 3G 8G13G23G27G19
    -41176.85047    -29927.37444  23341216.0674   23341215.2514
      -454.0164
  -1967513.04048  -1518032.71445  22968810.0284   22968808.5674
      1239.1724
   1385623.19449   1069716.55548  20573691.2084   20573687.5754
     -1477.2034
   4643131.97149   3580713.67947  22163828.0054   22163823.5874
     -3844.6094
   -299355.72149   -231654.38047  21683642.7944   21683640.6694
       -20.5004
  -1013643.62347   -786427.96344  24195261.2944   24195259.3844
      1312.9694
 04  9  7 21 20  0.0010000  0  6G 3G 8G13G23G27G19
    -34287.96148    -24559.39544  23342527.4814   23342526.3374
      -464.4694
  -1986067.40748  -1532490.65045  22965278.8174   22965277.7554
      1234.6884
   1407851.52449   1087037.31448  20577921.1224   20577917.3844
     -1486.5784
   4700855.00649   3625692.63847  22174812.1534   22174807.8024
     -3851.8594
   -299013.15649   -231387.44648  21683708.2944   21683705.5444
       -25.1874
  -1033298.66948   -801743.51744  24191521.0914   24191518.9854
      1307.6414
 04  9  7 21 20 15.0010000  0  6G 3G 8G13G23G27G19
    -27246.83148    -19072.78344  23343867.3644   23343866.2784
      -474.6414
  -2004560.76348  -1546901.02045  22961759.6924   22961758.3884
      1230.7034
   1430214.10349   1104462.71448  20582176.5754   20582172.8214
     -1495.5004
   4758680.81849   3670751.70047  22185816.2554   22185811.6104
     -3858.6414
   -298606.26049   -231070.37348  21683785.0364   21683782.6964
       -29.5004
  -1052878.88948   -817000.79544  24187794.0444   24187792.7864
      1302.6724
 04  9  7 21 20 30.0010000  0  6G 3G 8G13G23G27G19
    -20056.03047    -13469.55944  23345236.0674   23345234.2784
      -484.3284
  -2022995.56049  -1561265.78545  22958251.9974   22958249.5444
      1227.0314
   1452708.29949   1121990.64948  20586457.1534   20586453.5054
     -1504.0474
   4816606.51749   3715888.57947  22196839.5284   22196834.5364
     -3865.1094
   -298137.66449   -230705.23547  21683874.1614   21683872.1854
       -33.3124
  -1072386.72848   -832201.63144  24184082.5994   24184080.5364
      1298.0784
 04  9  7 21 20 45.0010000  0  6G 3G 8G13G23G27G19
    -12715.69248     -7749.79644  23346632.8334   23346631.7674
      -494.3594
  -2041371.96749  -1575585.04245  22954754.5214   22954753.6884
      1223.1094
   1475333.89249   1139620.97548  20590762.7554   20590758.9424
     -1512.8124
   4874631.72649   3761103.00347  22207880.9424   22207876.6614
     -3871.6874
   -297607.81649   -230292.35348  21683974.7784   21683972.6694
       -37.3754
  -1091822.09448   -847346.03344  24180384.1694   24180382.2284
      1293.2034
 04  9  7 21 21  0.0010000  0  6G 3G 8G13G23G27G19
     -5226.28648     -1913.89044  23348058.2714   23348056.4624
      -504.0624
  -2059690.70148  -1589859.35045  22951268.9194   22951267.8064
      1219.5634
   1498090.36749   1157353.29148  20595093.0754   20595089.2474
     -1521.1874
   4932755.63249   3806394.33747  22218941.3104   22218937.0484
     -3877.9534
   -297017.31449   -229832.21948  21684087.3564   21684085.2514
       -41.1564
  -1111185.23848   -862434.12144  24176699.1774   24176697.9744
      1288.7344
 04  9  7 21 21 15.0010000  0  6G 3G 8G13G23G27G19
      2411.80447      4037.89044  23349511.3804   23349509.5794
      -514.1254
  -2077952.30849  -1604089.14945  22947793.5444   22947792.4504
      1215.4694
   1520977.26549   1175187.23548  20599448.2714   20599444.4544
     -1530.1874
   4990977.49649   3851761.99747  22230020.8494   22230016.5364
     -3884.7974
   -296366.61949   -229325.17948  21684211.7944   21684209.1614
       -45.4374
  -1130476.37548   -877466.13844  24173028.3024   24173026.2354
      1283.5944
 04  9  7 21 21 30.0010000  0  6G 3G 8G13G23G27G19
     10204.55647     10110.17944  23350993.8024   23350992.3684
      -524.6724
  -2096150.87148  -1618269.82045  22944330.4584   22944329.2434
      1211.1094
   1544000.44749   1193127.36948  20603829.4504   20603825.6104
     -1539.4064
   5049303.03849   3897210.43947  22241119.9894   22241115.5484
     -3891.7974
   -295650.05649   -228766.80948  21684347.6304   21684345.0324
       -49.9534
  -1149689.31247   -892437.21643  24169372.3334   24169369.3334
      1278.2664
 04  9  7 21 21 45.0010000  0  6G 3G 8G13G23G27G19
     18148.51547     16300.28244  23352505.1774   23352504.5954
      -534.8444
  -2114289.93548  -1632404.13346  22940878.5214   22940877.6304
      1207.1564
   1567156.31949   1211170.90348  20608235.6614   20608232.3174
     -1548.3754
   5107728.43349   3942736.70446  22252237.7004   22252233.6854
     -3898.5314
   -294871.21749   -228159.91448  21684495.7784   21684493.7044
       -54.1874
  -1168827.21047   -907349.81744  24165730.6064   24165727.8254
      1273.0634
 04  9  7 21 22  0.0010000  0  6G 3G 8G13G23G27G19
     26250.14347     22613.24644  23354047.4584   23354046.2864
      -544.7664
  -2132363.24048  -1646487.20445  22937439.5214   22937438.8604
      1203.1564
   1590451.36849   1229322.88648  20612668.5994   20612665.2864
     -1557.1724
   5166259.95849   3988345.63946  22263376.0674   22263371.7314
     -3905.1724
   -294023.91249   -227499.67548  21684657.2474   21684655.0054
       -58.3124
  -1187883.44448   -922198.78844  24162104.4114   24162101.7594
      1268.1414
 04  9  7 21 22 15.0010000  0  6G 3G 8G13G23G27G19
     34496.28347     29038.81744  23355616.5134   23355615.4314
      -554.7034
  -2150384.20549  -1660529.47945  22934010.2244   22934008.9194
      1199.4224
   1613872.24549   1247572.91548  20617125.7554   20617121.9034
     -1565.7814
   5224884.11849   4034026.79447  22274531.9034   22274527.7044
     -3911.5164
   -293121.34849   -226796.36948  21684828.5054   21684826.4624
       -62.1254
  -1206870.99247   -936994.23744  24158490.0674   24158488.5834
      1263.4224
 04  9  7 21 22 30.0010000  0  6G 3G 8G13G23G27G19
     42893.13547     35581.82144  23357214.4584   23357213.3964
      -564.7344
  -2168346.65949  -1674526.17345  22930592.3414   22930589.9784
      1195.6564
   1637425.06649   1265925.75648  20621607.7004   20621603.9154
     -1574.5004
   5283606.79849   4079784.69347  22285707.0834   22285702.3254
     -3918.0314
   -292157.60149   -226045.40247  21685012.1774   21685009.9384
       -66.2344
  -1225783.64447   -951731.31144  24154892.0674   24154889.2674
      1258.3914
 04  9  7 21 22 45.0010000  0  6G 3G 8G13G23G27G19
     51442.63248     42243.76244  23358840.7244   23358839.4314
      -575.3914
  -2186248.91048  -1688475.94545  22927185.5994   22927183.8174
      1191.1884
   1661111.62849   1284382.81148  20626114.6924   20626111.2314
     -1583.8284
   5342429.54149   4125620.56647  22296900.0364   22296895.7594
     -3925.1724
   -291130.95649   -225245.41347  21685207.5444   21685204.9784
       -70.7974
  -1244619.21447   -966408.34744  24151307.8494   24151305.8254
      1252.8284
 04  9  7 21 23  0.0010000  0  6G 3G 8G13G23G27G19
     60146.75747     49026.20344  23360498.1774   23360495.7744
      -585.1874
  -2204089.06248  -1702377.34545  22923790.3414   22923789.8214
      1187.4694
   1684933.92249   1302945.63148  20630648.1384   20630644.4704
     -1592.4064
   5401354.09649   4171535.77147  22308112.7394   22308108.6344
     -3931.3914
   -290039.47149   -224394.89748  21685414.9974   21685412.8134
       -74.7194
  -1263375.46347   -981023.57044  24147738.0604   24147736.0094
      1247.9694
 04  9  7 21 23 15.0010000  0  6G 3G 8G13G23G27G19
     68998.35247     55923.54344  23362181.7864   23362180.4274
      -595.5784
  -2221874.35449  -1716235.98845  22920406.3174   22920404.3924
      1183.3284
   1708884.65049   1321608.52948  20635205.9194   20635202.1614
     -1601.5164
   5460373.00449   4217524.49447  22319343.9584   22319340.0134
     -3938.2814
   -288890.61449   -223499.68048  21685633.7714   21685631.2204
       -79.0474
  -1282059.26048   -995582.34344  24144183.1064   24144180.6494
      1242.6724
 04  9  7 21 23 30.0010000  0  6G 3G 8G13G23G27G19
     77999.94947     62937.79144  23363895.2164   23363893.8134
      -605.0004
  -2239602.39949  -1730050.02145  22917032.4504   22917031.1734
      1180.1094
   1732966.25449   1340373.41948  20639788.7164   20639784.7514
     -1609.6414
   5519488.41249   4263588.42747  22330593.7004   22330589.2944
     -3944.1414
   -287681.95249   -222557.86148  21685864.1924   21685861.6574
       -82.3914
  -1300667.93348  -1010082.55544  24140641.8884   24140639.3534
      1238.1094
 04  9  7 21 23 45.0010000  0  6G 3G 8G13G23G27G19
     87151.82048     70069.12544  23365636.5994   23365635.4664
      -615.1564
  -2257273.06248  -1743819.33245  22913669.8174   22913668.8174
      1176.0784
   1757178.92249   1359240.42548  20644395.7864   20644392.4034
     -1618.5474
   5578700.37449   4309727.58647  22341861.0134   22341856.7434
     -3950.6094
   -286413.46049   -221569.42148  21686105.5754   21686102.8294
       -86.5314
  -1319201.09748  -1024523.96443  24137114.4664   24137112.7864
      1233.0004
 04  9  7 21 24  0.0010000  0  6G 3G 8G13G23G27G19
     96457.09048     77319.98344  23367407.2004   23367406.1064
      -625.2194
  -2274883.29849  -1757541.57245  22910318.7714   22910317.2394
      1172.2194
   1781525.45449   1378211.74348  20649028.9814   20649025.9074
     -1627.3754
   5638011.63749   4355944.13747  22353147.5054   22353143.2634
     -3957.1414
   -285082.11149   -220532.00148  21686358.5834   21686356.0994
       -90.6094
  -1337655.38347  -1038903.87843  24133603.7004   24133600.9314
      1227.8284
 04  9  7 21 24 15.0010000  0  6G 3G 8G13G23G27G19
    105912.73347     84688.02744  23369206.8644   23369205.4074
      -635.2034
  -2292436.27549  -1771219.16645  22906978.2944   22906976.6614
      1168.5944
   1806003.03849   1397285.18848  20653686.8494   20653683.4034
     -1635.9064
   5697418.95649   4402235.51847  22364452.7164   22364448.4234
     -3963.3594
   -283691.18349   -219448.15248  21686623.5524   21686621.2124
       -94.4224
  -1356033.55647  -1053224.50544  24130105.7084   24130103.5284
      1222.8444
 04  9  7 21 24 30.0010000  0  6G 3G 8G13G23G27G19
    115516.05847     92171.13744  23371034.4114   23371032.8994
      -645.5004
  -2309934.84449  -1784854.39445  22903648.3724   22903647.0674
      1164.4224
   1830608.96649   1416458.62648  20658368.9894   20658365.7004
     -1645.0004
   5756919.36349   4448599.44347  22375775.1464   22375770.6264
     -3970.0944
   -282243.49149   -218320.07648  21686899.1064   21686896.4854
       -98.7664
  -1374338.06048  -1067487.72544  24126623.2004   24126620.4744
      1217.4694
 04  9  7 21 24 45.0010000  0  6G 3G 8G13G23G27G19
    125274.69847     99775.27444  23372890.7554   23372890.1424
      -655.3594
  -2327371.41849  -1798441.30745  22900330.8334   22900328.9384
      1160.6094
   1855350.62349   1435737.83948  20663077.1694   20663074.1814
     -1653.7194
   5816520.10749   4495041.56747  22387117.1614   22387112.0604
     -3976.3914
   -280731.59849   -217141.97048  21687186.5674   21687184.2124
      -102.7034
  -1392561.15547  -1081687.46544  24123154.3414   24123152.3644
      1212.4224
 04  9  7 21 25  0.0010000  0  6G 3G 8G13G23G27G19
    135179.98947    107493.67544  23374775.6924   23374775.4584
      -665.4064
  -2344754.71948  -1811986.70545  22897022.6464   22897020.7744
      1157.0314
   1880219.33349   1455116.03848  20667809.7554   20667805.9894
     -1662.2034
   5876212.21649   4541554.86847  22398476.2004   22398471.5134
     -3982.5474
   -279164.22049   -215920.63448  21687484.7394   21687482.4154
      -106.3914
  -1410711.39646  -1095830.48044  24119700.2244   24119698.1384
      1207.5164
 04  9  7 21 25 15.0010000  0  6G 3G 8G13G23G27G19
    145234.93148    115328.69344  23376689.4744   23376688.3294
      -675.2344
  -2362082.16848  -1825488.58645  22893724.4424   22893724.1574
      1153.3134
   1905218.06049   1474595.56248  20672566.8334   20672563.3684
     -1670.8284
   5935998.47449   4588141.53346  22409853.0524   22409848.5914
     -3988.7974
   -277538.54449   -214653.86548  21687794.1464   21687792.1034
      -110.2344
  -1428785.40246  -1109914.08244  24116261.7864   24116259.1464
      1202.4694
 04  9  7 21 25 30.0010000  0  6G 3G 8G13G23G27G19
    155438.38947    123279.45144  23378631.0754   23378630.4354
      -685.3594
  -2379354.83948  -1838947.77945  22890437.7084   22890436.4384
      1149.4694
   1930345.57549   1494175.44548  20677348.2084   20677344.4154
     -1679.7194
   5995877.49549   4634800.47747  22421247.6304   22421242.4894
     -3995.2504
   -275855.89749   -213342.70848  21688114.4034   21688112.4624
      -114.3444
  -1446784.01746  -1123938.94844  24112835.3334   24112834.3024
      1197.1564
 04  9  7 21 25 45.0010000  0  6G 3G 8G13G23G27G19
    165793.90048    131348.66844  23380602.0754   23380600.1424
      -695.3594
  -2396569.38848  -1852361.68846  22887162.2004   22887161.3564
      1145.8594
   1955605.17949   1513858.24948  20682155.7944   20682151.8024
     -1688.2814
   6055852.42549   4681534.15747  22432660.3174   22432656.3334
     -4001.4694
   -274112.88149   -211984.50448  21688445.8644   21688442.9624
      -118.1094
  -1464703.55046  -1137902.18644  24109425.3564   24109424.3254
      1192.0634
 04  9  7 21 26  0.0020000  0  6G 3G 8G13G23G27G19
    176302.94647    139537.55544  23382601.1824   23382599.7874
      -705.6564
  -2413726.01948  -1865730.46646  22883897.4944   22883896.2994
      1141.8134
   1980999.26749   1533645.85648  20686987.5334   20686983.7954
     -1697.1724
   6115927.70749   4728346.04247  22444092.5964   22444087.9394
     -4007.8594
   -272308.89549   -210578.78948  21688789.1114   21688786.9554
      -122.1874
  -1482544.32847  -1151804.04744  24106031.1434   24106029.5764
      1186.6094
 04  9  7 21 26 15.0020000  0  6G 3G 8G13G23G27G19
    186966.36848    147846.70744  23384630.6584   23384628.4244
      -715.8284
  -2430820.59249  -1879050.87846  22880644.5184   22880643.1004
      1137.9224
   2006526.69349   1553537.33848  20691845.4794   20691841.2364
     -1706.0164
   6176097.26649   4775231.38446  22455542.3854   22455537.9944
     -4014.2814
   -270442.05349   -209124.11048  21689144.2914   21689142.3184
      -126.2504
  -1500301.58948  -1165640.83744  24102652.4864   24102650.3854
      1181.3134
 04  9  7 21 26 30.0020000  0  6G 3G 8G13G23G27G19
    197775.39248    156269.32944  23386687.3854   23386686.4244
      -725.6254
  -2447863.79548  -1892331.28946  22877401.5104   22877399.8814
      1134.3444
   2032179.61249   1573526.61848  20696726.5334   20696723.2644
     -1714.5474
   6236355.36949   4822185.71546  22467009.2054   22467004.8184
     -4020.3284
   -268521.75849   -207627.76348  21689510.1274   21689507.7134
      -129.9064
  -1517985.61448  -1179420.55244  24099286.3774   24099284.6154
      1176.4224
 04  9  7 21 26 45.0020000  0  6G 3G 8G13G23G27G19
    208735.90148    164810.01344  23388773.2834   23388771.9944
      -735.7974
  -2464849.84848  -1905567.12545  22874168.7294   22874167.3814
      1130.4844
   2057963.83249   1593618.21348  20701633.3694   20701629.5964
     -1723.3914
   6296707.73249   4869213.50147  22478494.1044   22478489.2134
     -4026.6724
   -266542.40949   -206085.40248  21689886.9474   21689884.2404
      -133.9694
  -1535590.26748  -1193138.43044  24095937.3304   24095934.7364
      1171.0164
 04  9  7 21 27  0.0020000  0  6G 3G 8G13G23G27G19
    219846.10448    173467.31144  23390887.4714   23390885.3264
      -745.9374
  -2481780.65049  -1918759.94745  22870947.1044   22870945.5924
      1126.5164
   2083877.37749   1613810.58448  20706564.5964   20706560.8344
     -1732.1724
   6357152.15949   4916313.02146  22489996.0644   22489991.1704
     -4032.9844
   -264505.73249   -204498.38848  21690274.3074   21690271.6044
      -138.0004
  -1553117.22848  -1206795.77444  24092601.6894   24092599.3654
      1165.5314
 04  9  7 21 27 15.0020000  0  6G 3G 8G13G23G27G19
    231107.08947    182242.12244  23393030.1194   23393029.2714
      -755.9694
  -2498655.21749  -1931908.93445  22867735.9244   22867734.4754
      1122.8444
   2109921.35049   1634104.58648  20711520.5644   20711517.2214
     -1740.8444
   6417689.44649   4963484.90646  22501515.8854   22501511.2684
     -4039.1254
   -262410.96649   -202866.08648  21690672.8224   21690669.9754
      -141.8124
  -1570565.09148  -1220391.46244  24089281.3694   24089279.0644
      1160.3444
 04  9  7 21 27 30.0020000  0  6G 3G 8G13G23G27G19
    242518.16048    191133.86544  23395202.1434   23395199.6864
      -765.6874
  -2515474.10049  -1945014.52046  22864535.5414   22864533.6824
      1119.5784
   2136095.04549   1654499.66048  20716501.3544   20716497.5374
     -1749.0624
   6478318.68249   5010728.42946  22513053.4084   22513048.5884
     -4044.8444
   -260258.89549   -201189.15148  21691082.5884   21691079.9084
      -145.2344
  -1587934.39348  -1233925.94044  24085976.9714   24085973.5104
      1155.5004
 04  9  7 21 27 45.0020000  0  6G 3G 8G13G23G27G19
    254080.60348    200143.56744  23397402.4944   23397401.0104
      -775.8594
  -2532236.36848  -1958076.00746  22861345.6354   22861344.1394
      1115.7034
   2162399.65549   1674996.74748  20721506.9244   20721503.5254
     -1757.8594
   6539040.82549   5058044.35246  22524608.3694   22524603.7014
     -4051.0784
   -258048.37049   -199466.65348  21691502.9794   21691500.1704
      -149.1874
  -1605223.55147  -1247397.96544  24082686.3144   24082683.2644
      1150.0164
 04  9  7 21 28  0.0020000  0  6G 3G 8G13G23G27G19
    265797.33148    209273.51644  23399631.6744   23399630.5104
      -786.1414
  -2548939.22148  -1971091.17946  22858167.6354   22858165.7524
      1111.6724
   2188837.97249   1695598.03748  20726537.7914   20726534.4364
     -1766.8914
   6599858.46249   5105434.69946  22536181.8304   22536177.0614
     -4057.5474
   -255776.78749   -197696.56848  21691935.3774   21691932.9824
      -153.2974
  -1622429.50247  -1260805.14744  24079411.7754   24079408.9004
      1144.4064
 04  9  7 21 28 15.0020000  0  6G 3G 8G13G23G27G19
    277665.98247    218521.81044  23401889.3074   23401888.9084
      -796.4374
  -2565585.06448  -1984061.95446  22855000.0184   22854998.2054
      1107.6884
   2215407.50249   1716301.54448  20731593.9864   20731590.3464
     -1775.7974
   6660769.02149   5152897.43146  22547772.6894   22547767.8264
     -4063.8594
   -253446.52649   -195880.79648  21692378.7834   21692375.9244
      -157.4224
  -1639554.38747  -1274149.17144  24076153.5024   24076151.2214
      1138.9064
 04  9  7 21 28 30.0020000  0  6G 3G 8G13G23G27G19
    289686.02847    227888.09144  23404177.6274   23404176.5334
      -806.4534
  -2582174.51848  -1996988.76446  22851842.9244   22851841.2564
      1103.9534
   2242107.69349   1737106.89448  20736674.8304   20736671.3574
     -1784.4694
   6721771.70049   5200431.95946  22559380.5964   22559376.2954
     -4070.0164
   -251058.12649   -194019.69548  21692832.8694   21692830.5454
      -161.2664
  -1656598.41547  -1287430.18844  24072909.4554   24072907.4204
      1133.4844
 04  9  7 21 28 45.0020000  0  6G 3G 8G13G23G27G19
    301861.47547    237375.45344  23406493.9164   23406493.3304
      -816.8444
  -2598703.71348  -2009868.61746  22848697.3384   22848695.9124
      1099.9844
   2268942.59849   1758017.20148  20741781.4324   20741777.2644
     -1793.4224
   6782870.23549   5248041.17846  22571007.9324   22571003.4434
     -4076.4064
   -248607.76249   -192110.30548  21693299.4634   21693296.5644
      -165.3594
  -1673557.37947  -1300644.91144  24069682.7214   24069680.7834
      1127.8284
 04  9  7 21 29  0.0020000  0  6G 3G 8G13G23G27G19
    314189.89847    246982.03844  23408839.7684   23408839.2294
      -827.0474
  -2615174.99749  -2022703.36546  22845563.5574   22845561.6154
      1096.0474
   2295909.65649   1779030.48748  20746913.1664   20746909.4044
     -1802.3444
   6844061.93849   5295722.99246  22582651.9794   22582647.3304
     -4082.6564
   -246098.10449   -190154.72248  21693776.8464   21693774.3224
      -169.3594
  -1690433.51448  -1313795.11944  24066471.4864   24066468.9594
      1122.1884
 04  9  7 21 29 15.0020000  0  6G 3G 8G13G23G27G19
    326669.94447    256706.75744  23411215.0494   23411214.9754
      -837.0314
  -2631589.79349  -2035494.08346  22842439.4164   22842438.0064
      1092.4844
   2323007.49149   1800145.68448  20752069.7054   20752066.0534
     -1810.8594
   6905345.08249   5343476.06346  22594314.2834   22594309.3424
     -4088.5624
   -243530.58249   -188154.04448  21694265.4714   21694263.5534
      -173.0314
  -1707227.92547  -1326881.63144  24063275.6354   24063273.1504
      1116.9694
 04  9  7 21 29 30.0020000  0  6G 3G 8G13G23G27G19
    339301.06647    266549.19344  23413619.0254   23413617.7994
      -847.0944
  -2647948.96448  -2048241.45746  22839325.8934   22839324.1114
      1088.6564
   2350235.33249   1821362.17748  20757250.6504   20757247.0614
     -1819.5474
   6966718.81649   5391299.72246  22605992.5254   22605988.4514
     -4094.5624
   -240905.85949   -186108.80148  21694764.7914   21694762.6274
      -176.9224
  -1723940.96847  -1339904.71944  24060094.1584   24060092.4864
      1111.4224
 04  9  7 21 29 45.0020000  0  6G 3G 8G13G23G27G19
    352082.04147    276508.41144  23416050.8614   23416049.8964
      -856.7194
  -2664253.83449  -2060946.51146  22836223.3934   22836221.8544
      1085.5004
   2377591.86649   1842678.96548  20762456.4944   20762453.2324
     -1827.6874
   7028181.64149   5439192.80546  22617688.7604   22617684.4124
     -4100.1414
   -238225.37549   -184020.09948  21695275.0494   21695272.6824
      -180.2034
  -1740573.66247  -1352865.19044  24056929.2684   24056927.4944
      1106.5474
 04  9  7 21 30  0.0020000  0  6G 3G 8G13G23G27G19
    365015.12947    286586.14544  23418511.8934   23418511.1354
      -867.3914
  -2680501.95948  -2073607.38046  22833131.6274   22833129.7294
      1081.1254
   2405079.48349   1864097.86948  20767687.6744   20767684.1234
     -1837.0784
   7089735.63049   5487156.90946  22629402.4324   22629397.6824
     -4106.7504
   -235486.87049   -181886.20848  21695796.0964   21695793.3734
      -184.6254
  -1757123.37147  -1365761.03544  24053780.2604   24053777.9004
      1100.3594
 04  9  7 21 30 15.0020000  0  6G 3G 8G13G23G27G19
    378102.22247    296783.90744  23421002.7684   23421001.5924
      -877.7034
  -2696691.67548  -2086222.71346  22830050.7444   22830048.6624
      1077.2664
   2432699.82449   1885620.20548  20772943.1434   20772940.1394
     -1845.8444
   7151382.30949   5535193.24146  22641133.1194   22641128.7954
     -4112.9064
   -232688.68149   -179705.79048  21696328.9794   21696326.3614
      -188.6414
  -1773588.07447  -1378590.65344  24050646.9634   24050644.6354
      1094.6724
 04  9  7 21 30 30.0020000  0  6G 3G 8G13G23G27G19
    391346.63447    307104.24544  23423522.2754   23423521.7294
      -888.2974
  -2712819.95048  -2098790.17946  22826981.7134   22826979.8184
      1073.0784
   2460456.13449   1907248.49648  20778225.0254   20778221.9864
     -1855.0944
   7213124.78949   5583304.22846  22652882.1354   22652877.7954
     -4119.4534
   -229827.66349   -177476.41948  21696873.2134   21696870.5254
      -193.0164
  -1789964.26947  -1391351.25944  24047530.1354   24047528.2604
      1088.7344
 04  9  7 21 30 45.0020000  0  6G 3G 8G13G23G27G19
    404746.72847    317545.88344  23426072.8464   23426071.5184
      -898.0314
  -2728888.56248  -2111311.15146  22823923.2914   22823922.2524
      1069.6564
   2488346.78349   1928981.46348  20783532.6114   20783529.2604
     -1863.3594
   7274961.01448   5631488.26646  22664649.2214   22664645.2684
     -4125.1254
   -226905.61149   -175199.49248  21697429.2994   21697426.5494
      -196.4064
  -1806253.34147  -1404043.97244  24044430.6354   24044428.7834
      1083.5474
 04  9  7 21 31  0.0020000  0  6G 3G 8G13G23G27G19
    418294.67547    328102.73544  23428650.7994   23428649.9324
      -908.0624
  -2744905.13948  -2123791.56546  22820876.0494   22820874.6194
      1066.1094
   2516363.78749   1950812.88348  20788864.1114   20788860.7014
     -1871.9374
   7336883.00449   5679739.12346  22676433.2214   22676428.7954
     -4130.8914
   -223930.37449   -172881.12048  21697994.9864   21697992.7174
      -200.0944
  -1822462.90448  -1416674.75544  24041347.2914   24041343.9394
      1077.9694
 04  9  7 21 31 15.0020000  0  6G 3G 8G13G23G27G19
    431989.79047    338774.25544  23431256.7994   23431255.9364
      -917.8124
  -2760870.51248  -2136232.10546  22817837.9944   22817836.4244
      1062.7034
   2544506.48949   1972742.25948  20794219.5184   20794216.1194
     -1880.2504
   7398889.87748   5728056.14146  22688232.1974   22688228.2214
     -4136.4844
   -220902.74849   -170521.92048  21698571.5254   21698569.3854
      -203.4844
  -1838593.24447  -1429243.81644  24038277.2914   24038274.7134
      1072.8754
 04  9  7 21 31 30.0020000  0  6G 3G 8G13G23G27G19
    445840.15248    349566.76044  23433892.8384   23433891.5414
      -927.8594
  -2776776.93948  -2148626.69346  22814810.6894   22814809.5374
      1059.1414
   2572782.89049   1994775.81748  20799600.3304   20799596.5104
     -1888.8124
   7460989.27549   5776445.24946  22700049.3934   22700045.0024
     -4142.3444
   -217814.83949   -168115.75048  21699159.1744   21699156.3734
      -207.2034
  -1854636.24147  -1441744.79044  24035223.7754   24035221.7914
      1067.2194
 04  9  7 21 31 45.0020000  0  6G 3G 8G13G23G27G19
    459842.32948    360477.56544  23436556.9864   23436556.0214
      -938.7814
  -2792627.58648  -2160977.82846  22811794.5884   22811792.7214
      1054.5784
   2601189.38649   2016910.73448  20805005.6354   20805002.0214
     -1898.3754
   7523177.41448   5824903.49346  22711883.6504   22711878.9904
     -4149.0624
   -214670.18349   -165665.36748  21699757.6194   21699755.1434
      -211.7664
  -1870595.05547  -1454180.17644  24032187.3304   24032184.4084
      1060.8914
 04  9  7 21 32  0.0020000  0  6G 3G 8G13G23G27G19
    473998.85947    371508.63844  23439250.7524   23439249.7874
      -949.0164
  -2808420.18048  -2173283.72746  22808789.3074   22808787.8574
      1050.7194
   2629728.66749   2039149.13648  20810436.9394   20810432.6704
     -1907.2664
   7585456.66948   5873432.73646  22723735.1114   22723730.8854
     -4155.1724
   -211466.39549   -163168.89748  21700367.2754   21700364.7524
      -215.7504
  -1886466.80047  -1466547.71344  24029167.2754   24029163.7094
      1054.9844
 04  9  7 21 32 15.0020000  0  6G 3G 8G13G23G27G19
    488312.56947    382662.19044  23441974.4474   23441973.4324
      -959.4064
  -2824151.73948  -2185542.06246  22805795.1824   22805793.3934
      1046.8594
   2658403.25949   2061492.96748  20815893.5184   20815890.0574
     -1916.0474
   7647829.64048   5922035.02646  22735603.9084   22735599.4944
     -4161.2034
   -208200.69349   -160624.19248  21700988.8544   21700986.4474
      -219.6874
  -1902248.44547  -1478845.05444  24026163.0804   24026160.7754
      1049.1414
 04  9  7 21 32 30.0020000  0  6G 3G 8G13G23G27G19
    502777.90547    393933.90144  23444726.8614   23444726.0534
      -969.5624
  -2839828.07848  -2197757.35746  22802812.9244   22802810.8114
      1043.1254
   2687207.59649   2083937.90348  20821374.5574   20821371.2134
     -1924.8124
   7710290.52948   5970705.82246  22747490.0804   22747486.2134
     -4167.1254
   -204878.82149   -158035.71048  21701620.5574   21701618.2914
      -223.4844
  -1917945.36347  -1491076.36144  24023176.4084   24023174.0724
      1043.4384
 04  9  7 21 32 45.0020000  0  6G 3G 8G13G23G27G19
    517397.31548    405325.65944  23447509.7444   23447508.0024
      -979.5784
  -2855446.85548  -2209927.80646  22799840.4864   22799838.9864
      1039.5314
   2716144.12549   2106485.84148  20826880.9004   20826877.5534
     -1933.2974
   7772841.45548   6019446.76246  22759393.2604   22759388.6274
     -4172.8594
   -201498.32949   -155401.55248  21702263.9004   21702261.5574
      -227.0314
  -1933554.85947  -1503239.54844  24020206.0964   24020203.5534
      1038.0004
 04  9  7 21 33  0.0020000  0  6G 3G 8G13G23G27G19
    532173.49247    416839.57344  23450321.1584   23450319.9514
      -989.9374
  -2871005.40848  -2222051.33046  22796879.2444   22796877.8694
      1035.6564
   2745215.45349   2129138.81948  20832413.0494   20832409.0644
     -1942.2194
   7835484.86048   6068259.76146  22771313.4324   22771309.6354
     -4178.9694
   -198056.73149   -152719.78248  21702918.7914   21702916.2874
      -231.1414
  -1949073.88247  -1515332.23944  24017252.9244   24017249.9944
      1031.8914
 04  9  7 21 33 15.0020000  0  6G 3G 8G13G23G27G19
    547106.64047    428475.80444  23453163.0804   23453161.9044
     -1000.5164
  -2886503.67548  -2234127.87846  22793930.1434   22793928.7874
      1031.4224
   2774421.67749   2151896.91148  20837971.0804   20837967.8034
     -1951.3444
   7898220.65548   6117144.76646  22783252.5724   22783248.0254
     -4185.1724
   -194553.93349   -149990.32448  21703585.6194   21703582.9084
      -235.2974
  -1964502.07947  -1527354.16044  24014316.6114   24014314.5924
      1025.6724
 04  9  7 21 33 30.0020000  0  6G 3G 8G13G23G27G19
    562189.09948    440228.38744  23456033.5334   23456031.5614
     -1010.6724
  -2901949.28448  -2246163.40046  22790991.5104   22790989.8544
      1027.7814
   2803755.32349   2174754.29348  20843552.8544   20843549.5884
     -1960.0474
   7961041.01848   6166095.65046  22795206.4944   22795202.6824
     -4191.0164
   -190997.61949   -147219.15948  21704262.3614   21704260.1234
      -239.0474
  -1979846.75547  -1539311.01244  24011396.6894   24011393.5764
      1019.9534
 04  9  7 21 33 45.0020000  0  6G 3G 8G13G23G27G19
    577422.72647    452098.76044  23458931.0724   23458930.6464
     -1020.2974
  -2917340.29048  -2258156.36246  22788062.2054   22788060.7054
      1024.5474
   2833218.13149   2197712.31948  20849159.3934   20849155.9084
     -1968.2504
   8023947.52748   6215113.67346  22807177.4944   22807173.0374
     -4196.3754
   -187386.01249   -144404.92148  21704949.2684   21704947.1314
      -242.3284
  -1995105.80346  -1551201.12944  24008492.7754   24008490.1074
      1014.6254
 04  9  7 21 34  0.0020000  0  6G 3G 8G13G23G27G19
    592808.63047    464087.77544  23461859.2834   23461858.3144
     -1031.0474
  -2932675.84948  -2270106.12946  22785144.0574   22785142.9204
      1020.3284
   2862810.93449   2220771.63448  20854790.8074   20854787.2834
     -1977.3444
   8086940.94648   6264199.39946  22819164.6274   22819160.3894
     -4202.6724
   -183718.10549   -141546.80648  21705647.4474   21705645.2834
      -246.5624
  -2010277.94247  -1563023.53544  24005605.9324   24005603.0964
      1008.3914
 04  9  7 21 34 15.0020000  0  6G 3G 8G13G23G27G19
    608346.43247    476195.16944  23464816.6664   23464815.5414
     -1041.1414
  -2947956.38148  -2282013.01046  22782236.1434   22782235.0104
      1016.6724
   2892533.31349   2243931.93348  20860446.7444   20860443.4864
     -1986.0164
   8150020.61648   6313352.36046  22831167.9794   22831163.7874
     -4208.3754
   -179994.51549   -138645.29448  21706356.0184   21706353.8264
      -250.3284
  -2025363.24248  -1574778.26344  24002735.3224   24002732.2994
      1002.6094
 04  9  7 21 34 30.0020000  0  6G 3G 8G13G23G27G19
    624034.50647    488419.65744  23467801.8694   23467800.4434
     -1051.0944
  -2963183.47748  -2293878.25646  22779338.0804   22779336.6234
      1013.1884
   2922383.70149   2267191.97448  20866127.0104   20866123.7684
     -1994.4534
   8213184.72348   6362571.09846  22843187.2214   22843183.6274
     -4213.9224
   -176216.95449   -135701.73948  21707074.9864   21707072.6004
      -253.8124
  -2040363.05847  -1586466.36644  23999880.8384   23999878.2444
       997.0164
 04  9  7 21 34 45.0020000  0  6G 3G 8G13G23G27G19
    639880.28948    500767.02844  23470816.8854   23470815.2994
     -1061.8444
  -2978349.87948  -2305696.20546  22776452.2994   22776451.0024
      1008.8134
   2952369.35049   2290557.41348  20871833.3614   20871830.0684
     -2003.7814
   8276440.34948   6411861.16246  22855225.0184   22855220.9554
     -4220.3444
   -172378.03349   -132710.35948  21707805.4474   21707803.3504
      -258.2194
  -2055269.72747  -1598081.90944  23997044.1194   23997041.8144
       990.3594
 04  9  7 21 35  0.0020000  0  6G 3G 8G13G23G27G19
    655879.36047    513233.83144  23473861.2604   23473859.7134
     -1071.7664
  -2993459.93548  -2317470.24346  22773576.9634   22773575.5254
      1005.4534
   2982485.85649   2314024.80848  20877563.9324   20877560.4634
     -2012.1414
   8339782.95548   6461218.98946  22867278.5104   22867275.0374
     -4225.7504
   -168482.15249   -129674.60848  21708546.4944   21708544.1864
      -261.6254
  -2070087.45147  -1609628.13544  23994224.9864   23994221.7524
       984.7664
 04  9  7 21 35 15.0020000  0  6G 3G 8G13G23G27G19
    672033.41448    525821.43344  23476935.8694   23476934.0414
     -1082.0624
  -3008512.03948  -2329199.12546  22770713.1664   22770711.4714
      1001.5314
   3012734.83649   2337595.44348  20883320.1894   20883316.7444
     -2021.0004
   8403213.86948   6510645.64246  22879349.4324   22879345.4794
     -4231.6724
   -164527.85549   -126593.32348  21709299.0964   21709296.6074
      -265.5624
  -2084814.27447  -1621103.54644  23991422.0334   23991419.1154
       978.7344
 04  9  7 21 35 30.0020000  0  6G 3G 8G13G23G27G19
    688340.29548    538528.10144  23480038.1434   23480037.3304
     -1091.9534
  -3023508.67548  -2340884.79946  22767858.3074   22767857.6824
       998.1884
   3043114.01749   2361267.52148  20889101.2524   20889097.7134
     -2029.3124
   8466730.67048   6560139.22146  22891436.1824   22891432.1354
     -4237.0314
   -160517.49949   -123468.37348  21710062.2134   21710059.9714
      -268.9844
  -2099452.22647  -1632509.71444  23988636.5414   23988633.7254
       973.1884
 04  9  7 21 35 45.0020000  0  6G 3G 8G13G23G27G19
    704802.81348    551356.05544  23483171.3224   23483169.4714
     -1103.2034
  -3038446.77148  -2352524.84846  22765015.8544   22765014.6664
       993.3134
   3073626.29149   2385043.30848  20894907.5024   20894904.3464
     -2039.1874
   8530336.00049   6609701.77846  22903540.1354   22903535.9164
     -4243.9224
   -156448.14849   -120297.44048  21710836.7294   21710834.1664
      -273.8284
  -2113998.10447  -1643844.12044  23985868.4164   23985865.4594
       966.0634
 04  9  7 21 36  0.0020000  0  6G 3G 8G13G23G27G19
    721421.48248    564305.67144  23486333.6974   23486332.3894
     -1112.7344
  -3053326.10348  -2364119.09446  22762184.5184   22762183.4904
       990.4064
   3104272.01549   2408923.09148  20900739.3464   20900735.6584
     -2047.0624
   8594029.94349   6659333.38346  22915660.1584   22915656.6624
     -4248.8444
   -152319.52549   -117080.31448  21711622.3464   21711619.3654
      -276.7974
  -2128451.19547  -1655106.22444  23983118.3464   23983115.4084
       960.7504
 04  9  7 21 36 15.0020000  0  7G 3G 8G13G10G23G27G19
    738190.55048    577372.49444  23489524.0724   23489523.2254
     -1122.9064
  -3068152.13548  -2375671.81746  22759363.4634   22759362.2874
       986.6884
   3135045.34949   2432902.30748  20906595.4244   20906591.9324
     -2055.8444
    -39006.01856    -27070.04753  24738344.1894   24738342.7254
       962.8134
   8657806.58548   6709029.43446  22927797.1044   22927792.5294
     -4254.5164
   -148137.37749   -113821.48548  21712417.9634   21712415.2994
      -280.5944
  -2142816.87447  -1666300.21844  23980384.1744   23980381.5804
       954.8914
 04  9  7 21 36 30.0020000  0  7G 3G 8G13G10G23G27G19
    755110.42048    590556.81144  23492744.1664   23492743.5024
     -1132.5004
  -3082924.76048  -2387182.92446  22756552.4324   22756550.5334
       983.4844
   3165946.66849   2456981.24748  20912475.7754   20912472.3144
     -2063.9534
    -53387.10746    -38276.07742  24735607.1744   24735606.1434
       955.1884
   8721666.07648   6758790.03846  22939948.6894   22939944.7364
     -4259.6094
   -143901.42249   -110520.74048  21713224.1274   21713221.4824
      -283.7664
  -2157094.50947  -1677425.61144  23977668.1824   23977665.1664
       949.3284
 04  9  7 21 36 45.0020000  0  7G 3G 8G13G10G23G27G19
    772183.52748    603860.55144  23495993.3144   23495992.3034
     -1143.6874
  -3097641.80248  -2398650.73546  22753751.7294   22753750.1864
       978.8914
   3196978.43249   2481161.82348  20918380.8144   20918376.9824
     -2073.5164
    -67644.69546    -49385.87442  24732894.9394   24732892.6464
       946.0164
   8785610.62248   6808616.92446  22952117.4164   22952112.9864
     -4266.1724
   -139609.24849   -107176.17848  21714040.8854   21714038.2604
      -288.3914
  -2171281.39747  -1688480.30544  23974966.9394   23974964.5294
       942.3594
 04  9  7 21 37  0.0020000  0  7G 3G 8G13G10G23G27G19
    789407.81548    617282.07844  23499270.9634   23499269.5254
     -1153.1724
  -3112304.87448  -2410076.47246  22750961.7754   22750959.5494
       976.0004
   3228138.50649   2505442.39748  20924310.3694   20924306.6824
     -2081.4224
    -81780.66547    -60400.91242  24730204.1044   24730202.5454
       938.5314
   8849637.91748   6858508.27646  22964300.9474   22964297.2834
     -4271.0624
   -135263.10849   -103789.57748  21714868.0644   21714865.3694
      -291.3594
  -2185379.42647  -1699465.72544  23972284.2994   23972281.9674
       937.1254
 04  9  7 21 37 15.0020000  0  7G 3G 8G13G10G23G27G19
    806784.02348    630821.99844  23502577.2214   23502576.6154
     -1163.0164
  -3126913.47449  -2421459.76646  22748181.9394   22748180.2714
       972.6094
   3259427.51149   2529823.44248  20930264.1664   20930261.2644
     -2089.7504
    -95794.19846    -71320.52242  24727537.7134   24727535.9714
       930.6254
   8913748.36048   6908464.43946  22976500.8074   22976496.8614
     -4276.3914
   -130862.46449   -100360.48448  21715705.1044   21715703.1004
      -294.7034
  -2199387.58846  -1710381.12844  23969618.5884   23969616.7404
       931.3594
 04  9  7 21 37 30.0020000  0  7G 3G 8G13G10G23G27G19
    824309.93448    644478.55544  23505912.5334   23505911.3344
     -1173.4844
  -3141469.82448  -2432802.36546  22745411.4004   22745409.7404
       968.6414
   3290843.24149   2554303.21648  20936242.6354   20936239.1234
     -2098.6724
   -109687.18545    -82146.22242  24724893.1274   24724893.1044
       922.2664
   8977939.53948   6958483.49546  22988716.6664   22988711.8464
     -4282.1414
   -126409.37049    -96890.53948  21716552.7134   21716550.5964
      -298.6254
  -2213307.73547  -1721227.96344  23966969.8774   23966967.1074
       924.9694
 04  9  7 21 37 45.0020000  0  7G 3G 8G13G10G23G27G19
    841991.37048    658256.32544  23509277.1354   23509276.4324
     -1184.2504
  -3155968.34348  -2444099.87046  22742652.3144   22742650.8424
       964.3134
   3322391.61949   2578886.37048  20942246.2604   20942242.3034
     -2107.9534
   -123453.41646    -92873.15642  24722274.3144   24722273.0574
       913.0164
   9042217.09348   7008569.85646  23000947.7754   23000944.1934
     -4288.3124
   -121898.03649    -93375.19348  21717411.1354   21717408.9164
      -303.0474
  -2227133.65147  -1732001.37044  23964338.8544   23964336.0254
       918.2504
 04  9  7 21 38  0.0020000  0  7G 3G 8G13G10G23G27G19
    859823.87348    672151.76944  23512670.4394   23512669.5454
     -1193.8284
  -3170413.51148  -2455355.83346  22739903.6664   22739901.7524
       961.3594
   3354068.00749   2603569.26448  20948274.1584   20948270.1704
     -2115.9064
   -137097.33246   -103504.76742  24719678.1354   24719676.3114
       905.5474
   9106576.38548   7058719.91846  23013195.2294   23013191.1784
     -4293.2034
   -117333.04249    -89818.05948  21718279.8544   21718277.2994
      -305.8914
  -2240869.67047  -1742704.72244  23961724.5574   23961722.0614
       912.9064
 04  9  7 21 38 15.0020000  0  7G 3G 8G13G10G23G27G19
    877808.33848    686165.65344  23516093.1824   23516092.2094
     -1203.7814
  -3184804.05949  -2466569.23246  22737165.8854   22737163.4434
       957.8444
   3385873.26849   2628352.58148  20954326.0414   20954322.4514
     -2124.3594
   -150617.84845   -114040.18642  24717104.4394   24717103.8774
       897.5004
   9171017.90348   7108934.04346  23025457.9634   23025454.1864
     -4298.6254
   -112713.58549    -86218.48048  21719159.1194   21719156.0064
      -309.5624
  -2254514.63048  -1753337.13345  23959129.4634   23959126.0024
       906.8444
 04  9  7 21 38 30.0020000  0  7G 3G 8G13G10G23G27G19
    895939.01248    700293.45744  23519542.8384   23519541.9904
     -1213.5474
  -3199146.02649  -2477744.77246  22734436.2834   22734434.3424
       954.5634
   3417801.49449   2653231.72148  20960401.8934   20960398.6824
     -2132.6094
   -164020.56846   -124483.85443  24714554.2834   24714553.4594
       889.6884
   9235535.81548   7159207.70546  23037735.7754   23037731.2524
     -4303.6564
   -108045.53549    -82581.03148  21720047.1664   21720044.5374
      -312.7814
  -2268074.05547  -1763902.88144  23956548.0024   23956545.8034
       901.1254
 04  9  7 21 38 45.0020000  0  7G 3G 8G13G10G23G27G19
    914224.36248    714541.80544  23523022.6744   23523021.9944
     -1223.5164
  -3213431.26748  -2488876.10346  22731718.2994   22731716.0144
       951.2034
   3449861.09849   2678213.21648  20966502.7834   20966498.7174
     -2140.9844
   -177296.91247   -134829.02643  24712028.2134   24712026.9904
       881.5474
   9300138.22948   7209547.22446  23050028.6194   23050024.9864
     -4308.9694
   -103320.45549    -78899.14048  21720946.3854   21720943.9434
      -316.2194
  -2281539.09347  -1774395.06144  23953986.3074   23953983.8964
       895.2194
 04  9  7 21 39  0.0020000  0  7G 3G 8G13G10G23G27G19
    932664.02648    728910.38444  23526532.0414   23526530.9284
     -1234.5314
  -3227659.95048  -2499963.36446  22729010.2754   22729008.6624
       946.6094
   3482051.71549   2703296.81648  20972628.6044   20972624.8034
     -2150.4694
   -190447.10147   -145075.91543  24709525.9004   24709524.2364
       872.3914
   9364824.57948   7259952.12446  23062338.4944   23062334.4434
     -4315.2664
    -98538.81049    -75173.18848  21721856.3614   21721853.5844
      -320.7194
  -2294910.02347  -1784813.93844  23951440.9714   23951439.1784
       888.2504
 04  9  7 21 39 15.0020000  0  7G 3G 8G13G10G23G27G19
    951254.21247    743396.25844  23530069.1194   23530068.2954
     -1244.4844
  -3241835.67448  -2511009.35846  22726312.4324   22726310.7214
       943.1094
   3514369.57349   2728479.54948  20978778.1354   20978774.6154
     -2159.0004
   -203474.52747   -155227.13743  24707047.0414   24707045.8034
       864.2814
   9429590.80448   7310419.28246  23074662.7294   23074658.3464
     -4320.5944
    -93704.50449    -71406.18448  21722776.2294   21722773.9554
      -324.2814
  -2308190.25847  -1795162.14045  23948913.9164   23948912.0214
       882.1414
 04  9  7 21 39 30.0020000  0  7G 3G 8G13G10G23G27G19
    969996.28648    758000.47444  23533635.8144   23533634.4984
     -1254.7974
  -3255957.25749  -2522013.15846  22723625.6114   22723623.6434
       939.4224
   3546815.83549   2753762.33948  20984952.4634   20984948.9004
     -2167.5164
   -216377.75246   -165281.57943  24704591.2604   24704590.0534
       855.8594
   9494437.98748   7360949.52446  23087002.6584   23086999.3264
     -4326.0004
    -88816.19649    -67597.10248  21723706.5804   21723704.2014
      -327.9534
  -2321378.12047  -1805438.34244  23946404.4004   23946402.4124
       875.8914
 04  9  7 21 39 45.0020000  0  7G 3G 8G13G10G23G27G19
    988896.35447    772727.81144  23537232.3614   23537231.5804
     -1264.9224
  -3270018.59149  -2532970.03146  22720949.1584   22720947.8544
       935.7344
   3579396.84249   2779150.11748  20991152.7444   20991149.3774
     -2176.2504
   -229150.44746   -175234.30843  24702159.8144   24702158.7714
       847.5004
   9559371.97748   7411547.40746  23099359.7524   23099355.9754
     -4331.5474
    -83867.79249    -63741.20648  21724648.2364   21724645.6824
      -331.6094
  -2334467.25347  -1815637.63845  23943913.8304   23943911.6784
       869.5474
 04  9  7 21 40  0.0020000  0  7G 3G 8G13G10G23G27G19
   1007947.36048    787572.75144  23540857.7364   23540857.2364
     -1275.4064
  -3284027.03749  -2543885.66746  22718284.1504   22718282.1704
       931.7974
   3612105.29349   2804637.22448  20997376.8074   20997373.0024
     -2185.1254
   -241799.55346   -185090.74143  24699753.5644   24699751.8184
       838.8754
   9624385.49748   7462207.25446  23111730.7994   23111727.1114
     -4337.1564
    -78866.53149    -59844.10948  21725599.8144   21725597.7684
      -335.5004
  -2347464.52047  -1825765.32444  23941440.8464   23941438.1664
       863.0474
 04  9  7 21 40 15.0020000  0  7G 3G 8G13G10G23G27G19
   1027153.42947    802538.52744  23544512.3544   23544511.3614
     -1285.5004
  -3297978.30049  -2554756.75946  22715628.6354   22715627.4944
       928.1254
   3644945.41149   2830226.91648  21003626.1354   21003622.5214
     -2193.7504
   -254320.72147   -194847.46943  24697370.7214   24697369.7794
       830.4064
   9689482.61548   7512932.23346  23124118.7604   23124114.7794
     -4342.5624
    -73808.21949    -55902.56548  21726562.5334   21726560.1504
      -339.1564
  -2360365.33047  -1835817.85244  23938985.7134   23938983.1824
       856.8284
 04  9  7 21 40 30.0020000  0  7G 3G 8G13G10G23G27G19
   1046514.32747    817624.95144  23548196.0574   23548195.6074
     -1295.9844
  -3311872.56449  -2565583.43846  22712984.7914   22712983.2094
       924.2974
   3677916.80149   2855918.90048  21009900.1114   21009896.7404
     -2202.5624
   -266713.91146   -204504.50642  24695013.0884   24695011.1464
       821.9064
   9754662.61148   7563721.79546  23136522.1584   23136518.2754
     -4348.1564
    -68693.14449    -51916.78748  21727536.1354   21727533.8544
      -342.9374
  -2373169.66948  -1845795.23745  23936549.1274   23936546.0064
       850.2974
 04  9  7 21 40 45.0020000  0  7G 3G 8G13G10G23G27G19
   1066031.75547    832833.33644  23551910.8074   23551909.7524
     -1306.0624
  -3325708.10249  -2576364.34946  22710351.8544   22710350.6584
       920.6724
   3711021.10549   2881714.46348  21016199.6894   21016196.5214
     -2211.0784
   -278977.10446   -214060.20543  24692678.3224   24692677.4044
       813.4844
   9819927.09748   7614577.21845  23148941.5644   23148937.3144
     -4353.4694
    -63519.63549    -47885.47848  21728520.5884   21728518.2294
      -346.6094
  -2385875.59948  -1855695.92444  23934131.2214   23934128.1824
       843.9694
 04  9  7 21 41  0.0020000  0  7G 3G 8G13G10G23G27G19
   1085700.31847    848159.50344  23555653.2914   23555652.8034
     -1316.0164
  -3339490.42548  -2587103.78746  22707729.0414   22707727.7794
       917.2814
   3744252.94349   2907609.39048  21022523.6044   21022519.9244
     -2219.4844
   -291115.66346   -223518.81642  24690369.1044   24690367.8464
       805.2974
   9885270.52748   7665494.12246  23161375.8384   23161371.9124
     -4358.6414
    -58293.15149    -43812.88448  21729514.7524   21729512.4244
      -349.9844
  -2398488.27847  -1865523.94345  23931731.7994   23931727.9324
       837.9384
 04  9  7 21 41 15.0020000  0  7G 3G 8G13G10G23G27G19
   1105517.06247    863601.11844  23559423.8544   23559424.0804
     -1326.5004
  -3353222.53549  -2597804.11646  22705116.3774   22705114.2684
       913.3914
   3777609.24449   2933601.30448  21028871.1894   21028867.8544
     -2228.2814
   -303132.48446   -232882.55843  24688081.9004   24688080.4004
       796.7504
   9950689.61148   7716470.00345  23173824.9394   23173820.8144
     -4364.2664
    -53016.84749    -39701.48548  21730519.0184   21730516.7954
      -353.8444
  -2411010.37847  -1875281.36645  23929348.4244   23929345.6234
       831.4224
 04  9  7 21 41 30.0020000  0  7G 3G 8G13G10G23G27G19
   1125484.54547    879160.20944  23563224.0334   23563223.2364
     -1335.8124
  -3366901.82449  -2608463.26446  22702513.1354   22702511.6974
       910.6724
   3811092.56249   2959692.20548  21035242.7834   21035239.1044
     -2236.0474
   -315024.63446   -242149.17243  24685819.1824   24685817.3464
       789.0944
  10016186.62348   7767506.59745  23186288.2364   23186284.5184
     -4368.6414
    -47688.18049    -35549.26448  21731533.0804   21731530.7134
      -356.5944
  -2423439.04648  -1884965.99445  23926983.2754   23926979.5884
       825.8914
 04  9  7 21 41 45.0020000  0  7G 3G 8G13G10G23G27G19
   1145606.01547    894839.29344  23567053.1274   23567051.8144
     -1346.4224
  -3380525.06049  -2619078.75846  22699920.5414   22699919.0614
       906.5944
   3844706.09149   2985884.54848  21041639.2524   21041635.7174
     -2245.0784
   -326788.83646   -251316.04842  24683580.6664   24683579.0104
       780.2504
  10081764.55348   7818606.22845  23198767.4084   23198763.5844
     -4374.3754
    -42303.85749    -31353.68548  21732557.8694   21732555.0724
      -360.5944
  -2435770.75948  -1894575.09645  23924636.2994   23924633.1354
       819.1254
 04  9  7 21 42  0.0020000  0  7G 3G 8G13G10G23G27G19
   1165875.10447    910633.39044  23570909.8544   23570909.1434
     -1356.4374
  -3394098.68449  -2629655.58546  22697336.8774   22697335.2404
       902.9694
   3878443.44749   3012173.39748  21048059.3464   21048056.0764
     -2253.5944
   -338431.17746   -260387.96442  24681364.0884   24681363.7794
       771.7664
  10147416.81248   7869763.80846  23211260.7524   23211256.6824
     -4379.5314
    -36870.36349    -27119.78048  21733591.5254   21733589.1354
      -364.1094
  -2448011.52848  -1904113.31645  23922306.7214   23922304.0724
       812.7194
 04  9  7 21 42 15.0020000  0  7G 3G 8G13G10G23G27G19
   1186299.01548    926548.13744  23574797.1824   23574795.0334
     -1366.6564
  -3407615.54049  -2640188.16446  22694765.2444   22694763.4634
       899.2504
   3912311.76149   3038564.27948  21054504.3774   21054500.8894
     -2262.2344
   -349944.21546   -269359.14842  24679174.1664   24679172.6274
       763.2664
  10213150.43648   7920984.77045  23223769.5334   23223765.3654
     -4384.9694
    -31380.50049    -22841.97148  21734636.1744   21734633.4004
      -367.8754
  -2460153.99148  -1913574.92345  23919996.5964   23919993.6974
       806.1884
 04  9  7 21 42 30.0020000  0  7G 3G 8G13G10G23G27G19
   1206873.51948    942580.21944  23578711.4634   23578710.5294
     -1376.4694
  -3421079.76949  -2650679.74746  22692203.0494   22692201.6664
       895.9844
   3946306.83449   3065053.93748  21060973.3074   21060969.8574
     -2270.4844
   -361331.93146   -278232.68642  24677006.2524   24677005.7404
       755.1094
  10278960.95648   7972265.66145  23236293.2524   23236288.8544
     -4389.8594
    -25838.42549    -18523.45448  21735690.8614   21735688.4554
      -371.1254
  -2472201.93448  -1922962.87445  23917703.2834   23917701.0144
       800.1564
 04  9  7 21 42 45.0020000  0  7G 3G 8G13G10G23G27G19
   1227603.08648    958733.13544  23582656.7134   23582655.2994
     -1387.0624
  -3434487.17549  -2661127.06146  22689652.0184   22689649.8854
       892.0314
   3980433.03749   3091645.75748  21067467.1044   21067463.8964
     -2279.3914
   -372589.89946   -287005.12242  24674864.8544   24674863.4124
       746.3594
  10344852.50548   8023609.67746  23248831.5024   23248828.2834
     -4395.3594
    -20239.94249    -14161.00048  21736756.3224   21736753.8114
      -375.0004
  -2484150.63648  -1932273.52345  23915429.7524   23915427.1114
       793.3134
 04  9  7 21 43  0.0020000  0  7G 3G 8G13G10G23G27G19
   1248484.61248    975004.46844  23586630.4474   23586628.8264
     -1397.1874
  -3447840.41549  -2671532.16246  22687110.6434   22687109.0414
       888.3914
   4014687.34549   3118337.42748  21073985.4474   21073982.2524
     -2287.8754
   -383720.84346   -295678.54642  24672745.7294   24672745.1234
       737.7504
  10410821.87448   8075014.35945  23261385.0184   23261381.6784
     -4400.6254
    -14588.02749     -9756.90248  21737831.7364   21737829.4044
      -378.6094
  -2496003.06348  -1941509.13945  23913174.2834   23913171.5494
       786.9064
 04  9  7 21 43 15.0020000  0  7G 3G 8G13G10G23G27G19
   1269522.84248    991397.89644  23590633.1044   23590632.6824
     -1407.7344
  -3461135.24949  -2681891.74846  22684580.9324   22684578.6464
       884.4064
   4049074.21849   3145132.37948  21080529.2754   21080525.9634
     -2296.8444
   -394719.88846   -304249.23142  24670653.2364   24670652.0764
       728.9694
  10476873.54348   8126483.14845  23273954.3224   23273950.7684
     -4406.0784
     -8878.14149     -5307.63248  21738918.1044   21738915.6744
      -382.5474
  -2507754.16148  -1950665.79545  23910937.5184   23910935.6784
       780.0944
 04  9  7 21 43 30.0020000  0  7G 3G 8G13G10G23G27G19
   1290716.38248   1007912.33644  23594667.1044   23594665.7794
     -1417.7664
  -3474372.79749  -2692206.70946  22682061.9474   22682060.1194
       880.8914
   4083592.24649   3172029.54148  21087097.7444   21087094.2834
     -2305.2814
   -405588.21446   -312718.06742  24668585.0024   24668583.3544
       720.5164
  10543005.95647   8178014.85245  23286538.4864   23286534.9044
     -4411.1564
     -3111.56449      -814.19148  21740015.8544   21740013.2214
      -386.0624
  -2519404.92848  -1959744.27545  23908721.5024   23908717.4164
       773.6254
 04  9  7 21 43 45.0020000  0  7G 3G 8G13G10G23G27G19
   1312066.70947   1024548.97144  23598729.5184   23598728.2604
     -1427.7344
  -3487551.52349  -2702475.81346  22679553.6194   22679552.0924
       877.4694
   4118243.05349   3199030.16348  21093691.8144   21093688.1044
     -2313.6414
   -416324.11446   -321083.65543  24666542.3694   24666541.0104
       712.1414
  10609220.29048   8229610.41345  23299139.2754   23299135.5574
     -4416.1874
      2713.05549      3724.48048  21741124.0024   21741121.5804
      -389.4844
  -2530953.55348  -1968743.16745  23906523.8074   23906520.4394
       767.2974
 04  9  7 21 44  0.0020000  0  7G 3G 8G13G10G23G27G19
   1333563.73848   1041299.88944  23602820.2834   23602819.0804
     -1438.2034
  -3500681.70349  -2712707.10846  22677055.8854   22677053.7404
       873.5474
   4153016.40549   3226126.25648  21100308.7914   21100304.9514
     -2322.4694
   -426937.49546   -329353.80743  24664522.2914   24664521.0184
       703.3134
  10675506.15748   8281261.68445  23311753.2294   23311749.0534
     -4421.6094
      8585.59349      8300.48448  21742241.5104   21742238.8384
      -393.3284
  -2542410.02748  -1977670.25845  23904343.4084   23904339.8034
       760.5164
 04  9  7 21 44 15.0020000  0  7G 3G 8G13G10G23G27G19
   1355212.90547   1058169.39944  23606939.8304   23606939.0614
     -1448.2504
  -3513757.65949  -2722896.13346  22674566.8544   22674565.2834
       870.1254
   4187917.82249   3253322.17148  21106950.0964   21106946.9084
     -2330.7974
   -437422.61446   -337524.02743  24662526.4714   24662525.9204
       694.9064
  10741868.95048   8332972.92645  23324381.5494   23324377.2134
     -4426.5784
     14511.56749     12918.14548  21743369.2754   21743366.9754
      -396.6564
  -2553768.40048  -1986520.88545  23902182.1434   23902179.1074
       754.0784
 04  9  7 21 44 30.0020000  0  7G 3G 8G13G10G23G27G19
   1377014.35847   1075157.52744  23611088.7834   23611087.2444
     -1458.9374
  -3526779.31849  -2733042.87146  22672089.2364   22672087.4204
       865.9064
   4222947.27249   3280617.82948  21113616.0494   21113612.8694
     -2339.9374
   -447779.15546   -345594.01143  24660556.1664   24660555.3114
       685.8134
  10808308.55048   8384743.99945  23337024.5804   23337020.4594
     -4432.1874
     20491.08049     17577.50648  21744506.9394   21744504.4084
      -400.7504
  -2565028.31548  -1995294.81745  23900039.4164   23900036.2484
       747.0634
 04  9  7 21 44 45.0020000  0  7G 3G 8G13G10G23G27G19
   1398967.87348   1092264.16244  23615266.0884   23615264.7644
     -1468.7974
  -3539746.86149  -2743147.44146  22669621.5964   22669619.4554
       862.5634
   4258104.56349   3308013.11348  21120306.6354   21120303.2484
     -2348.2814
   -458007.04546   -353563.77943  24658610.1434   24658608.6544
       677.4384
  10874824.54748   8436574.60045  23349682.8384   23349678.7954
     -4437.1254
     26523.81449     22278.33748  21745654.7914   21745652.5534
      -404.1094
  -2576189.65048  -2003991.93145  23897914.4864   23897911.8734
       740.5634
 04  9  7 21 45  0.0020000  0  7G 3G 8G13G10G23G27G19
   1421078.07847   1109492.90544  23619473.8074   23619471.8114
     -1479.0944
  -3552655.75049  -2753206.28946  22667165.1894   22667163.3854
       858.6884
   4293394.35549   3335511.63948  21127021.6974   21127018.2994
     -2356.9844
   -468101.68946   -361429.72843  24656689.3854   24656688.2214
       668.6564
  10941421.22948   8488468.07945  23362355.5574   23362351.1274
     -4442.4064
     32614.40149     27024.26248  21746813.8774   21746811.3614
      -407.8754
  -2587247.57748  -2012608.45745  23895810.5024   23895808.1234
       733.8754
 04  9  7 21 45 15.0020000  0  7G 3G 8G13G10G23G27G19
   1443338.51747   1126838.70544  23623709.6894   23623708.1004
     -1488.9534
  -3565512.47749  -2763224.50346  22664718.2364   22664716.4124
       855.5314
   4328809.98849   3363108.23248  21133760.9864   21133757.6664
     -2365.1094
   -478069.32746   -369196.68442  24654791.5184   24654791.0144
       660.4694
  11008091.92948   8540419.23245  23375042.0644   23375038.6664
     -4447.0164
     38756.34749     31810.19648  21747982.6044   21747979.9474
      -411.0314
  -2598208.27248  -2021149.21445  23893724.6274   23893722.4984
       727.6414
 04  9  7 21 45 30.0020000  0  7G 3G 8G13G10G23G27G19
   1465747.73748   1144300.45344  23627973.8074   23627973.0254
     -1498.6724
  -3578318.50449  -2773203.19646  22662281.3934   22662279.3774
       852.3444
   4364350.21149   3390801.90448  21140524.2834   21140520.9204
     -2373.3124
   -487911.02646   -376865.54343  24652919.8074   24652918.0334
       652.1564
  11074835.12148   8592426.88345  23387743.2754   23387739.4904
     -4451.6564
     44948.16049     36634.99748  21749161.0104   21749158.6394
      -414.2194
  -2609072.73448  -2029615.00045  23891657.6044   23891654.7754
       721.2194
 04  9  7 21 45 45.0020000  0  7G 3G 8G13G10G23G27G19
   1488308.47848   1161880.24144  23632267.1664   23632265.9324
     -1509.1254
  -3591070.97849  -2783140.17347  22659854.7524   22659853.0804
       848.3914
   4400017.54949   3418594.62948  21147311.5024   21147308.2874
     -2382.1094
   -497624.03245   -384434.10942  24651070.6194   24651069.7524
       643.2974
  11141653.16948   8644492.85545  23400458.7914   23400454.6154
     -4457.0314
     51192.57149     41500.77748  21750349.0104   21750346.6004
      -418.0314
  -2619838.01648  -2038003.49044  23889608.7294   23889605.6934
       714.4064
 04  9  7 21 46  0.0030000  0  7G 3G 8G13G10G23G27G19
   1511021.54848   1179578.76344  23636589.6714   23636587.9294
     -1519.2814
  -3603771.32849  -2793036.51747  22657438.1874   22657436.4724
       844.7034
   4435813.79949   3446487.81548  21154123.2804   21154119.9684
     -2390.5474
   -507209.36147   -391903.15842  24649247.6014   24649245.7844
       634.5314
  11208549.68948   8696619.98845  23413187.8044   23413184.5974
     -4462.0314
     57489.42949     46407.43148  21751547.7574   21751544.9014
      -421.6254
  -2630505.18248  -2046315.54845  23887578.3664   23887576.0974
       707.6724
 04  9  7 21 46 15.0030000  0  7G 3G 8G13G10G23G27G19
   1533888.51348   1197397.15744  23640940.2184   23640939.5694
     -1529.3754
  -3616413.33749  -2802887.43447  22655032.1324   22655030.4994
       841.1884
   4471738.64349   3474481.19248  21160959.4994   21160956.1874
     -2399.0314
   -516660.90346   -399267.99043  24647448.6714   24647447.4644
       625.9064
  11275520.21748   8748804.75745  23425932.1714   23425928.6944
     -4467.0314
     63842.28249     51357.69848  21752756.0854   21752754.1794
      -425.1254
  -2641068.01548  -2054546.27745  23885568.8124   23885566.2924
       700.9694
 04  9  7 21 46 30.0030000  0  7G 3G 8G13G10G23G27G19
   1556905.46148   1215332.46244  23645321.5694   23645319.6124
     -1539.8124
  -3629003.28349  -2812697.76046  22652636.5544   22652634.1164
       837.2194
   4507789.06848   3502572.44048  21167819.8274   21167816.6754
     -2407.9064
   -525984.65046   -406533.21842  24645674.7334   24645673.0074
       616.8754
  11342563.46748   8801046.21745  23438690.5154   23438686.1674
     -4472.3594
     70246.14249     56347.73748  21753975.0154   21753972.7264
      -428.9224
  -2651532.34148  -2062700.26245  23883577.4604   23883575.0074
       693.9384
 04  9  7 21 46 45.0030000  0  7G 3G 8G13G10G23G27G19
   1580077.96748   1233388.95844  23649730.0934   23649729.3234
     -1549.8284
  -3641535.69449  -2822463.25147  22650251.8194   22650250.0894
       833.7664
   4543970.55449   3530765.79548  21174704.8194   21174701.4954
     -2416.2664
   -535174.78046   -413694.33242  24643924.7724   24643923.5384
       608.4224
  11409684.83348   8853348.53745  23451463.5624   23451459.5544
     -4477.1564
     76706.71949     61381.96248  21755204.2494   21755202.0734
      -432.4374
  -2661892.13648  -2070772.80144  23881606.4134   23881603.0974
       687.2814
 04  9  7 21 47  0.0030000  0  7G 3G 8G13G10G23G27G19
   1603395.05848   1251558.12444  23654167.0694   23654166.0034
     -1560.0164
  -3654021.37049  -2832192.33047  22647875.8584   22647874.3624
       830.0634
   4580272.09549   3559052.68848  21181612.8584   21181609.3544
     -2424.8124
   -544241.91746   -420759.62743  24642199.9294   24642198.5304
       599.7034
  11476873.24648   8905703.10245  23464248.8584   23464245.1674
     -4482.2344
     83212.89149     66451.69948  21756442.6874   21756440.1124
      -435.8914
  -2672158.08648  -2078772.22344  23879652.3354   23879649.3434
       680.5474
 04  9  7 21 47 15.0030000  0  7G 3G 8G13G10G23G27G19
   1626866.36148   1269847.44144  23658634.6474   23658632.0974
     -1570.0004
  -3666450.55649  -2841877.38446  22645510.7494   22645508.8584
       826.6884
   4616703.36549   3587440.67248  21188545.4914   21188542.0694
     -2433.1564
   -553176.31546   -427721.46943  24640500.5854   24640498.6204
       591.1254
  11544138.07548   8958117.21245  23477048.8354   23477045.8274
     -4486.9374
     89774.41849     71564.58948  21757691.2574   21757689.0544
      -439.4064
  -2682320.32648  -2086690.80545  23877718.4134   23877715.9294
       673.9844
 04  9  7 21 47 30.0030000  0  7G 3G 8G13G10G23G27G19
   1650492.01648   1288257.05544  23663129.8584   23663128.0264
     -1580.9224
  -3678823.06449  -2851518.28646  22643156.1474   22643154.0854
       822.2034
   4653264.44149   3615929.81548  21195502.5544   21195499.2104
     -2442.4844
   -561977.53046   -434579.54643  24638825.7964   24638823.8744
       581.5314
  11611479.24948   9010590.79945  23489863.9834   23489859.8864
     -4492.7344
     96391.25949     76720.57648  21758950.5074   21758947.8664
      -443.6874
  -2692378.49448  -2094528.29745  23875804.2494   23875801.5894
       666.3594
 04  9  7 21 47 45.0030000  0  7G 3G 8G13G10G23G27G19
   1674271.28448   1306786.35844  23667654.7184   23667653.8274
     -1590.5474
  -3691139.74149  -2861115.67346  22640812.1084   22640810.3234
       819.0944
   4689954.55149   3644519.50448  21202484.8584   21202481.2884
     -2450.4534
   -570646.13346   -441334.32843  24637175.3744   24637174.1944
       573.3754
  11678895.78548   9063123.11745  23502692.7574   23502688.4294
     -4497.1094
    103062.78749     81919.17348  21760219.8664   21760217.2614
      -446.7504
  -2702332.87648  -2102284.94044  23873910.5464   23873907.0074
       659.9844
 04  9  7 21 48  0.0030000  0  7G 3G 8G13G10G23G27G19
   1698204.62248   1325435.71544  23672208.8434   23672207.7064
     -1600.4534
  -3703400.18949  -2870669.25747  22638479.0384   22638477.3864
       815.7194
   4726774.23249   3673210.15848  21209491.1874   21209488.1714
     -2458.7194
   -579181.47346   -447985.23343  24635552.1244   24635549.6984
       564.8444
  11746387.90748   9115714.35145  23515536.0224   23515532.2494
     -4501.7344
    109789.44949     87160.73248  21761499.8904   21761497.6554
      -450.0474
  -2712182.76248  -2109960.14545  23872036.0304   23872032.7724
       653.4534
 04  9  7 21 48 15.0030000  0  7G 3G 8G13G10G23G27G19
   1722290.69848   1344204.08244  23676792.3354   23676791.3274
     -1611.3444
  -3715605.81249  -2880180.11346  22636156.6714   22636154.0774
       811.3914
   4763722.00449   3702000.62848  21216522.5224   21216519.1554
     -2468.0314
   -587584.75846   -454533.25343  24633951.1634   24633950.7884
       555.3134
  11813954.07347   9168363.26045  23528392.9684   23528389.7884
     -4507.4694
    116569.86049     92444.16848  21762789.9374   21762787.2764
      -454.3124
  -2721929.21948  -2117554.76645  23870181.1404   23870178.6794
       645.7974
 04  9  7 21 48 30.0030000  0  7G 3G 8G13G10G23G27G19
   1746530.44548   1363092.19944  23681404.4914   23681404.1554
     -1620.8754
  -3727755.34449  -2889647.25347  22633844.4134   22633842.7064
       808.3594
   4800798.79349   3730891.61548  21223577.4834   21223574.3864
     -2475.8914
   -595854.83246   -460977.43542  24632378.2964   24632376.6014
       547.0314
  11881595.01448   9221070.43545  23541264.7884   23541261.8354
     -4511.5784
    123404.91349     97770.19748  21764090.7724   21764088.0974
      -457.3284
  -2731571.00448  -2125067.81045  23868346.6944   23868343.6204
       639.5314
 04  9  7 21 48 45.0030000  0  7G 3G 8G13G10G23G27G19
   1770920.67448   1382097.58344  23686047.1244   23686045.5694
     -1630.1874
  -3739852.06949  -2899073.24146  22631542.4374   22631540.8434
       805.5784
   4838001.30049   3759880.58048  21230657.2264   21230653.7884
     -2483.4844
   -603994.68546   -467320.15542  24630828.9134   24630828.2264
       539.0314
  11949307.28247   9273833.20645  23554150.0694   23554146.8124
     -4515.6874
    130291.43349    103136.32648  21765401.4294   21765398.9914
      -459.9064
  -2741111.03848  -2132501.57545  23866531.2654   23866528.5344
       633.4534
 04  9  7 21 49  0.0030000  0  7G 3G 8G13G10G23G27G19
   1795455.73248   1401215.81544  23690714.8354   23690714.9794
     -1641.2344
  -3751901.60649  -2908462.48947  22629249.3824   22629248.1364
       800.9844
   4875323.91149   3788963.11148  21237759.7724   21237756.0584
     -2492.9224
   -612009.95946   -473565.81843  24629303.7804   24629302.4094
       529.5944
  12017085.05147   9326647.00645  23567047.1794   23567044.0624
     -4521.4064
    137223.81349    108538.17048  21766720.3974   21766717.8154
      -464.4064
  -2750554.64948  -2139860.21445  23864734.1714   23864730.9794
       625.6724
 04  9  7 21 49 15.0030000  0  7G 3G 8G13G10G23G27G19
   1820145.33648   1420454.46544  23695413.1474   23695412.8664
     -1650.8754
  -3763894.36049  -2917807.46647  22626967.4444   22626965.1514
       797.8134
   4912776.31849   3818146.80348  21244886.3664   21244883.1164
     -2500.9374
   -619890.45946   -479706.45843  24627804.5384   24627802.5424
       521.2034
  12084937.95947   9379519.35145  23579960.1244   23579956.1554
     -4525.7814
    144211.72149    113983.30648  21768050.2804   21768047.4684
      -467.4064
  -2759891.79848  -2147135.87745  23862957.8584   23862954.0854
       619.1254
 04  9  7 21 49 30.0030000  0  7G 3G 8G13G10G23G27G19
   1844991.44948   1439815.07345  23700141.6944   23700140.7614
     -1661.4224
  -3775828.31949  -2927106.63046  22624696.0694   22624694.3194
       793.7974
   4950360.47449   3847433.14548  21252038.5464   21252034.7924
     -2509.8594
   -627634.02346   -485740.38343  24626330.8434   24626329.3944
       511.7974
  12152867.67448   9432451.55445  23592886.6794   23592883.2414
     -4531.0474
    151257.21649    119473.30048  21769391.0694   21769388.8704
      -471.4374
  -2769120.11148  -2154326.74545  23861200.8274   23861197.9564
       611.7664
 04  9  7 21 49 45.0030000  0  7G 3G 8G13G10G23G27G19
   1869986.84448   1459292.00944  23704898.2804   23704897.4684
     -1671.3594
  -3787710.55249  -2936365.49447  22622435.3974   22622433.1324
       790.3594
   4988069.17849   3876816.53948  21259214.0074   21259210.8974
     -2518.1564
   -635247.71646   -491673.11443  24624881.3514   24624881.3544
       503.1724
  12220866.75548   9485437.81945  23605826.8044   23605822.9054
     -4535.7504
    158352.92349    125002.42448  21770741.2414   21770738.7144
      -474.7974
  -2778246.68048  -2161438.33645  23859464.3744   23859461.4254
       604.9224
 04  9  7 21 50  0.0030000  0  7G 3G 8G13G10G23G27G19
   1895137.55948   1478889.97344  23709684.1404   23709683.2334
     -1682.3444
  -3799534.97149  -2945579.31346  22620184.9764   22620183.0654
       785.9064
   5025908.36349   3906301.62148  21266414.8044   21266411.2844
     -2527.3124
   -642725.19346   -497499.70643  24623459.9914   24623458.4724
       493.4384
  12288941.02048   9538482.67045  23618780.3354   23618777.3004
     -4541.2194
    165505.03048    130575.50048  21772102.0074   21772099.5694
      -479.1564
  -2787264.98648  -2168465.55645  23857747.7184   23857745.0544
       597.0944
 04  9  7 21 50 15.0030000  0  8G 3G 8G13G10G23G27G19G28
   1920444.59848   1498609.75744  23714500.2264   23714498.6834
     -1692.1874
  -3811300.38449  -2954747.13247  22617946.1014   22617944.1754
       782.5634
   5063879.16249   3935889.25748  21273640.3124   21273637.1284
     -2535.6724
   -650065.28846   -503219.24443  24622061.6474   24622061.8584
       484.9844
  12357091.52148   9591586.90345  23631748.9214   23631745.9764
     -4545.7194
    172714.60649    136193.35948  21773473.8824   21773471.1674
      -482.4224
  -2796173.62248  -2175407.32045  23856053.3584   23856049.8904
       590.4224
    -74787.87457    -53998.07452  25073468.1794   25073468.9134
      2028.7034
 04  9  7 21 50 30.0030000  0  8G 3G 8G13G10G23G27G19G28
   1945904.15748   1518448.37144  23719344.8194   23719343.6124
     -1702.1414
  -3823010.91249  -2963872.21446  22615717.4914   22615715.7184
       779.1414
   5101977.59349   3965576.33148  21280890.3044   21280887.3704
     -2543.8754
   -657271.73946   -508834.64343  24620690.6474   24620690.2574
       476.2974
  12425313.99348   9644747.21445  23644732.3514   23644727.9564
     -4550.2664
    179977.69049    141852.90748  21774856.0694   21774853.6944
      -485.6874
  -2804976.37548  -2182266.57445  23854377.9604   23854374.6444
       583.6254
   -105195.86747    -77692.49942  25067681.7104   25067681.5974
      2026.0474
 04  9  7 21 50 45.0030000  0  8G 3G 8G13G10G23G27G19G28
   1971514.09848   1538404.16844  23724217.6324   23724217.0934
     -1712.3284
  -3834668.33649  -2972955.89647  22613499.6244   22613497.3004
       775.4694
   5140201.49749   3995361.19348  21288164.1164   21288160.5304
     -2552.3594
   -664346.24746   -514347.26343  24619344.6014   24619343.6084
       467.2814
  12493606.24048   9697961.91045  23657727.4294   23657724.4094
     -4554.9844
    187292.30849    147552.61148  21776247.9764   21776245.5774
      -489.3284
  -2813674.84748  -2189044.58045  23852722.1634   23852719.5974
       576.4844
   -135562.60047   -101354.81642  25061903.1164   25061903.4294
      2023.1414
 04  9  7 21 51  0.0030000  0  8G 3G 8G13G10G23G27G19G28
   1997280.07948   1558481.55644  23729120.5854   23729119.6754
     -1722.5944
  -3846267.10849  -2981993.88947  22611292.3744   22611290.6904
       771.6414
   5178556.51549   4025248.21748  21295462.4604   21295459.5584
     -2561.0624
   -671282.95346   -519752.43143  24618024.5774   24618023.5934
       458.1724
  12561973.78847   9751235.28745  23670736.4834   23670733.2614
     -4559.9694
    194664.08249    153296.85648  21777650.9684   21777648.2104
      -493.0004
  -2822262.99748  -2195736.60945  23851087.6794   23851084.8004
       569.1884
   -165882.14647   -124980.37842  25056133.6794   25056133.2804
      2020.0314
 04  9  7 21 51 15.0030000  0  8G 3G 8G13G10G23G27G19G28
   2023194.70048   1578674.75644  23734051.6244   23734050.6404
     -1732.3594
  -3857814.42549  -2990991.78547  22609094.8044   22609093.2024
       768.3754
   5217035.28849   4055231.65148  21302784.7654   21302781.8394
     -2569.0944
   -678089.01546   -525055.85143  24616728.6164   24616728.0264
       449.5944
  12630408.92048   9804561.30545  23683759.8354   23683756.5464
     -4564.3914
    202085.76549    159079.98848  21779063.6324   21779060.3514
      -496.1724
  -2830747.93748  -2202348.21945  23849474.3354   23849470.2534
       562.4534
   -196161.89347   -148574.85242  25050371.0854   25050371.0074
      2017.4844
 04  9  7 21 51 30.0030000  0  8G 3G 8G13G10G23G27G19G28
   2049257.83948   1598983.69144  23739012.2334   23739011.0304
     -1742.5314
  -3869310.54349  -2999949.77547  22606907.1554   22606905.6634
       764.6564
   5255637.70349   4085311.43348  21310130.7804   21310127.7804
     -2577.6564
   -684764.41646   -530257.47243  24615459.3664   24615458.0034
       440.6724
  12698911.31148   9857939.75045  23696795.5154   23696792.0774
     -4569.2034
    209557.13949    164901.83048  21780485.2414   21780482.2454
      -499.7974
  -2839129.72548  -2208879.47445  23847878.7964   23847874.9564
       555.3134
   -226401.75447   -172138.37342  25044617.2104   25044616.2104
      2014.5944
 04  9  7 21 51 45.0030000  0  8G 3G 8G13G10G23G27G19G28
   2075480.10148   1619416.61444  23744002.0694   23744001.0464
     -1753.6724
  -3880744.47149  -3008859.31247  22604731.5544   22604729.4214
       759.9694
   5294374.43249   4115495.87948  21317502.2964   21317499.4014
     -2587.1414
   -691298.18246   -535348.73243  24614215.5544   24614214.0384
       430.7814
  12767491.58148   9911378.87545  23709846.3824   23709842.0194
     -4574.8284
    217088.92949    170770.76148  21781918.1164   21781915.6444
      -504.3594
  -2847397.19047  -2215321.62345  23846304.8274   23846302.0344
       547.1564
   -256590.72547   -195662.13942  25038872.4914   25038872.7804
      2010.7034
 04  9  7 21 52  0.0030000  0  8G 3G 8G13G10G23G27G19G28
   2101854.52748   1639968.13244  23749020.9604   23749019.8044
     -1763.6254
  -3892123.28049  -3017725.89947  22602565.8514   22602563.8824
       756.5004
   5333238.35049   4145779.45248  21324897.7724   21324894.7374
     -2595.4844
   -697697.24347   -540334.97943  24612999.1794   24612996.6044
       421.8284
  12836142.43148   9964872.99445  23722909.2574   23722906.1594
     -4579.3914
    224674.01649    176681.23448  21783361.8044   21783359.2924
      -507.7504
  -2855557.01548  -2221679.88845  23844752.4214   23844748.8544
       540.0634
   -286735.70747   -219151.64242  25033135.2804   25033135.7724
      2007.8444
 04  9  7 21 52 15.0030000  0  8G 3G 8G13G10G23G27G19G28
   2128378.00448   1660635.77244  23754068.7334   23754067.5624
     -1773.1874
  -3903450.10449  -3026551.97447  22600410.7964   22600408.5624
       753.3444
   5372226.35249   4176159.71348  21332316.8904   21332313.9684
     -2603.3444
   -703964.51547   -545218.55443  24611805.6324   24611803.9684
       413.3914
  12904860.48747  10018419.49845  23735986.2724   23735982.6714
     -4583.4534
    232309.44049    182630.91448  21784814.6164   21784811.9684
      -510.7344
  -2863612.05248  -2227956.51845  23843219.8824   23843216.7104
       533.4694
   -316839.71346   -242609.26442  25027405.7494   25027407.2064
      2005.5474
 04  9  7 21 52 30.0030000  0  8G 3G 8G13G10G23G27G19G28
   2155048.61448   1681418.05244  23759143.5694   23759143.0384
     -1783.3594
  -3914726.88749  -3035339.07147  22598264.8514   22598262.9484
       749.7194
   5411336.50349   4206635.15948  21339759.1874   21339756.1794
     -2611.7814
   -710101.74046   -550000.80643  24610637.4834   24610635.4484
       404.4694
  12973643.78448  10072016.82445  23749075.0624   23749072.5224
     -4588.1254
    239993.26749    188618.31548  21786276.9134   21786273.9254
      -514.2504
  -2871563.81147  -2234152.66845  23841706.7964   23841703.2224
       526.2194
   -346904.25847   -266036.11642  25021686.4214   25021685.9254
      2002.6564
 04  9  7 21 52 45.0030000  0  8G 3G 8G13G10G23G27G19G28
   2181873.15248   1702320.30544  23764247.8354   23764247.6164
     -1793.4064
  -3925946.65249  -3044081.72047  22596129.5224   22596127.4254
       746.1414
   5450575.70549   4237211.14348  21347226.2104   21347223.3274
     -2620.1414
   -716101.64346   -554676.02743  24609495.1324   24609494.8704
       395.5634
  13042499.01047  10125670.18745  23762178.0544   23762175.3234
     -4592.6254
    247732.44849    194648.84648  21787749.4684   21787746.8354
      -517.7034
  -2879405.12547  -2240262.74945  23840214.7724   23840211.3194
       519.0944
   -376922.34347   -289426.75342  25015974.0304   25015973.1404
      1999.7194
 04  9  7 21 53  0.0030000  0  8G 3G 8G13G10G23G27G19G28
   2208847.88148   1723339.58344  23769381.5464   23769380.9404
     -1803.1564
  -3937113.13549  -3052782.85847  22594004.7104   22594002.7334
       742.7814
   5489940.14449   4267884.72748  21354717.2414   21354714.3004
     -2628.3444
   -721967.84646   -559247.07342  24608378.8194   24608378.6404
       386.8594
  13111422.03247  10179376.39845  23775294.2494   23775290.8394
     -4597.0164
    255523.19449    200719.56148  21789232.2024   21789229.9254
      -520.9844
  -2887139.42348  -2246289.44145  23838743.0694   23838739.9054
       512.1564
   -406897.55446   -312783.97142  25010268.8434   25010268.6124
      1997.1254
 04  9  7 21 53 15.0030000  0  8G 3G 8G13G10G23G27G19G28
   2235968.77448   1744472.74344  23774542.2334   23774541.3514
     -1813.0624
  -3948230.12549  -3061445.42847  22591889.6244   22591887.1944
       739.3914
   5529425.78749   4298652.74248  21362231.0074   21362228.1474
     -2636.5314
   -727704.31346   -563717.05343  24607288.1404   24607287.0654
       378.0474
  13180408.64048  10233132.13845  23788421.8044   23788417.9874
     -4601.3284
    263361.48749    206827.32948  21790723.2964   21790720.5034
      -524.2034
  -2894770.56048  -2252235.74945  23837290.2184   23837287.1014
       505.2034
   -436833.75447   -336110.81441  25004573.6164   25004571.1164
      1994.3444
 04  9  7 21 53 30.0030000  0  8G 3G 8G13G10G23G27G19G28
   2263239.30548   1765722.50044  23779731.9914   23779731.0694
     -1823.3284
  -3959294.30949  -3070066.84947  22589783.8044   22589781.9954
       735.5944
   5569035.98949   4329517.81748  21369768.9684   21369765.8084
     -2645.1094
   -733307.17646   -568082.88943  24606221.5854   24606220.6044
       368.8754
  13249462.24548  10286940.09845  23801562.3354   23801558.3784
     -4606.0004
    271250.91949    212974.93448  21792224.5934   21792222.3004
      -527.9064
  -2902294.66048  -2258098.66745  23835858.9294   23835855.7264
       497.7814
   -466727.18446   -359404.27041  24998883.7024   24998883.3154
      1991.1884
 04  9  7 21 53 45.0030000  0  8G 3G 8G13G10G23G27G19G28
   2290664.11748   1787092.49944  23784950.9914   23784949.2614
     -1833.5164
  -3970300.87549  -3078643.36647  22587689.2884   22587687.4094
       731.7814
   5608775.32449   4360483.52148  21377330.6324   21377327.8394
     -2653.6254
   -738771.68946   -572340.92443  24605182.0694   24605181.2184
       359.6564
  13318587.32548  10340803.76145  23814716.3274   23814713.3044
     -4610.7814
    279196.02349    219165.93748  21793736.6554   21793734.1794
      -531.5784
  -2909706.70148  -2263874.23845  23834447.9834   23834445.1044
       490.3444
   -496572.95846   -382660.60541  24993203.4994   24993203.9094
      1987.9384
 04  9  7 21 54  0.0030000  0  8G 3G 8G13G10G23G27G19G28
   2318239.05548   1808579.46344  23790197.8044   23790196.5464
     -1843.7664
  -3981254.03749  -3087178.29247  22585605.2104   22585602.7574
       728.0164
   5648639.62249   4391546.58448  21384916.5154   21384913.7294
     -2662.1564
   -744101.79346   -576494.26543  24604167.6474   24604166.7694
       350.3754
  13387779.36448  10394719.58045  23827883.1794   23827879.9724
     -4615.3594
    287192.73949    225397.14348  21795258.5074   21795255.8514
      -535.3124
  -2917010.57248  -2269565.54645  23833058.1404   23833054.8154
       482.8754
   -526375.14846   -405883.02441  24987532.8274   24987532.7694
      1985.0314
 04  9  7 21 54 15.0030000  0  8G 3G 8G13G10G23G27G19G28
   2345968.24448   1830186.64044  23795474.0544   23795473.6944
     -1853.8124
  -3992149.38649  -3095668.15247  22583532.0154   22583530.0154
       724.3754
   5688633.13849   4422710.35348  21392527.1554   21392524.1634
     -2670.6094
   -749293.02746   -580539.36943  24603179.3434   24603178.9214
       341.4384
  13457042.58148  10448690.87045  23841063.9834   23841060.3864
     -4619.9844
    295245.30049    231671.87248  21796790.5624   21796788.0734
      -538.7034
  -2924201.80948  -2275169.07945  23831690.2574   23831686.1444
       475.6724
   -556129.26944   -429068.01641  24981869.7494   24981870.0264
      1982.0314
 04  9  7 21 54 30.0030000  0  8G 3G 8G13G10G23G27G19G28
   2373847.16348   1851910.46144  23800779.7334   23800778.6754
     -1864.4844
  -4002991.57949  -3104116.59647  22581468.7414   22581466.7924
       720.2194
   5728751.30049   4453971.25848  21400161.4054   21400158.2924
     -2679.5624
   -754349.65646   -584479.61943  24602217.8904   24602216.2064
       331.7504
  13526372.08247  10502713.81745  23854256.8974   23854253.3354
     -4624.9534
    303349.18049    237986.58548  21798332.9684   21798330.1444
      -542.7974
  -2931284.54847  -2280688.05745  23830341.4054   23830338.4404
       467.8284
   -585839.62744   -452218.87941  24976216.4834   24976216.6204
      1978.4064
 04  9  7 21 54 45.0030000  0  8G 3G 8G13G10G23G27G19G28
   2401877.88848   1873752.58344  23806112.6634   23806112.2964
     -1874.0784
  -4013778.23949  -3112521.77547  22579415.8824   22579413.7964
       716.9384
   5768996.33649   4485331.02048  21407819.8434   21407816.5114
     -2687.5474
   -759269.46046   -588313.22043  24601281.2334   24601279.7804
       323.1414
  13595769.90347  10556789.99845  23867462.2104   23867458.6904
     -4629.0944
    311506.60749    244343.03048  21799885.0854   21799882.4174
      -545.9064
  -2938256.38948  -2286120.63645  23829015.0464   23829011.8124
       460.8134
   -615504.03044   -475333.93441  24970572.3744   24970572.2414
      1976.0474
 04  9  7 21 55  0.0030000  0  8G 3G 8G13G10G23G27G19G28
   2430057.58348   1895710.79244  23811475.5304   23811475.2884
     -1883.5784
  -4024512.26449  -3120885.93347  22577373.0154   22577371.1204
       713.8594
   5809365.28649   4516787.33348  21415501.6554   21415498.3704
     -2695.3914
   -764055.04446   -592042.20843  24600370.2804   24600369.5464
       314.6094
  13665232.95548  10610917.00545  23880680.4054   23880677.9994
     -4632.9694
    319714.77349    250739.00748  21801447.2264   21801444.7494
      -548.8124
  -2945119.93248  -2291468.81845  23827709.0074   23827705.8084
       453.9694
   -645124.97443   -498415.06241  24964934.0694   24964935.4334
      1973.3754
 04  9  7 21 55 15.0030000  0  8G 3G 8G13G10G23G27G19G28
   2458386.71048   1917785.44244  23816866.8044   23816865.8194
     -1893.0624
  -4035193.02849  -3129208.58547  22575340.5544   22575338.2104
       710.7974
   5849858.58349   4548340.54348  21423207.4524   21423204.2574
     -2703.1874
   -768705.71246   -595666.09243  24599485.4294   24599484.5114
       306.1094
  13734761.68548  10665095.18945  23893911.3434   23893908.4214
     -4636.8754
    327974.11449    257174.87248  21803018.5854   21803015.9254
      -551.8284
  -2951874.28948  -2296731.91345  23826423.2724   23826420.2804
       447.0944
   -674701.76244   -521461.88341  24959308.3124   24959306.8044
      1970.8444
 04  9  7 21 55 30.0030000  0  8G 3G 8G13G10G23G27G19G28
   2486866.42148   1939977.43544  23822286.4684   23822285.4054
     -1904.1414
  -4045819.43449  -3137488.87747  22573318.3584   22573316.3904
       706.1884
   5890477.24049   4579991.42848  21430937.0224   21430934.0384
     -2712.5314
   -773220.05546   -599183.74043  24598626.1014   24598624.9254
       295.9534
  13804356.96348  10719325.23945  23907155.0854   23907151.8354
     -4642.2664
    336285.89249    263651.58048  21804600.5694   21804597.6794
      -556.2814
  -2958518.05248  -2301908.82745  23825159.1404   23825155.5814
       438.8134
   -704233.05444   -544473.18041  24953687.7574   24953686.7294
      1966.8134
 04  9  7 21 55 45.0030000  0  8G 3G 8G13G10G23G27G19G28
   2515501.35248   1962290.37244  23827735.1634   23827734.0074
     -1913.6724
  -4056386.75849  -3145723.14147  22571307.3044   22571305.7884
       702.9844
   5931225.97049   4611743.67348  21438690.7724   21438687.4014
     -2720.4844
   -777593.33046   -602591.49343  24597795.2804   24597792.7764
       287.3284
  13874023.22548  10773610.57645  23920412.7654   23920409.8544
     -4646.3444
    344654.73449    270172.77148  21806192.9214   21806190.6714
      -559.3754
  -2965046.19248  -2306995.66945  23823917.1794   23823914.0034
       431.7814
   -733714.12344   -567445.45341  24948077.0694   24948077.0504
      1964.1884
 04  9  7 21 56  0.0030000  0  8G 3G 8G13G10G23G27G19G28
   2544283.66148   1984718.15344  23833212.0624   23833211.4444
     -1923.9064
  -4066902.64349  -3153917.32447  22569306.3044   22569304.0734
       699.1414
   5972096.89949   4643591.12948  21446468.4994   21446465.1944
     -2729.0314
   -781833.12546   -605895.22443  24596988.0304   24596985.7884
       277.9694
  13943752.37348  10827944.94745  23933681.8744   23933677.6324
     -4650.8914
    353072.77249    276732.27248  21807794.9764   21807792.5224
      -563.1094
  -2971466.31648  -2311998.32845  23822695.2024   23822692.3824
       424.1254
   -763152.56943   -590384.40241  24942471.6794   24942474.4794
      1960.7974
 04  9  7 21 56 15.0030000  0  8G 3G 8G13G10G23G27G19G28
   2573212.71848   2007260.28544  23838717.5304   23838716.5894
     -1933.5004
  -4077367.56549  -3162071.80347  22567314.9764   22567312.9644
       695.9534
   6013089.38749   4675533.32348  21454269.1084   21454266.1754
     -2736.8444
   -785939.69746   -609095.11543  24596206.1404   24596204.2494
       269.3914
  14013543.69048  10882327.73845  23946962.1084   23946958.8004
     -4654.7344
    361539.64949    283329.84348  21809406.1944   21809403.1794
      -565.9844
  -2977778.58448  -2316916.95145  23821494.5154   23821490.7884
       417.2344
   -792548.61145   -613290.24641  24936882.7964   24936881.0424
      1958.3134
 04  9  7 21 56 30.0030000  0  8G 3G 8G13G10G23G27G19G28
   2602287.86248   2029916.24844  23844249.9214   23844248.7844
     -1942.9534
  -4087782.27949  -3170187.14847  22565333.1404   22565331.1634
       692.8754
   6054202.86849   4707569.80148  21462092.9684   21462089.7764
     -2744.7344
   -789913.52746   -612191.59543  24595449.3124   24595447.9914
       260.5944
  14083396.40548  10936758.39245  23960255.3514   23960251.4094
     -4658.6414
    370054.64349    289964.92048  21811026.4294   21811023.7614
      -569.0314
  -2983983.28948  -2321751.74345  23820313.7494   23820309.7804
       410.2664
   -821902.78045   -636163.56641  24931296.7494   24931294.9014
      1955.7974
 04  9  7 21 56 45.0030000  0  8G 3G 8G13G10G23G27G19G28
   2631509.61948   2052686.45944  23849811.6794   23849809.0814
     -1952.7974
  -4098146.09049  -3178262.82347  22563361.0934   22563358.9374
       689.4064
   6095437.88949   4739700.97948  21469939.6634   21469936.6634
     -2752.8754
   -793753.87947   -615184.08543  24594719.0074   24594717.4644
       251.8134
  14153310.96248  10991237.20045  23973559.1164   23973556.2884
     -4662.8594
    378618.43849    296638.01648  21812656.1634   21812653.2724
      -572.2974
  -2990079.62448  -2326502.09845  23819153.0934   23819149.5194
       403.0004
   -851214.34445   -659003.70341  24925717.8194   24925717.5654
      1952.9224
 04  9  7 21 57  0.0030000  0  8G 3G 8G13G10G23G27G19G28
   2660883.37148   2075575.09844  23855400.1714   23855399.3234
     -1962.9374
  -4108453.56749  -3186294.60847  22561399.8194   22561397.3824
       685.5784
   6136799.93449   4771931.13848  21477810.7574   21477807.3784
     -2761.3914
   -797455.06147   -618068.12543  24594014.6554   24594012.9644
       242.4694
  14223292.49248  11045768.22045  23986876.3274   23986873.0654
     -4667.3444
    387236.47049    303353.36148  21814296.2414   21814293.4334
      -576.0314
  -2996061.85847  -2331163.55645  23818014.9214   23818011.5544
       395.2974
   -880477.59246   -681806.09841  24920149.6244   24920148.6284
      1949.6254
 04  9  7 21 57 15.0030000  0  8G 3G 8G13G10G23G27G19G28
   2690410.16548   2098583.00044  23861019.0464   23861018.1324
     -1973.8594
  -4118703.43549  -3194281.50047  22559448.9604   22559447.0304
       681.0634
   6178289.96349   4804261.03348  21485705.8904   21485702.2614
     -2770.6094
   -801015.89847   -620842.78743  24593337.5384   24593335.6674
       232.4384
  14293341.91048  11100352.13545  24000206.4524   24000203.2494
     -4672.5314
    395909.75349    310111.77347  21815946.5774   21815943.9874
      -580.4064
  -3001928.56348  -2335734.98245  23816898.9134   23816895.2104
       386.9694
   -909691.18746   -704569.87541  24914589.7264   24914590.0224
      1945.5784
 04  9  7 21 57 30.0030000  0  8G 3G 8G13G10G23G27G19G28
   2720092.06448   2121711.77544  23866666.6474   23866666.6284
     -1983.3444
  -4128893.80449  -3202222.02847  22557509.7574   22557508.3274
       678.0004
   6219909.79249   4836692.04148  21493626.1014   21493622.7144
     -2778.3754
   -804434.38746   -623506.52443  24592686.2964   24592684.2844
       223.8284
  14363461.02248  11154990.33944  24013549.2104   24013545.9254
     -4676.3284
    404640.42549    316914.90948  21817607.7184   21817605.6244
      -583.3444
  -3007677.48248  -2340214.61045  23815804.7494   23815800.8944
       379.9224
   -938853.07146   -727293.34441  24909040.5304   24909040.4054
      1943.1414
 04  9  7 21 57 45.0030000  0  8G 3G 8G13G10G23G27G19G28
   2749921.41048   2144955.40644  23872343.7494   23872342.9994
     -1993.9534
  -4139032.06049  -3210121.94347  22555580.6084   22555578.8744
       673.7344
   6261651.77149   4869218.25048  21501569.2104   21501565.9644
     -2787.2504
   -807717.71846   -626064.96443  24592061.1404   24592060.1944
       213.7504
  14433641.91648  11209676.70944  24026903.9684   24026901.4294
     -4681.1724
    413420.88549    323756.83247  21819278.5154   21819276.2844
      -587.4224
  -3013316.02748  -2344608.26345  23814731.2104   23814727.3434
       371.8754
   -967970.58346   -749982.22741  24903500.0074   24903499.4834
      1939.2974
 04  9  7 21 58  0.0030000  0  8G 3G 8G13G10G23G27G19G28
   2779906.56448   2168320.48144  23878050.2494   23878048.7964
     -2004.1564
  -4149109.85449  -3217974.76747  22553662.6944   22553660.6984
       669.9384
   6303524.35549   4901846.22648  21509537.4764   21509534.0854
     -2795.7194
   -810857.26747   -628511.35143  24591464.5074   24591463.1984
       204.5634
  14503892.90448  11264417.68344  24040272.7414   24040269.2614
     -4685.5784
    422259.58849    330644.13948  21820960.7724   21820958.4214
      -591.0474
  -3018835.32348  -2348908.97045  23813681.3274   23813677.6124
       364.0634
   -997035.24845   -772629.98441  24897969.1554   24897968.4094
      1935.9534
 04  9  7 21 58 15.0030000  0  8G 3G 8G13G10G23G27G19G28
   2810037.54748   2191799.17444  23883783.2964   23883782.5654
     -2013.3914
  -4159136.95549  -3225788.08547  22551755.2574   22551752.7414
       666.9064
   6345517.47949   4934568.12348  21517528.4294   21517525.1674
     -2803.3914
   -813862.94146   -630853.42343  24590892.6714   24590891.6284
       196.1414
  14574203.79548  11319205.33544  24053652.1014   24053648.9524
     -4689.2664
    431146.51149    337569.01048  21822651.9764   21822649.2494
      -593.9064
  -3024245.15547  -2353124.39645  23812652.1474   23812648.3234
       357.2194
  -1026056.75845   -795244.07441  24892445.3514   24892445.3194
      1933.3594
 04  9  7 21 58 30.0030000  0  8G 3G 8G13G10G23G27G19G28
   2840321.82148   2215397.31644  23889546.7574   23889545.6124
     -2024.4374
  -4169105.79949  -3233555.99847  22549858.0154   22549855.6404
       662.2504
   6387638.68749   4967389.83848  21525543.6474   21525540.2144
     -2812.7034
   -816726.77546   -633084.99143  24590348.0854   24590346.0074
       185.7034
  14644581.99748  11374045.43644  24067045.2654   24067041.8354
     -4694.4844
    440089.30449    344537.43347  21824353.4374   21824350.9794
      -598.4694
  -3029537.65048  -2357248.37345  23811644.0224   23811641.0504
       348.5164
  -1055027.18545   -817818.39841  24886934.8194   24886932.3974
      1929.3754
 04  9  7 21 58 45.0030000  0  8G 3G 8G13G10G23G27G19G28
   2870755.00048   2239111.47744  23895338.4994   23895336.7454
     -2034.3914
  -4179020.73049  -3241281.90647  22547971.1324   22547969.1444
       658.6884
   6429883.69849   5000307.99948  21533582.7184   21533579.8124
     -2820.9694
   -819453.00147   -635209.33343  24589828.2414   24589826.7414
       176.5474
  14715022.88648  11428934.37444  24080449.0464   24080446.1904
     -4698.7664
    449083.70849    351546.05247  21826065.1874   21826062.3514
      -601.8914
  -3034716.74248  -2361284.03145  23810658.7964   23810655.3234
       340.9384
  -1083950.84844   -840356.19141  24881428.2184   24881428.3584
      1925.9844
 04  9  7 21 59  0.0030000  0  8G 3G 8G13G10G23G27G19G28
   2901334.09848   2262939.35344  23901156.7494   23901155.5224
     -2044.0944
  -4188884.63649  -3248968.04847  22546093.9374   22546092.1944
       655.2814
   6472249.39349   5033320.22648  21541644.5224   21541641.2654
     -2829.0474
   -822044.37746   -637228.55343  24589335.9294   24589334.5114
       167.5944
  14785523.38148  11483869.79344  24093865.1244   24093862.1404
     -4702.6094
    458126.84649    358592.66448  21827785.9444   21827783.2964
      -605.1254
  -3039785.12448  -2365233.37245  23809694.2804   23809691.2294
       333.6254
  -1112830.51944   -862859.78141  24875932.2414   24875932.7654
      1923.3444
 04  9  7 21 59 15.0030000  0  8G 3G 8G13G10G23G27G19G28
   2932062.05748   2286883.23544  23907004.0694   23907003.0584
     -2053.2194
  -4198694.32549  -3256611.94347  22544227.3124   22544225.5384
       652.4844
   6514738.82349   5066428.86548  21549729.9914   21549727.1474
     -2836.4374
   -824497.70847   -639140.22943  24588868.9914   24588867.6204
       159.2974
  14856086.32648  11538853.84144  24107293.4994   24107290.4914
     -4706.0314
    467221.74149    365679.60747  21829516.4524   21829514.1594
      -607.7344
  -3044739.54148  -2369093.93245  23808751.5384   23808748.4014
       326.8134
  -1141662.97344   -885326.50041  24870445.3824   24870446.3274
      1920.9064
 04  9  7 21 59 30.0030000  0  8G 3G 8G13G10G23G27G19G28
   2962938.60348   2310942.86544  23912879.6634   23912878.5854
     -2063.7034
  -4208450.24049  -3264213.94047  22542370.5154   22542368.6404
       648.3284
   6557351.68149   5099633.67548  21557839.0384   21557835.9444
     -2845.2504
   -826813.14246   -640944.47343  24588427.8434   24588427.0074
       149.5004
  14926711.19748  11593886.14244  24120733.1324   24120729.8234
     -4710.6874
    476368.00149    372806.56847  21831257.2184   21831254.7924
      -611.7664
  -3049579.93048  -2372865.64445  23807830.9604   23807826.1364
       318.6094
  -1170448.20053   -907756.46151  24864965.8744   24864968.8704
      1917.1724
 04  9  7 21 59 45.0030000  0  8G 3G 8G13G10G23G27G19G28
   2993967.55848   2335121.29344  23918784.9134   23918783.5194
     -2073.0784
  -4218148.31549  -3271770.86647  22540525.3664   22540523.7224
       645.0944
   6600091.74749   5132937.61348  21565972.0074   21565969.1944
     -2853.0784
   -828986.70747   -642638.13943  24588013.9604   24588012.9294
       140.7344
  14997401.68548  11648969.59844  24134184.5544   24134181.3314
     -4714.3594
    485569.68149    379976.70948  21833008.0074   21833005.4794
      -614.7504
  -3054302.08248  -2376545.20845  23806931.6944   23806927.9604
       311.2974
  -1199182.11144   -930146.44941  24859501.4764   24859500.1714
      1914.4844
 04  9  7 22  0  0.0030000  0  8G 3G 8G13G10G23G27G19G28
   3025141.46948   2359412.66044  23924716.9134   23924714.9954
     -2083.0474
  -4227795.74349  -3279288.33347  22538689.8044   22538687.8124
       641.4844
   6642951.58749   5166334.87048  21574128.0934   21574124.7334
     -2861.2814
   -831025.36646   -644226.71243  24587626.7334   24587624.4174
       131.5164
  15068150.31048  11704098.34544  24147647.7024   24147644.1754
     -4718.5004
    494819.49949    387184.36048  21834768.2654   21834765.7614
      -618.2814
  -3058913.01348  -2380138.12045  23806054.5464   23806050.7614
       303.7344
  -1227871.901 5                  24854042.101
      1911.063
 04  9  7 22  0 15.0030000  0  8G 3G 8G13G10G23G27G19G28
   3056467.86648   2383822.83344  23930677.3824   23930676.5624
     -2093.6564
  -4237385.08849  -3286760.52947  22536864.1714   22536862.1554
       637.1724
   6685938.71749   5199831.33348  21582308.2334   21582305.5074
     -2870.2194
   -832921.61946   -645704.26943  24587264.8824   24587263.7844
       121.4224
  15138964.27148  11759278.01644  24161123.3354   24161119.8394
     -4723.3284
    504124.90749    394435.34447  21836538.9524   21836536.5974
      -622.4064
  -3063404.99748  -2383638.33045  23805199.6474   23805196.2844
       295.2664
  -1256509.811 4                  24848592.007
      1907.063
 04  9  7 22  0 30.0030000  0  8G 3G 8G13G10G23G27G19G28
   3087946.43248   2408351.60644  23936667.9684   23936666.9834
     -2103.5164
  -4246916.41449  -3294187.51548  22535050.8354   22535049.0584
       633.6254
   6729053.12149   5233426.97848  21590512.8354   21590510.0584
     -2878.4064
   -834675.41746   -647070.86343  24586931.6944   24586930.4764
       112.3754
  15209843.12048  11814508.23344  24174611.2414   24174607.7144
     -4727.2344
    513485.77349    401729.53048  21838320.3824   21838317.7614
      -625.6874
  -3067777.96348  -2387045.81045  23804367.5464   23804363.3704
       287.7344
  -1285095.946 4                  24843151.140
      1904.375
 04  9  7 22  0 45.0030000  0  8G 3G 8G13G10G23G27G19G28
   3119574.14248   2432996.55944  23942686.3974   23942685.2844
     -2113.2504
  -4256392.60349  -3301571.54447  22533247.6944   22533245.8624
       630.1254
   6772291.38449   5267119.11648  21598740.6634   21598737.3704
     -2886.5624
   -836289.44646   -648328.54943  24586624.6474   24586623.4994
       103.1884
  15280783.90948  11869786.69744  24188110.9604   24188108.1284
     -4731.2664
    522899.29449    409064.73948  21840112.0464   21840109.2294
      -629.1564
  -3072034.47748  -2390362.54845  23803557.0544   23803553.5814
       280.0164
  -1313632.895 5                  24837720.015
      1900.875
 04  9  7 22  1  0.0030000  0  8G 3G 8G13G10G23G27G19G28
   3151349.51048   2457756.59844  23948733.1474   23948731.7334
     -2122.8124
  -4265815.32949  -3308913.90547  22531454.7184   22531452.5774
       626.9224
   6815652.01249   5300906.61648  21606991.4914   21606988.6444
     -2894.3124
   -837765.09646   -649478.39143  24586343.9914   24586343.0264
        94.2974
  15351784.88148  11925112.08444  24201622.6404   24201619.2024
     -4735.0314
    532363.90549    416439.77348  21841912.9604   21841910.1904
      -632.2034
  -3076175.87148  -2393589.58145  23802769.4764   23802765.2334
       272.7504
  -1342122.192 5                  24832298.194
      1898.234
 04  9  7 22  1 15.0030000  0  8G 3G 8G13G10G23G27G19G28
   3183267.47148   2482627.75044  23954806.6404   23954805.5624
     -2132.7974
  -4275189.34649  -3316218.32547  22529670.6164   22529668.5654
       623.1094
   6859130.11649   5334785.65548  21615265.7494   21615261.8744
     -2902.6254
   -839107.26646   -650524.22143  24586087.8824   24586087.2614
        84.8594
  15422840.81548  11980480.30244  24215142.8744   24215140.2104
     -4739.1094
    541874.76549    423850.84547  21843722.6794   21843720.0654
      -635.7974
  -3080206.80648  -2396730.53745  23802002.4914   23801998.8664
       264.8914
  -1370568.433 5                  24826888.233
      1894.734
 04  9  7 22  1 30.0030000  0  8G 3G 8G13G10G23G27G19G28
   3215332.35748   2507613.37044  23960908.3044   23960907.1754
     -2142.2664
  -4284510.17149  -3323481.29547  22527897.0304   22527895.3974
       619.7974
   6902729.98849   5368759.55848  21623562.3664   21623559.2724
     -2910.4534
   -840311.28446   -651462.42543  24585860.3514   24585857.9094
        75.9844
  15493955.98148  12035894.65644  24228676.3194   24228672.7104
     -4742.7194
    551436.17149    431301.28347  21845542.3194   21845539.6244
      -638.9064
  -3084122.51748  -2399781.70446  23801256.9604   23801253.3004
       257.4694
  -1398967.113 5                  24821481.819
      1891.859
 04  9  7 22  1 45.0030000  0  8G 3G 8G13G10G23G27G19G28
   3247552.65748   2532720.10444  23967039.1634   23967038.8194
     -2152.5624
  -4293769.20949  -3330696.11247  22526134.7724   22526133.0344
       615.8594
   6946460.12049   5402834.97648  21631884.0854   21631881.0854
     -2919.0004
   -841368.50546   -652286.22843  24585657.7414   24585657.0264
        66.2504
  15565138.65548  12091361.61944  24242222.0854   24242218.4334
     -4747.1724
    561056.67049    438797.78948  21847372.4294   21847370.4724
      -642.6724
  -3087914.29848  -2402736.30545  23800535.6244   23800532.1404
       249.3284
  -1427309.523 4                  24816088.577
      1888.219
 04  9  7 22  2  0.0030000  0  8G 3G 8G13G10G23G27G19G28
   3279920.22648   2557941.58544  23973198.5854   23973197.9914
     -2162.8754
  -4302974.43849  -3337869.00147  22524383.1084   22524381.3354
       611.7344
   6990312.31449   5437005.50448  21640228.7724   21640225.5504
     -2927.6414
   -842286.95446   -653001.87943  24585482.9914   24585481.8784
        56.5004
  15636380.38548  12146874.59844  24255778.2334   24255775.3824
     -4751.5474
    570728.26649    446334.09848  21849213.3744   21849210.8154
      -646.6254
  -3091589.90648  -2405600.39145  23799836.6244   23799832.4914
       241.0164
  -1455603.536 5                  24810704.804
      1884.453
 04  9  7 22  2 15.0030000  0  8G 3G 8G13G10G23G27G19G28
   3312437.56848   2583279.77644  23979387.2724   23979386.3124
     -2172.9374
  -4312123.27749  -3344997.94947  22522642.1014   22522640.4134
       607.9384
   7034289.16649   5471273.16648  21648597.5224   21648594.0774
     -2936.0784
   -843063.69146   -653607.12543  24585335.9294   24585333.8354
        46.8284
  15707683.68548  12202435.56244  24269347.5304   24269344.7264
     -4755.7814
    580453.53849    453912.23948  21851063.7574   21851061.6014
      -650.2814
  -3095146.39848  -2408371.65945  23799158.8274   23799155.3274
       232.9224
  -1483846.54145  -1151962.10251  24805330.8194   24805329.5304
      1880.9694
 04  9  7 22  2 30.0030000  0  8G 3G 8G13G10G23G27G19G28
   3345106.21048   2608735.86444  23985604.1084   23985602.6014
     -2182.5164
  -4321214.25449  -3352081.81647  22520912.3824   22520910.6284
       604.5474
   7078392.18849   5505639.14348  21656990.0774   21656986.7724
     -2944.0004
   -843697.06646   -654100.65843  24585214.4604   24585213.8824
        37.8284
  15779049.84848  12258045.51344  24282927.1944   24282924.5894
     -4759.4374
    590234.12949    461533.48548  21852925.1554   21852922.9954
      -653.4534
  -3098582.01048  -2411048.73445  23798505.8514   23798501.9444
       225.4694
  -1512036.73345  -1173928.41841  24799965.9994   24799964.4564
      1878.0474
 04  9  7 22  2 45.0030000  0  8G 3G 8G13G10G23G27G19G28
   3377919.79848   2634304.89644  23991848.1244   23991846.9954
     -2192.6094
  -4330253.06549  -3359125.02847  22519192.2334   22519190.7614
       600.6724
   7122614.96649   5540098.44248  21665405.2334   21665401.8314
     -2952.3284
   -844193.01646   -654487.09643  24585120.1944   24585118.9524
        28.3754
  15850472.54048  12313699.50244  24296519.2654   24296515.9134
     -4763.5474
    600063.89649    469193.05248  21854795.5384   21854793.3944
      -657.1254
  -3101902.61348  -2413636.17945  23797873.2574   23797870.3154
       217.3914
  -1540179.86845  -1195858.05141  24794610.1324   24794609.7884
      1874.4224
 04  9  7 22  3  0.0030000  0  8G 3G 8G13G10G23G27G19G28
   3410881.61348   2659989.42844  23998119.7654   23998119.6874
     -2202.8124
  -4339236.64749  -3366125.21247  22517482.5694   22517480.9954
       596.6254
   7166960.90049   5574653.69948  21673843.8664   21673840.8084
     -2960.9534
   -844548.01747   -654763.74343  24585053.6634   24585052.5344
        18.5164
  15921954.96048  12369400.04144  24310121.7414   24310118.1554
     -4767.9844
    609946.17749    476893.52548  21856676.0464   21856674.1124
      -661.0474
  -3105104.62448  -2416131.24745  23797264.6084   23797260.8194
       209.0634
  -1568272.56944  -1217748.37941  24789263.1164   24789264.1324
      1870.6564
 04  9  7 22  3 15.0030000  0  8G 3G 8G13G10G23G27G19G28
   3443991.92348   2685789.67444  24004421.0154   24004420.5154
     -2212.3754
  -4348164.54049  -3373081.99947  22515783.6014   22515781.5424
       593.3134
   7211430.10749   5609305.02948  21682305.8974   21682302.7534
     -2968.7504
   -844761.79647   -654930.29143  24585011.3584   24585011.7224
         9.5164
  15993497.08848  12425147.10944  24323736.4054   24323732.9214
     -4771.5624
    619881.40249    484635.26948  21858566.9914   21858564.1634
      -664.1254
  -3108187.47948  -2418533.43945  23796677.9054   23796673.7844
       201.5474
  -1596314.28745  -1239598.97741  24783927.6404   24783927.7654
      1867.8754
 04  9  7 22  3 30.0030000  0  8G 3G 8G13G10G23G27G19G28
   3477250.80148   2711705.67544  24010750.2574   24010749.2884
     -2222.5004
  -4357036.58549  -3379995.27347  22514095.6244   22514093.2374
       589.3284
   7256022.85149   5644052.60148  21690791.6554   21690788.8514
     -2977.2344
   -844833.86547   -654986.45943  24584998.9684   24584997.3974
        -0.3444
  16065098.88548  12480940.65544  24337361.8744   24337357.9524
     -4775.7344
    629869.63349    492418.29948  21860467.8124   21860465.4174
      -667.9224
  -3111150.68548  -2420842.41146  23796113.9294   23796110.5154
       193.2504
  -1624304.83044  -1261409.69541  24778600.2724   24778600.9834
      1863.9224
 04  9  7 22  3 45.0030000  0  8G 3G 8G13G10G23G27G19G28
   3510661.54548   2737740.05144  24017108.1714   24017107.0504
     -2232.4534
  -4365849.41049  -3386862.38247  22512418.7264   22512416.7924
       585.4694
   7300742.44949   5678899.04248  21699301.8044   21699299.1594
     -2985.5784
   -844760.71247   -654929.43643  24585012.7654   24585010.7144
        -9.8124
  16136763.49948  12536783.15544  24350998.7494   24350995.9334
     -4779.7814
    639914.29949    500245.33447  21862379.1714   21862376.6714
      -671.5314
  -3113990.57048  -2423055.26846  23795572.9444   23795569.8084
       185.1724
  -1652240.54345  -1283177.75841  24773285.9994   24773284.6674
      1860.4694
 04  9  7 22  4  0.0030000  0  8G 3G 8G13G10G23G27G19G28
   3544223.03348   2763891.85244  24023494.0934   24023493.7724
     -2242.0784
  -4374603.82449  -3393683.99147  22510752.9604   22510750.2804
       582.0164
   7345587.65149   5713843.34348  21707835.4294   21707832.2334
     -2993.5004
   -844543.25946   -654759.99443  24585054.0384   24585052.2104
       -18.9534
  16208489.59947  12592673.58644  24364648.2654   24364644.8474
     -4783.3754
    650014.45849    508115.59647  21864301.0384   21864297.9484
      -674.8594
  -3116707.97948  -2425172.71745  23795056.2184   23795052.0894
       177.4224
  -1680122.31645  -1304903.73441  24767981.1714   24767978.9644
      1857.3444
 04  9  7 22  4 15.0030000  0  8G 3G 8G13G10G23G27G19G28
   3577932.40248   2790158.89844  24029909.6404   24029908.4684
     -2252.4224
  -4383302.82949  -3400462.41847  22509097.1474   22509095.3434
       577.8594
   7390555.58749   5748883.28348  21716392.5624   21716389.5074
     -3002.2344
   -844184.18847   -654480.18943  24585122.7654   24585121.0074
       -28.9224
  16280274.28047  12648609.62544  24378307.8904   24378305.3234
     -4787.8914
    660167.31849    516026.90947  21866232.9214   21866230.3234
      -678.8444
  -3119305.50948  -2427196.73546  23794562.4214   23794558.9994
       168.9064
  -1707952.82744  -1326589.78541  24762685.4604   24762683.5734
      1853.5634
 04  9  7 22  4 30.0030000  0  8G 3G 8G13G10G23G27G19G28
   3611793.71748   2816544.33544  24036352.5774   24036351.4214
     -2261.9534
  -4391942.25349  -3407194.42547  22507452.6554   22507450.9174
       574.4064
   7435650.41449   5784022.10548  21724973.6714   21724970.8784
     -3010.0624
   -843679.19847   -654086.67543  24585218.2104   24585217.8824
       -38.0314
  16352121.57048  12704594.47844  24391980.3124   24391976.4604
     -4791.4694
    670377.00949    523982.52947  21868175.7264   21868173.6834
      -682.0474
  -3121778.60548  -2429123.79646  23794091.2414   23794088.0854
       161.2344
  -1735727.55744  -1348232.35941  24757394.4684   24757397.6324
      1850.2194
 04  9  7 22  4 45.0030000  0  8G 3G 8G13G10G23G27G19G28
   3645797.07548   2843040.46344  24042823.1474   24042822.3124
     -2271.4534
  -4400531.69949  -3413887.48847  22505818.7024   22505816.1944
       571.1094
   7480862.12549   5819251.99148  21733577.3974   21733574.2534
     -3017.7974
   -843037.94146   -653586.99243  24585340.0624   24585339.0584
       -47.0784
  16424021.45048  12760620.30344  24405662.1404   24405659.0584
     -4794.9064
    680633.84649    531974.86048  21870127.4764   21870124.9174
      -685.1874
  -3124136.83048  -2430961.36546  23793643.1164   23793638.8314
       153.6254
  -1763456.22444  -1369839.00041  24752122.2654   24752120.7574
      1847.1414
 04  9  7 22  5  0.0040000  0  8G 3G 8G13G10G23G27G19G28
   3679950.35748   2869653.39644  24049322.1844   24049321.4694
     -2281.6254
  -4409065.76349  -3420537.38047  22504194.4804   22504192.5314
       567.0314
   7526199.36949   5854579.70548  21742204.6134   21742201.8984
     -3026.3124
   -842254.60647   -652976.58043  24585489.8874   24585487.7624
       -56.9534
  16495984.12347  12816695.05444  24419356.0354   24419352.4654
     -4799.0314
    690944.22649    540008.92647  21872089.8554   21872086.8484
      -689.0164
  -3126374.47548  -2432704.93945  23793217.2694   23793213.1374
       145.0944
  -1791134.87844  -1391406.64841  24746854.2234   24746854.4614
      1843.4224
 04  9  7 22  5 15.0040000  0  8G 3G 8G13G10G23G27G19G28
   3714252.66748   2896382.47644  24055849.6134   24055848.9964
     -2292.0164
  -4417539.69849  -3427140.44247  22502582.0824   22502580.1174
       562.7034
   7571659.79949   5890003.39048  21750855.4734   21750852.6564
     -3035.1094
   -841325.37047   -652252.50743  24585666.3094   24585664.3674
       -67.0944
  16568003.43448  12872813.92744  24433061.5434   24433058.1374
     -4803.6414
    701310.48749    548086.53347  21874062.3244   21874059.6724
      -693.2034
  -3128487.27148  -2434351.26446  23792814.5594   23792811.1844
       136.4384
  -1818755.86244  -1412929.40241  24741597.3634   24741597.5004
      1839.2814
 04  9  7 22  5 30.0040000  0  8G 3G 8G13G10G23G27G19G28
   3748709.29948   2923231.80544  24062407.6214   24062406.4184
     -2301.6094
  -4425950.98549  -3433694.67247  22500981.4654   22500979.4654
       559.2664
   7617249.44449   5925527.78048  21759530.9734   21759527.8054
     -3043.0314
   -840246.88147   -651412.10443  24585871.7694   24585870.1374
       -76.2664
  16640087.07448  12928982.94544  24446778.3014   24446775.2274
     -4807.0784
    711736.42549    556210.65148  21876046.1914   21876043.8944
      -696.4534
  -3130471.87948  -2435897.66846  23792436.7694   23792433.3124
       128.6414
  -1846317.70845  -1434406.09441  24736354.4184   24736352.6214
      1836.0944
 04  9  7 22  5 45.0040000  0  8G 3G 8G13G10G23G27G19G28
   3783311.41348   2950194.49644  24068991.4264   24068990.5004
     -2311.7504
  -4434308.29849  -3440206.85247  22499391.0904   22499388.3164
       555.1564
   7662959.78149   5961146.21648  21768229.5274   21768226.2274
     -3051.5474
   -839027.63747   -650462.04943  24586103.1444   24586102.1604
       -86.1874
  16712226.27448  12985195.25844  24460506.2774   24460503.1374
     -4811.2974
    722213.46649    564374.58448  21878039.9494   21878036.9884
      -700.3754
  -3132336.75448  -2437350.79746  23792082.0124   23792078.3284
       120.1254
  -1873828.84845  -1455843.32341  24731118.5824   24731117.4924
      1832.2344
 04  9  7 22  6  0.0040000  0  8G 3G 8G13G10G23G27G19G28
   3818062.64848   2977273.39844  24075603.8634   24075603.0354
     -2321.5784
  -4442607.86549  -3446674.02947  22497811.7854   22497809.1604
       551.5004
   7708794.21349   5996861.34348  21776951.7694   21776948.8834
     -3059.6254
   -837663.98848   -649399.46443  24586363.1604   24586361.8944
       -95.5624
  16784424.41748  13041453.50644  24474245.2074   24474242.0354
     -4815.0314
    732745.34849    572581.24847  21880044.1914   21880041.3284
      -703.7664
  -3134077.95848  -2438707.55945  23791750.2774   23791747.1444
       112.1094
  -1901285.55545  -1477238.00041  24725892.4574   24725892.4574
      1828.9694
 04  9  7 22  6 15.0040000  0  8G 3G 8G13G10G23G27G19G28
   3852959.13548   3004465.44544  24082243.7074   24082244.2194
     -2331.6724
  -4450853.13949  -3453098.90447  22496242.7384   22496240.0594
       547.4694
   7754748.89249   6032670.17348  21785696.3554   21785693.1254
     -3068.0004
   -836159.40847   -648227.06343  24586649.7624   24586647.5234
      -105.4374
  16856677.50148  13097754.53144  24487994.2854   24487990.8484
     -4819.1254
    743328.28949    580827.70348  21882058.4184   21882055.3364
      -707.6254
  -3135698.94048  -2439970.62646  23791442.2384   23791438.6134
       103.6564
  -1928691.39046  -1498593.08641  24720678.2304   24720677.4264
      1824.9844
 04  9  7 22  6 30.0040000  0  8G 3G 8G13G10G23G27G19G28
   3888000.88848   3031770.72244  24088912.9884   24088911.9964
     -2340.9064
  -4459044.13449  -3459481.48547  22494684.1294   22494682.0744
       544.3444
   7800823.78849   6068572.68048  21794464.0354   21794461.2624
     -3075.5624
   -834513.60547   -646944.60943  24586963.1054   24586960.4064
      -114.2814
  16928985.38948  13154098.30844  24501754.4104   24501751.0354
     -4822.1874
    753962.52449    589114.12647  21884081.4884   21884079.2734
      -710.5944
  -3137199.30249  -2441139.71246  23791156.9734   23791153.0394
        96.0784
  -1956046.01246  -1519908.33141  24715473.0984   24715471.8754
      1822.0164
 04  9  7 22  6 45.0040000  0  8G 3G 8G13G10G23G27G19G28
   3923188.54148   3059189.68344  24095609.4414   24095607.8914
     -2351.0624
  -4467180.24449  -3465821.29447  22493135.7304   22493133.2814
       540.1724
   7847019.69849   6104569.48848  21803254.8404   21803251.7894
     -3084.0624
   -832725.67047   -645551.40743  24587302.9184   24587300.9574
      -124.3284
  17001348.79548  13210485.29444  24515524.1134   24515521.8284
     -4826.3754
    764648.85349    597441.13147  21886114.8244   21886112.7774
      -714.5004
  -3138578.09049  -2442214.06846  23790894.0594   23790890.6214
        87.4534
  -1983348.41846  -1541182.81941  24710277.7934   24710276.3014
      1818.0314
 04  9  7 22  7  0.0040000  0  8G 3G 8G13G10G23G27G19G28
   3958529.63248   3086728.20244  24102334.5194   24102333.5784
     -2361.0624
  -4475253.57649  -3472112.18747  22491599.2694   22491596.9734
       536.2974
   7893344.07949   6140666.39348  21812069.9414   21812066.7734
     -3092.4064
   -830788.05147   -644041.55143  24587671.4414   24587670.0274
      -133.8914
  17073774.94648  13266921.20544  24529306.5984   24529304.0944
     -4830.3594
    775394.73349    605814.55347  21888160.0664   21888157.6414
      -718.2034
  -3139827.43249  -2443187.56246  23790656.3484   23790652.2854
        79.1094
  -2010591.02146  -1562410.81241  24705092.4734   24705091.6334
      1814.3914
 04  9  7 22  7 15.0040000  0  8G 3G 8G13G10G23G27G19G28
   3994019.82148   3114382.89144  24109087.1604   24109087.2304
     -2370.7344
  -4483268.24549  -3478357.36747  22490074.0904   22490072.0194
       532.6884
   7939792.54849   6176859.99648  21820908.8634   21820905.9614
     -3100.4224
   -828704.69647   -642418.16543  24588068.4494   24588066.2114
      -143.5164
  17146259.43448  13323402.58044  24543100.0904   24543097.2424
     -4833.9694
    786196.04249    614231.16548  21890215.5664   21890212.8594
      -721.7034
  -3140951.37749  -2444063.32445  23790442.6764   23790438.5704
        70.9844
  -2037777.70546  -1583595.22741  24699919.3014   24699917.9694
      1810.6884
 04  9  7 22  7 30.0040000  0  8G 3G 8G13G10G23G27G19G28
   4029652.78448   3142148.82244  24115868.1844   24115867.3164
     -2380.7194
  -4491230.37049  -3484561.60347  22488559.0354   22488556.7974
       528.6254
   7986358.93949   6213145.50148  21829770.1444   21829767.1334
     -3108.7974
   -826481.75147   -640685.97843  24588491.3014   24588489.1484
      -153.2344
  17218795.85448  13379924.39544  24556903.5824   24556900.9454
     -4837.9694
    797046.65749    622686.18647  21892280.0514   21892277.4414
      -725.4694
  -3141955.74948  -2444845.93146  23790251.1214   23790247.6724
        62.5944
  -2064914.56146  -1604740.77941  24694755.2074   24694754.0194
      1806.9064
 04  9  7 22  7 45.0040000  0  8G 3G 8G13G10G23G27G19G28
   4065430.58948   3170027.64244  24122676.8404   24122675.7424
     -2389.9534
  -4499137.86749  -3490723.27847  22487054.4574   22487052.1724
       525.4064
   8033045.33049   6249524.49148  21838654.0904   21838650.8404
     -3116.3284
   -824116.89247   -638843.24243  24588940.9264   24588939.5664
      -162.3594
  17291386.10448  13436488.16444  24570717.1134   24570714.2274
     -4841.1414
    807948.79349    631181.37047  21894354.8794   21894352.2464
      -728.4374
  -3142838.12248  -2445533.46646  23790083.5744   23790079.0514
        54.7974
  -2091999.23446  -1625845.64942  24689601.4964   24689600.5594
      1803.9844
 04  9  7 22  8  0.0040000  0  8G 3G 8G13G10G23G27G19G28
   4101354.91448   3198020.63144  24129513.5194   24129511.6174
     -2399.6564
  -4506988.89249  -3496840.94447  22485560.2624   22485558.2194
       521.6724
   8079853.29849   6285998.22648  21847561.4184   21847558.3404
     -3124.3914
   -821608.15747   -636888.36043  24589417.9494   24589416.6444
      -171.8444
  17364031.76048  13493095.09844  24584541.3634   24584537.7934
     -4844.7034
    818904.29149    639718.13047  21896439.1374   21896437.2034
      -731.9534
  -3143596.48049  -2446124.35945  23789938.9184   23789936.0394
        46.5314
  -2119029.77246  -1646908.30742  24684458.1764   24684456.5624
      1800.4844
 04  9  7 22  8 15.0040000  0  8G 3G 8G13G10G23G27G19G28
   4137425.64447   3226127.68244  24136377.0664   24136376.0354
     -2409.9844
  -4514783.40349  -3502914.58347  22484076.9574   22484074.9494
       517.4534
   8126782.75249   6322566.60848  21856492.0274   21856488.8244
     -3133.0004
   -818955.57647   -634821.40543  24589922.2544   24589922.0274
      -181.9374
  17436732.56548  13549745.01444  24598375.3094   24598372.8554
     -4848.8754
    829913.04249    648296.37047  21898534.3874   21898531.5394
      -736.0474
  -3144230.67849  -2446618.51446  23789817.6374   23789814.8094
        37.7974
  -2146006.16646  -1667928.82542  24679323.7694   24679322.5514
      1796.3444
 04  9  7 22  8 30.0040000  0  8G 3G 8G13G10G23G27G19G28
   4173644.86448   3254350.45044  24143269.0664   24143268.4804
     -2419.2814
  -4522519.14949  -3508942.41547  22482605.0514   22482602.6804
       513.9694
   8173835.90649   6359231.37948  21865446.1524   21865442.9414
     -3140.7814
   -816156.62047   -632640.40243  24590455.4414   24590453.7344
      -191.3124
  17509490.72148  13606439.63044  24612220.8014   24612218.1444
     -4852.3594
    840977.44049    656917.98447  21900639.8094   21900636.8874
      -739.3284
  -3144738.20248  -2447013.97046  23789721.5194   23789717.8714
        29.7344
  -2172925.74246  -1688905.03542  24674201.6684   24674200.0554
      1792.9224
 04  9  7 22  8 45.0040000  0  8G 3G 8G13G10G23G27G19G28
   4210007.02047   3282684.60244  24150188.8014   24150188.2664
     -2428.9374
  -4530201.37949  -3514928.56047  22481143.1444   22481141.0514
       510.3444
   8221007.07149   6395988.11748  21874422.3484   21874419.0824
     -3148.6874
   -813216.79947   -630349.63843  24591014.3714   24591013.7504
      -200.6564
  17582300.40648  13663174.36644  24626076.9344   24626074.0944
     -4855.7034
    852092.03849    665578.71547  21902754.6994   21902752.0234
      -742.6564
  -3145124.27148  -2447314.77546  23789648.0434   23789644.6994
        21.6414
  -2199793.93346  -1709841.20542  24669089.3484   24669086.8754
      1789.4694
 04  9  7 22  9  0.0040000  0  8G 3G 8G13G10G23G27G19G28
   4246516.25448   3311133.37844  24157136.7234   24157136.0594
     -2438.9374
  -4537825.86649  -3520869.69747  22479692.3484   22479689.8484
       506.2974
   8268300.64149   6432840.25148  21883422.2774   21883418.8984
     -3157.0784
   -810131.51347   -627945.46644  24591602.1764   24591601.0354
      -210.5784
  17655165.66048  13719952.44144  24639942.2934   24639939.1724
     -4859.6724
    863261.12749    674281.91047  21904880.1914   21904877.6334
      -746.5164
  -3145384.27749  -2447517.35246  23789598.9964   23789595.5164
        13.0164
  -2226606.18946  -1730733.81342  24663986.4884   24663985.2854
      1785.1884
 04  9  7 22  9 15.0040000  0  8G 3G 8G13G10G23G27G19G28
   4283168.59748   3339693.63044  24164111.4494   24164110.3164
     -2448.3444
  -4545396.66349  -3526769.00647  22478251.6604   22478249.2734
       502.8134
   8315712.44249   6469784.50448  21892444.0904   21892440.8754
     -3164.7974
   -806904.65548   -625431.06143  24592216.6134   24592214.7974
      -219.9064
  17728082.39348  13776770.58744  24653817.3874   24653815.3714
     -4862.9064
    874480.84749    683024.55247  21907015.0824   21907012.6334
      -749.7814
  -3145522.02649  -2447624.65546  23789572.6054   23789568.9184
         5.0314
  -2253366.36246  -1751585.81842  24658893.3324   24658893.1094
      1782.1884
 04  9  7 22  9 30.0040000  0  8G 3G 8G13G10G23G27G19G28
   4319970.31547   3368370.31144  24171113.5194   24171113.2424
     -2458.4374
  -4552907.15549  -3532621.32447  22476822.6134   22476820.2624
       498.6564
   8363248.96349   6506825.94248  21901490.0124   21901486.9844
     -3173.2504
   -803529.59747   -622801.13843  24592858.3634   24592857.0474
      -230.0314
  17801056.89148  13833633.78844  24667703.6524   24667701.3124
     -4866.9064
    885757.60849    691811.65147  21909161.2304   21909159.1844
      -753.6564
  -3145530.67448  -2447631.37446  23789570.8634   23789567.4344
        -3.7194
  -2280067.69845  -1772391.94542  24653812.0664   24653811.4654
      1778.0634
 04  9  7 22  9 45.0040000  0  8G 3G 8G13G10G23G27G19G28
   4356912.36048   3397156.32044  24178144.2544   24178143.1954
     -2468.1094
  -4560366.20849  -3538433.56547  22475403.1374   22475400.4304
       494.9694
   8410901.00349   6543957.39948  21910557.8554   21910554.8284
     -3181.2664
   -800015.27047   -620062.69043  24593526.8634   24593526.0744
      -239.6254
  17874079.84547  13890534.70244  24681599.0514   24681597.7694
     -4870.3284
    897082.67049    700636.37848  21911316.1764   21911313.7694
      -757.2034
  -3145418.99249  -2447544.31646  23789592.1444   23789588.8554
       -12.0624
  -2306719.17846  -1793159.24242  24648741.4414   24648739.5314
      1774.5784
 04  9  7 22 10  0.0040000  0  8G 3G 8G13G10G23G27G19G28
   4394005.90548   3426060.38444  24185203.0354   24185201.6254
     -2477.1874
  -4567762.44649  -3544196.84447  22473995.5824   22473993.2344
       491.7974
   8458679.89649   6581187.69048  21919650.2304   21919646.7624
     -3188.6874
   -796350.17347   -617206.76643  24594224.1054   24594223.2584
      -248.6724
  17947162.48448  13947482.15144  24695507.4804   24695504.6604
     -4873.4534
    908467.26949    709507.49948  21913482.9734   21913480.2114
      -760.2194
  -3145175.46048  -2447354.52946  23789638.6374   23789634.5704
       -19.9224
  -2333309.12446  -1813878.62542  24643680.7304   24643679.8834
      1771.4534
 04  9  7 22 10 15.0040000  0  8G 3G 8G13G10G23G27G19G28
   4431240.40548   3455074.26944  24192288.2694   24192287.7544
     -2487.5624
  -4575106.18049  -3549919.22047  22472597.8794   22472595.7034
       487.2974
   8506575.01849   6618508.55548  21928764.2384   21928761.8324
     -3197.4844
   -792544.80147   -614241.51443  24594948.2234   24594947.3794
      -258.9844
  18020293.98748  14004467.68244  24709423.3874   24709421.7344
     -4877.6564
    919900.90949    718416.83147  21915658.5664   21915656.2304
      -764.4224
  -3144810.32549  -2447069.99346  23789708.3164   23789704.0164
       -28.9374
  -2359847.90646  -1834558.11042  24638630.9804   24638629.4064
      1766.9844
 04  9  7 22 10 30.0040000  0  8G 3G 8G13G10G23G27G19G28
   4468622.50448   3484203.16744  24199401.9734   24199400.5784
     -2497.3284
  -4582390.69949  -3555595.45747  22471211.6764   22471209.9774
       483.4844
   8554592.98349   6655925.13948  21937901.6914   21937898.6994
     -3205.5474
   -788592.19447   -611161.57543  24595700.7854   24595699.5234
      -268.5314
  18093480.86548  14061496.35443  24723351.1294   24723348.3444
     -4881.1724
    931390.45449    727369.72747  21917845.0744   21917842.2274
      -767.9844
  -3144316.56549  -2446685.21146  23789801.6054   23789797.8284
       -37.4224
  -2386328.62846  -1855192.39342  24633591.5904   24633590.7154
      1763.1724
 04  9  7 22 10 45.0040000  0  8G 3G 8G13G10G23G27G19G28
   4506148.84148   3513444.46644  24206542.5274   24206541.8124
     -2506.7664
  -4589619.15249  -3561228.00647  22469836.1054   22469834.1134
       479.7814
   8602730.48149   6693434.86448  21947062.3634   21947059.1804
     -3213.4224
   -784495.42447   -607969.26543  24596480.9494   24596478.9144
      -278.2194
  18166719.70648  14118565.53443  24737287.7154   24737285.0784
     -4884.6254
    942932.65449    736363.65447  21920041.3014   21920038.2154
      -771.4844
  -3143697.14048  -2446202.52046  23789919.2464   23789915.9454
       -45.7344
  -2412754.33346  -1875783.78442  24628563.3484   24628561.8714
      1759.5634
 04  9  7 22 11  0.0040000  0  8G 3G 8G13G10G23G27G19G28
   4543822.48848   3542800.55744  24213712.5124   24213711.2114
     -2516.3914
  -4596788.07049  -3566814.16247  22468471.9804   22468469.6954
       476.0474
   8650990.74049   6731040.25648  21956245.7854   21956242.8674
     -3221.3914
   -780251.03847   -604661.95843  24597288.4264   24597286.2424
      -287.7974
  18240013.66748  14175677.64743  24751235.0044   24751232.5394
     -4887.9064
    954530.91049    745401.25748  21922248.2544   21922245.5274
      -775.0164
  -3142948.44949  -2445619.11346  23790062.0514   23790058.3834
       -54.1094
  -2439121.47345  -1896329.53442  24623544.6914   24623544.3444
      1755.8914
 04  9  7 22 11 15.0040000  0  8G 3G 8G13G10G23G27G19G28
   4581636.51248   3572266.02944  24220907.8404   24220906.3054
     -2525.9844
  -4603904.29349  -3572359.26247  22467117.8014   22467115.2114
       472.2814
   8699366.76249   6768735.84148  21965451.1134   21965448.2114
     -3229.3124
   -775865.91547   -601244.97243  24598123.0194   24598120.9614
      -297.4374
  18313355.51248  14232827.07043  24765192.1914   24765188.9344
     -4891.4064
    966178.51149    754477.30848  21924464.8554   21924462.3204
      -778.5164
  -3142077.18948  -2444940.17846  23790227.9264   23790224.1844
       -62.5624
  -2465436.87746  -1916835.00942  24618538.8634   24618537.0274
      1752.3594
 04  9  7 22 11 30.0040000  0  8G 3G 8G13G10G23G27G19G28
   4619591.35648   3601841.23844  24228130.0744   24228129.0864
     -2535.3124
  -4610967.37449  -3577862.94147  22465773.9654   22465771.7934
       468.7194
   8747858.94349   6806521.95448  21974679.2154   21974675.9304
     -3237.0164
   -771339.42247   -597717.80844  24598984.5664   24598982.3124
      -306.7504
  18386745.55048  14290014.04943  24779157.8244   24779154.4614
     -4894.5784
    977875.75449    763592.05147  21926690.7154   21926687.8794
      -781.8284
  -3141082.56349  -2444165.12346  23790417.5044   23790413.2074
       -70.7344
  -2491699.76646  -1937299.54042  24613540.5594   24613539.5624
      1748.8284
 04  9  7 22 11 45.0040000  0  8G 3G 8G13G10G23G27G19G28
   4657687.09248   3631526.24744  24235379.1134   24235377.9574
     -2544.1874
  -4617976.91749  -3583324.91147  22464439.8714   22464437.6024
       465.6564
   8796467.38549   6844398.65548  21983928.9804   21983925.9184
     -3244.2974
   -766671.11647   -594080.16043  24599871.8554   24599871.2344
      -315.7974
  18460183.99848  14347238.75443  24793132.7934   24793129.6524
     -4897.3124
    989623.09949    772745.83747  21928926.1994   21928923.6994
      -784.6564
  -3139964.17249  -2443293.62446  23790629.8484   23790626.3554
       -78.4844
  -2517909.79146  -1957722.87942  24608552.6524   24608550.7304
      1745.7194
 04  9  7 22 12  0.0040000  0  8G 3G 8G13G10G23G27G19G28
   4695922.76248   3661320.26444  24242655.4734   24242654.8014
     -2554.4064
  -4624933.69849  -3588745.77147  22463116.2624   22463113.8164
       461.2034
   8845191.07549   6882365.15448  21993200.5124   21993197.7734
     -3252.7974
   -761861.81047   -590332.64343  24600787.5594   24600786.1024
      -326.0624
  18533669.50348  14404500.11243  24807116.3794   24807114.1054
     -4901.3124
   1001419.56149    781937.88047  21931170.7464   21931168.3674
      -788.8754
  -3138722.65749  -2442326.18946  23790866.4104   23790862.3674
       -87.6094
  -2544067.72046  -1978105.62942  24603574.7934   24603573.0084
      1741.2974
 04  9  7 22 12 15.0040000  0  8G 3G 8G13G10G23G27G19G28
   4734303.58547   3691227.38944  24249959.4804   24249958.4694
     -2563.5944
  -4631832.40949  -3594121.38047  22461803.3944   22461800.6214
       457.9534
   8894035.43549   6920425.68148  22002495.3944   22002492.5314
     -3260.3914
   -756905.99047   -586470.94743  24601730.3484   24601728.5194
      -335.3124
  18607207.19748  14461802.17543  24821110.2934   24821106.8594
     -4904.3594
   1013270.69749    791172.53947  21933425.9024   21933423.6724
      -791.9534
  -3137352.40249  -2441258.43546  23791127.0194   23791123.5274
       -95.7034
  -2570168.05645  -1998443.46642  24598606.6604   24598607.0784
      1738.0944
 04  9  7 22 12 30.0040000  0  8G 3G 8G13G10G23G27G19G28
   4772833.47648   3721250.68044  24257291.1134   24257290.2934
     -2572.8284
  -4638668.98949  -3599448.56447  22460502.2154   22460499.8634
       454.4384
   8943004.40049   6958583.30348  22011813.8554   22011811.0554
     -3267.9694
   -751799.61148   -582491.95743  24602701.9884   24602700.0594
      -344.7194
  18680801.04548  14519147.96744  24835114.9804   24835111.8324
     -4907.3914
   1025180.56249    800452.96647  21935692.6134   21935689.5514
      -795.2344
  -3135849.14649  -2440087.04446  23791413.2544   23791408.8054
      -103.9374
  -2596206.34845  -2018733.01742  24593651.6214   24593651.1484
      1734.5784
 04  9  7 22 12 45.0040000  0  8G 3G 8G13G10G23G27G19G28
   4811504.97947   3751384.32544  24264650.4264   24264649.5944
     -2582.9534
  -4645450.72849  -3604733.03747  22459211.3794   22459209.1724
       450.2194
   8992090.52949   6996832.21048  22021154.7384   22021152.2234
     -3276.3284
   -746549.85547   -578401.22943  24603701.3164   24603699.6414
      -354.8754
  18754443.51248  14576531.63043  24849128.4104   24849125.7934
     -4911.1414
   1037141.85049    809773.44747  21937968.6764   21937965.5084
      -799.2194
  -3134219.86649  -2438817.45646  23791722.9574   23791719.5004
      -112.8284
  -2622189.80446  -2038979.81542  24588707.8944   24588706.6844
      1730.3284
 04  9  7 22 13  0.0040000  0  8G 3G 8G13G10G23G27G19G28
   4850322.95247   3781632.07144  24272037.6444   24272035.8124
     -2592.1564
  -4652172.36249  -3609970.65547  22457932.9264   22457930.4694
       446.7344
   9041298.71949   7035176.24548  22030518.6444   22030515.4414
     -3283.9534
   -741151.54247   -574194.75143  24604728.8324   24604727.0984
      -364.1874
  18828139.44748  14633956.96344  24863152.5274   24863150.3324
     -4914.2344
   1049159.73549    819138.03548  21940255.7304   21940253.0744
      -802.4374
  -3132459.31449  -2437445.58546  23792057.4804   23792054.3914
      -121.1254
  -2648113.12846  -2059179.73242  24583775.3794   24583773.9184
      1726.7664
 04  9  7 22 13 15.0040000  0  8G 3G 8G13G10G23G27G19G28
   4889282.86247   3811990.44944  24279450.2074   24279449.6414
     -2601.8284
  -4658838.26149  -3615164.84647  22456664.0354   22456661.7934
       442.7504
   9090624.44849   7073611.87148  22039905.1214   22039902.5164
     -3292.0944
   -735608.92248   -569875.80443  24605783.0904   24605781.9304
      -374.0944
  18901884.21548  14691420.36144  24877186.0514   24877183.4064
     -4917.6564
   1061229.77449    828543.27247  21942552.3094   21942549.6524
      -806.1564
  -3130571.69849  -2435974.69146  23792417.0044   23792413.3914
      -129.8124
  -2673980.70146  -2079336.20942  24578852.1684   24578851.1444
      1722.8444
 04  9  7 22 13 30.0040000  0  8G 3G 8G13G10G23G27G19G28
   4928385.01847   3842459.68744  24286891.6374   24286890.3874
     -2610.7974
  -4665447.93249  -3620315.22747  22455406.2854   22455403.9344
       439.4844
   9140067.98449   7112139.29348  22049314.0824   22049311.2114
     -3299.4064
   -729921.51647   -565444.03443  24606864.6764   24606864.1994
      -383.2664
  18975677.86048  14748921.82644  24891227.8554   24891225.5474
     -4920.5624
   1073352.49849    837989.55448  21944859.4264   21944856.7974
      -809.2194
  -3128556.43249  -2434404.32746  23792800.5274   23792797.1764
      -137.7974
  -2699792.05045  -2099448.86742  24573940.3094   24573939.9884
      1719.6414
 04  9  7 22 13 45.0040000  0  8G 3G 8G13G10G23G27G19G28
   4967628.93448   3873039.33344  24294359.4654   24294358.9494
     -2621.0784
  -4672001.79549  -3625422.13547  22454158.9654   22454157.1524
       434.8754
   9189628.85549   7150758.12648  22058745.1294   22058742.1604
     -3308.1414
   -724089.52447   -560899.65343  24607975.8324   24607973.9104
      -393.7974
  19049519.95448  14806461.05544  24905279.8014   24905277.2974
     -4924.5784
   1085527.53149    847476.59047  21947176.3714   21947173.8914
      -813.5314
  -3126413.50449  -2432734.50446  23793208.7384   23793204.3944
      -147.2194
  -2725547.25445  -2119517.79742  24569039.2694   24569038.9264
      1715.0004
 04  9  7 22 14  0.0040000  0  8G 3G 8G13G10G23G27G19G28
   5007012.64448   3903727.94644  24301853.7624   24301853.5594
     -2629.6414
  -4678501.36749  -3630486.71847  22452922.2464   22452920.4654
       432.0944
   9239305.17349   7189466.92848  22068198.4104   22068195.5194
     -3315.0784
   -718114.82547   -556244.01643  24609111.9574   24609110.8164
      -402.5004
  19123408.42648  14864036.41443  24919340.8014   24919337.6764
     -4926.8754
   1097753.10049    857003.00847  21949502.8484   21949500.2194
      -816.1414
  -3124144.66349  -2430966.55346  23793640.4654   23793636.7194
      -154.8754
  -2751248.03046  -2139544.31942  24564149.2854   24564147.5624
      1712.2194
 04  9  7 22 14 15.0040000  0  8G 3G 8G13G10G23G27G19G28
   5046534.15747   3934523.92644  24309374.3094   24309374.0514
     -2639.3914
  -4684948.62449  -3635510.54047  22451695.4654   22451692.7304
       428.0634
   9289094.89349   7228264.08947  22077672.8634   22077670.0124
     -3323.1874
   -711999.23448   -551478.59043  24610275.6374   24610274.7664
      -412.4844
  19197341.11048  14921646.23943  24933409.9804   24933406.6804
     -4930.3594
   1110027.27549    866567.31547  21951838.2624   21951835.3204
      -819.9374
  -3121751.60649  -2429101.80946  23794095.4344   23794091.6174
      -163.6874
  -2776896.04045  -2159529.68542  24559267.3874   24559266.5824
      1708.0784
 04  9  7 22 14 30.0040000  0  8G 3G 8G13G10G23G27G19G28
   5086200.75448   3965432.95144  24316923.3634   24316921.9064
     -2649.3754
  -4691335.95949  -3640487.67248  22450479.9264   22450477.1724
       423.6884
   9339005.53449   7267155.48347  22087170.4734   22087167.5044
     -3331.5624
   -705734.98947   -546597.37743  24611468.1374   24611466.9884
      -422.7194
  19271325.35648  14979296.24843  24947487.2854   24947485.8674
     -4934.0314
   1122357.81249    876175.52447  21954184.6214   21954181.6914
      -824.1094
  -3119226.45449  -2427134.11946  23794576.2624   23794572.6444
      -172.8754
  -2802483.48046  -2179467.88242  24554399.1994   24554398.5744
      1703.6564
 04  9  7 22 14 45.0040000  0  8G 3G 8G13G10G23G27G19G28
   5126009.41148   3996452.68844  24324498.6914   24324497.5314
     -2658.6724
  -4697666.23949  -3645420.34147  22449275.1524   22449272.9414
       420.0314
   9389034.01649   7306138.71148  22096690.7304   22096687.6094
     -3339.1724
   -699324.89748   -541602.48543  24612687.4654   24612686.6174
      -432.2194
  19345358.05248  15036983.98543  24961576.5984   24961574.1524
     -4937.1564
   1134741.81449    885825.40347  21956541.6844   21956538.6644
      -827.4064
  -3116571.82549  -2425065.55746  23795081.3014   23795077.2114
      -181.3754
  -2828013.13646  -2199361.04542  24549541.2934   24549539.7664
      1700.1254
 04  9  7 22 15  0.0040000  0  8G 3G 8G13G10G23G27G19G28
   5165961.97148   4027584.54744  24332101.1054   24332100.0004
     -2668.3124
  -4703937.31549  -3650306.87847  22448081.9574   22448079.9414
       416.0634
   9439182.07649   7345215.09548  22106233.5824   22106230.8484
     -3347.2344
   -692767.04648   -536492.46243  24613935.4804   24613934.2464
      -442.0784
  19419440.77548  15094710.71844  24975673.9654   24975671.8634
     -4940.5164
   1147181.19649    895518.43747  21958908.5044   21958905.7424
      -831.2034
  -3113785.63149  -2422894.48646  23795611.3404   23795607.7894
      -190.1874
  -2853482.87646  -2219207.55142  24544694.6134   24544693.2504
      1696.0474
 04  9  7 22 15 15.0040000  0  8G 3G 8G13G10G23G27G19G28
   5206060.10648   4058829.84744  24339731.5744   24339730.2424
     -2678.0164
  -4710147.48349  -3655145.96848  22446900.0984   22446897.8284
       412.0314
   9489451.48449   7384386.05348  22115799.4414   22115796.6954
     -3355.3594
   -686059.40748   -531265.73543  24615212.1214   24615210.7774
      -452.2034
  19493575.28048  15152477.79243  24989781.3794   24989779.4964
     -4943.9844
   1159677.81349    905256.05448  21961286.5194   21961283.9224
      -834.9534
  -3110865.88249  -2420619.33846  23796167.6134   23796163.0744
      -199.0314
  -2878890.76145  -2239005.82242  24539858.3554   24539858.1134
      1691.6884
 04  9  7 22 15 30.0040000  0  8G 3G 8G13G10G23G27G19G28
   5246299.05648   4090184.87144  24347388.3634   24347387.2894
     -2687.9374
  -4716301.40949  -3659941.21447  22445728.9804   22445726.6414
       407.7664
   9539837.57349   7423647.93248  22125387.7304   22125384.7854
     -3363.5624
   -679206.58448   -525925.86043  24616516.0664   24616514.4614
      -462.2814
  19567756.70147  15210281.40243  25003897.9804   25003895.6254
     -4947.5944
   1172227.12949    915034.76147  21963674.6684   21963672.0044
      -839.0474
  -3107816.95349  -2418243.51346  23796747.0044   23796743.0084
      -208.2344
  -2904241.27246  -2258759.39742  24535034.7854   24535033.7894
      1687.5634
 04  9  7 22 15 45.0040000  0  8G 3G 8G13G10G23G27G19G28
   5286679.11948   4121649.84044  24355072.7694   24355071.0314
     -2696.5314
  -4722398.31349  -3664692.04147  22444568.5434   22444566.3914
       404.6564
   9590340.67949   7463000.98048  22134997.8944   22134995.0434
     -3370.6564
   -672208.03648   -520472.42044  24617848.0354   24617846.5744
      -471.2664
  19641985.22647  15268121.71943  25018022.0664   25018020.4574
     -4949.9374
   1184829.67749    924854.92147  21966072.9494   21966070.3164
      -841.8594
  -3104638.16049  -2415766.50746  23797352.3554   23797347.8364
      -216.1564
  -2929533.74246  -2278467.81942  24530221.9884   24530220.5984
      1684.5784
 04  9  7 22 16  0.0040000  0  8G 3G 8G13G10G23G27G19G28
   5327199.66648   4153224.28544  24362783.8874   24362782.2114
     -2706.0624
  -4728438.54849  -3669398.71347  22443419.5824   22443416.7694
       400.7814
   9640960.06449   7502444.63447  22144630.4184   22144627.7854
     -3378.5314
   -665064.06148   -514905.69943  24619207.5274   24619206.5394
      -481.1094
  19716260.23047  15325998.22343  25032156.6444   25032154.7194
     -4953.2974
   1197485.00049    934716.21347  21968480.9024   21968477.9804
      -845.4694
  -3101329.73449  -2413188.49946  23797981.6214   23797977.7894
      -224.9064
  -2954768.51046  -2298131.20742  24525420.5194   24525418.5514
      1680.4064
 04  9  7 22 16 15.0040000  0  8G 3G 8G13G10G23G27G19G28
   5367858.59748   4184906.57744  24370521.0274   24370519.4064
     -2715.7194
  -4734424.20249  -3674062.84848  22442280.8484   22442278.0704
       396.7344
   9691693.90949   7541977.47347  22154284.6994   22154282.1644
     -3386.5944
   -657776.49148   -509227.06943  24620594.8714   24620593.0274
      -491.0944
  19790579.34647  15383909.17543  25046298.5594   25046297.2194
     -4956.5944
   1210191.15749    944617.11647  21970898.8714   21970896.5624
      -849.2664
  -3097893.41349  -2410510.81746  23798635.3714   23798631.7774
      -233.8594
  -2979947.39946  -2317751.03943  24520628.7854   24520627.4574
      1676.2194
 04  9  7 22 16 30.0040000  0  8G 3G 8G13G10G23G27G19G28
   5408662.14248   4216701.54244  24378285.3244   24378283.8124
     -2725.2504
  -4740348.78949  -3678679.40348  22441153.0194   22441150.7774
       392.7194
   9742548.23549   7581604.20348  22163962.4104   22163959.4264
     -3394.5164
   -650339.05948   -503431.64643  24622009.9734   24622008.2814
      -501.0164
  19864948.79247  15441859.30044  25060451.4344   25060449.2384
     -4959.7814
   1222954.54349    954562.61547  21973327.7464   21973324.9184
      -853.0004
  -3094322.62149  -2407728.36546  23799314.9264   23799310.7894
      -242.7344
  -3005063.84646  -2337322.24942  24515848.3094   24515848.1414
      1672.1094
 04  9  7 22 16 45.0040000  0  8G 3G 8G13G10G23G27G19G28
   5449606.78748   4248606.46444  24386076.6604   24386075.3284
     -2734.0004
  -4746215.64949  -3683250.95348  22440036.8554   22440034.3284
       389.5944
   9793519.60949   7621322.14347  22173661.6764   22173658.9534
     -3401.5944
   -642754.83148   -497521.84543  24623452.9264   24623451.4804
      -510.1564
  19939365.07048  15499845.92443  25074612.8484   25074610.4734
     -4962.2034
   1235771.98649    964550.24647  21975767.0194   21975764.3444
      -855.8754
  -3090620.44749  -2404843.51246  23800019.0594   23800015.4144
      -250.7974
  -3030121.00047  -2356847.21343  24511080.8634   24511079.1024
      1668.8134
 04  9  7 22 17  0.0040000  0  8G 3G 8G13G10G23G27G19G28
   5490689.25648   4280618.79944  24393894.2154   24393893.9734
     -2743.6874
  -4752027.82249  -3687779.91647  22438930.6604   22438928.3754
       385.4534
   9844604.93649   7661128.87948  22183383.1134   22183380.2034
     -3409.7194
   -635026.97048   -491500.13643  24624923.6684   24624921.5984
      -520.2504
  20013824.76248  15557866.41143  25088781.7234   25088780.0354
     -4965.6414
   1248640.30949    974577.51347  21978215.6214   21978212.8164
      -859.8754
  -3086789.92149  -2401858.67346  23800748.5514   23800744.2344
      -259.8444
  -3055121.82547  -2376328.35243  24506322.9884   24506321.8874
      1664.6564
 04  9  7 22 17 15.0040000  0  8G 3G 8G13G10G23G27G19G28
   5531910.10148   4312738.91544  24401738.8944   24401738.2274
     -2752.5944
  -4757784.58549  -3692265.69348  22437835.0664   22437833.0704
       382.0314
   9895804.60249   7701024.70947  22193126.1604   22193123.5004
     -3417.0164
   -627154.71748   -485365.92243  24626421.3244   24626419.3164
      -529.5004
  20088328.44448  15615921.15143  25102959.4734   25102957.0664
     -4968.2504
   1261560.35049    984645.07147  21980674.1524   21980671.4374
      -862.9534
  -3082830.01449  -2398773.00546  23801501.5984   23801497.6524
      -268.2504
  -3080065.34647  -2395764.82543  24501577.0354   24501575.2544
      1661.1254
 04  9  7 22 17 30.0040000  0  8G 3G 8G13G10G23G27G19G28
   5573272.34848   4344969.23744  24409610.0514   24409608.7544
     -2762.4224
  -4763482.76949  -3696705.81548  22436751.0594   22436748.7734
       377.7034
   9947121.62749   7741011.97547  22202891.4654   22202888.5044
     -3425.3444
   -619134.81247   -479116.65143  24627947.2934   24627945.8124
      -539.8124
  20162878.96248  15674012.41143  25117146.1294   25117142.9304
     -4971.7974
   1274535.15549    994755.31747  21983143.1374   21983140.6374
      -867.0944
  -3078737.39549  -2395583.93346  23802280.5354   23802276.3054
      -277.4844
  -3104948.45347  -2415154.22843  24496841.4654   24496839.8674
      1656.5164
 04  9  7 22 17 45.0040000  0  8G 3G 8G13G10G23G27G19G28
   5614777.35148   4377310.78044  24417508.2384   24417507.0514
     -2771.2504
  -4769120.44649  -3701098.80848  22435677.8484   22435675.3754
       374.3444
   9998557.45749   7781091.83547  22212679.4344   22212676.3204
     -3432.5314
   -610965.60348   -472751.02543  24629502.4264   24629500.5274
      -549.0314
  20237477.70248  15732141.22843  25131341.8714   25131338.7234
     -4974.2814
   1287566.53749   1004909.65647  21985622.6914   21985620.2854
      -870.1254
  -3074510.31449  -2392290.08646  23803084.8944   23803081.1214
      -285.8124
  -3129769.37447  -2434495.15943  24492117.5984   24492116.6954
      1653.1254
 04  9  7 22 18  0.0040000  0  8G 3G 8G13G10G23G27G19G28
   5656419.04048   4409758.85944  24425432.3634   24425430.7854
     -2781.1094
  -4774703.57349  -3705449.29048  22434615.5664   22434612.8164
       369.9844
  10050106.19949   7821259.67548  22222488.7234   22222485.9184
     -3440.7974
   -602652.87947   -466273.56344  24631084.0824   24631082.3054
      -559.3444
  20312118.48148  15790302.85043  25145545.4804   25145542.2034
     -4977.8914
   1300648.49149   1015103.38847  21988112.3014   21988109.7934
      -874.2504
  -3070154.40649  -2388895.85145  23803914.1134   23803909.7274
      -295.1254
  -3154533.81646  -2453792.05843  24487405.1764   24487404.2774
      1648.6094
 04  9  7 22 18 15.0040000  0  8G 3G 8G13G10G23G27G19G28
   5698203.40848   4442318.10444  24433383.2694   24433381.9304
     -2789.9224
  -4780226.10649  -3709752.55648  22433564.6684   22433562.0514
       366.5634
  10101773.76749   7861520.11147  22232320.5124   22232317.7974
     -3448.0314
   -594190.57347   -459679.55744  24632694.1684   24632692.3404
      -568.7194
  20386807.03148  15848501.63543  25159758.0664   25159756.1914
     -4980.4064
   1313787.22149   1025341.36247  21990612.5594   21990609.7274
      -877.3914
  -3065663.50248  -2385396.42246  23804768.0594   23804764.5044
      -303.4844
  -3179235.60747  -2473040.14343  24482704.7544   24482704.0554
      1645.0784
 04  9  7 22 18 30.0040000  0  8G 3G 8G13G10G23G27G19G28
   5740127.02248   4474985.82344  24441361.6444   24441360.4534
     -2800.0004
  -4785691.09849  -3714010.97448  22432524.6994   22432522.2854
       361.9384
  10153556.78149   7901870.50147  22242174.6684   22242171.9924
     -3456.5624
   -585581.76247   -452971.38844  24634332.4024   24634331.7504
      -579.3284
  20461540.11648  15906735.13343  25173979.6604   25173976.9924
     -4984.1414
   1326979.57749   1035621.12547  21993122.7694   21993120.5194
      -881.7814
  -3061040.59248  -2381794.14146  23805648.1054   23805644.3834
      -313.1414
  -3203877.62947  -2492241.65143  24478015.5194   24478014.7584
      1640.2504
 04  9  7 22 18 45.0040000  0  8G 3G 8G13G10G23G27G19G28
   5782191.76348   4507763.57244  24449366.0984   24449364.9844
     -2808.7504
  -4791096.51249  -3718222.97448  22431496.0824   22431493.9924
       358.5944
  10205457.19049   7942312.36648  22252051.1524   22252048.4344
     -3463.6874
   -576824.29847   -446147.37143  24635998.9734   24635997.6524
      -588.5004
  20536319.55848  15965004.76143  25188209.3404   25188207.4654
     -4986.5944
   1340227.64249   1045944.29747  21995643.8014   21995640.9924
      -884.7974
  -3056283.37448  -2378087.19446  23806553.2154   23806549.6444
      -321.3754
  -3228457.74047  -2511394.94843  24473338.1374   24473336.8944
      1636.7974
 04  9  7 22 19  0.0040000  0  8G 3G 8G13G10G23G27G19G28
   5824393.98348   4540648.41444  24457396.1054   24457395.7114
     -2817.6874
  -4796445.57349  -3722391.05748  22430477.9104   22430475.7194
       355.0784
  10257471.50349   7982842.98848  22261948.8714   22261945.8794
     -3471.0314
   -567921.62348   -439210.22244  24637692.7074   24637691.9064
      -598.0314
  20611141.49648  16023307.50343  25202447.9024   25202446.3124
     -4989.1414
   1353528.02749   1056308.23847  21998175.0434   21998172.2234
      -888.1254
  -3051395.02748  -2374278.07546  23807483.3014   23807479.2504
      -329.9064
  -3252979.26647  -2530502.57643  24468671.8714   24468670.2194
      1633.1414
 04  9  7 22 19 15.0040000  0  8G 3G 8G13G10G23G27G19G28
   5866735.81648   4573642.04044  24465454.1764   24465452.2194
     -2827.7504
  -4801736.14949  -3726513.57448  22429471.3404   22429469.1604
       350.4224
  10309601.65049   8023463.87948  22271869.0824   22271866.3164
     -3479.4694
   -558871.35747   -432158.07343  24639415.4804   24639413.6054
      -608.5784
  20686007.97848  16081644.93443  25216694.0744   25216692.4224
     -4992.8594
   1366882.91749   1066714.65647  22000716.1444   22000713.9734
      -892.4064
  -3046373.15848  -2370364.90246  23808439.2154   23808435.2624
      -339.5164
  -3277439.83347  -2549562.70243  24464017.4654   24464015.7194
      1628.3754
 04  9  7 22 19 30.0040000  0  8G 3G 8G13G10G23G27G19G28
   5909221.90448   4606748.11044  24473538.3094   24473538.0744
     -2837.4694
  -4806963.26649  -3730586.63748  22428476.4734   22428474.8364
       346.0784
  10361852.30249   8064178.65548  22281812.1684   22281809.1844
     -3487.6094
   -549668.74847   -424987.23044  24641166.6684   24641165.2974
      -618.7814
  20760923.70347  16140020.71943  25230949.2074   25230948.2464
     -4996.2974
   1380297.29649   1077167.41547  22003268.6684   22003266.5084
      -896.5314
  -3041212.81248  -2366343.83646  23809421.3244   23809417.1374
      -348.8594
  -3301834.43547  -2568571.43944  24459374.6134   24459374.0234
      1623.8594
 04  9  7 22 19 45.0040000  0  8G 3G 8G13G10G23G27G19G28
   5951844.46547   4639960.46844  24481649.6844   24481648.4804
     -2845.8914
  -4812134.47049  -3734616.13948  22427492.4574   22427490.8094
       343.0164
  10414215.90549   8104981.45348  22291776.8014   22291773.8634
     -3494.5004
   -540321.20047   -417703.39743  24642944.4734   24642943.5744
      -627.7974
  20835880.89848  16198428.87743  25245214.7234   25245211.6644
     -4998.3594
   1393763.61149   1087660.65647  22005831.4184   22005828.8094
      -899.3444
  -3035921.26448  -2362220.52646  23810428.0744   23810424.6954
      -356.9694
  -3326170.46448  -2587534.51844  24454744.1914   24454743.3634
      1620.5314
 04  9  7 22 20  0.0040000  0  8G 3G 8G13G10G23G27G19G28
   5994603.31847   4673279.02744  24489786.4264   24489785.1524
     -2855.2034
  -4817249.80549  -3738602.09648  22426519.3094   22426516.7194
       339.1094
  10466692.19049   8145872.05147  22301762.4734   22301759.7694
     -3502.1564
   -530828.78347   -410306.70243  24644750.7934   24644749.5864
      -637.7504
  20910879.16248  16256869.03343  25259485.5594   25259484.1604
     -5001.2504
   1407281.80249   1098194.31847  22008403.6214   22008401.0664
      -902.9534
  -3030498.42448  -2357994.91546  23811459.5984   23811455.8674
      -365.9064
  -3350447.78648  -2606451.84544  24450124.1444   24450123.2734
      1616.4534
 04  9  7 22 20 15.0040000  0  8G 3G 8G13G10G23G27G19G28
   6037502.80647   4706707.21244  24497950.3484   24497948.7814
     -2864.9374
  -4822304.50149  -3742540.82048  22425557.0274   22425554.9184
       334.7974
  10519285.56149   8186853.88548  22311770.6604   22311767.9654
     -3510.4224
   -521186.95047   -402793.57843  24646585.9494   24646584.0824
      -647.9694
  20985922.84048  16315344.54343  25273766.9264   25273765.1214
     -5004.7194
   1420856.59449   1108772.07648  22010987.0904   22010984.1684
      -907.1564
  -3024939.60348  -2353663.36046  23812517.9654   23812513.9224
      -375.4064
  -3374661.78948  -2625319.85744  24445515.8554   24445515.1254
      1611.9224
 04  9  7 22 20 30.0040000  0  8G 3G 8G13G10G23G27G19G28
   6080540.06348   4740242.74344  24506140.1684   24506138.5274
     -2873.5004
  -4827301.31649  -3746434.43048  22424606.8164   22424604.3944
       331.4694
  10571993.21149   8227924.76447  22321800.6134   22321797.3244
     -3517.4224
   -511398.24847   -395166.01843  24648448.9184   24648446.7234
      -657.3124
  21061008.99947  16373853.14943  25288054.7544   25288053.4374
     -5006.8594
   1434485.28849   1119391.83747  22013580.5274   22013578.2274
      -910.1414
  -3019247.28448  -2349227.76146  23813600.5824   23813597.0784
      -383.7034
  -3398814.99648  -2644140.48944  24440920.0274   24440918.8364
      1608.4534
 04  9  7 22 20 45.0040000  0  8G 3G 8G13G10G23G27G19G28
   6123713.86948   4773884.67344  24514355.5744   24514354.6994
     -2883.1094
  -4832241.21349  -3750283.69248  22423666.3404   22423664.2344
       327.0004
  10624813.80549   8269083.64547  22331851.9884   22331848.9414
     -3525.4224
   -501463.70747   -387424.82443  24650339.4184   24650337.3984
      -667.5944
  21136136.22247  16432393.79043  25302351.2774   25302349.2464
     -5010.2974
   1448166.85349   1130052.80348  22016183.9024   22016181.5554
      -914.2034
  -3013422.26449  -2344688.77446  23814709.6524   23814705.4024
      -393.0784
  -3422908.33448  -2662914.46844  24436335.1844   24436333.5084
      1603.9064
 04  9  7 22 21  0.0040000  0  8G 3G 8G13G10G23G27G19G28
   6167025.32048   4807633.86344  24522597.6764   24522595.8484
     -2891.8914
  -4837122.92549  -3754087.61048  22422737.3944   22422735.2304
       323.6724
  10677748.64349   8310331.57247  22341925.4574   22341922.0474
     -3532.5314
   -491381.92347   -379568.89343  24652257.6604   24652257.0744
      -676.8444
  21211305.78047  16490967.35843  25316655.5744   25316654.2894
     -5012.6094
   1461902.60749   1140755.99648  22018797.8014   22018795.4574
      -917.4374
  -3007463.03349  -2340045.18846  23815843.5904   23815839.3054
      -401.5474
  -3446940.23248  -2681640.57744  24431762.6054   24431761.1914
      1600.2504
 04  9  7 22 21 15.0040000  0  8G 3G 8G13G10G23G27G19G28
   6210475.26548   4841490.96143  24530865.3944   24530863.9924
     -2901.0624
  -4841945.46849  -3757845.42148  22421819.4264   22421817.0434
       319.7504
  10730798.64549   8351669.21447  22352020.1054   22352016.9774
     -3540.2974
   -481151.87047   -371597.42943  24654204.1134   24654203.6414
      -686.7814
  21286518.33847  16549574.46343  25330968.5984   25330966.6054
     -5015.3754
   1475693.66249   1151502.27847  22021422.3484   22021419.5664
      -921.0474
  -3001368.44049  -2335296.12846  23817003.1134   23816999.4654
      -410.5624
  -3470909.65348  -2700317.98744  24427200.1914   24427199.2584
      1596.0634
 04  9  7 22 21 30.0040000  0  8G 3G 8G13G10G23G27G19G28
   6254057.63148   4875451.22844  24539158.8094   24539157.6564
     -2910.5624
  -4846714.49949  -3761561.54748  22420912.0744   22420910.3324
       315.5314
  10783957.73849   8393091.86447  22362136.2854   22362133.2304
     -3548.2194
   -470779.47447   -363515.01443  24656177.7304   24656176.7694
      -696.8594
  21361767.72848  16608210.26443  25345288.4884   25345285.9574
     -5018.4694
   1489534.14949   1162287.07247  22024056.0044   22024052.9414
      -924.9694
  -2995144.29148  -2330446.13646  23818187.5984   23818183.8444
      -419.8754
  -3494822.33248  -2718951.18844  24422649.9184   24422649.0124
      1591.6094
 04  9  7 22 21 45.0040000  0  8G 3G 8G13G10G23G27G19G28
   6297776.89047   4909518.19044  24547478.5904   24547477.2384
     -2919.2344
  -4851425.28249  -3765232.26348  22420015.9344   22420013.7464
       312.0004
  10837230.31049   8434602.95047  22372273.7074   22372270.9844
     -3555.4374
   -460259.93447   -355317.98243  24658179.6604   24658178.7664
      -706.2974
  21437058.44248  16666878.25143  25359615.7694   25359613.6804
     -5020.9374
   1503428.65049   1173113.97447  22026700.0274   22026697.7074
      -928.2814
  -2988785.73848  -2325491.37846  23819398.0984   23819394.0394
      -428.4694
  -3518673.40948  -2737536.38944  24418111.7854   24418109.7854
      1587.9224
 04  9  7 22 22  0.0040000  0  8G 3G 8G13G10G23G27G19G28
   6341632.20447   4943691.11744  24555823.8554   24555822.1764
     -2928.4844
  -4856078.07749  -3768857.81848  22419130.1294   22419128.1024
       307.9694
  10890615.72749   8476201.95448  22382432.2624   22382429.1994
     -3563.0164
   -449593.84046   -347006.73343  24660209.8794   24660208.4844
      -716.2664
  21512389.65648  16725577.83243  25373950.3874   25373948.3914
     -5023.7504
   1517376.85949   1183982.70047  22029354.0594   22029351.3444
      -931.9374
  -2982293.11348  -2320432.19046  23820633.0434   23820629.2854
      -437.6414
  -3542463.34448  -2756073.96545  24413584.3014   24413582.6724
      1583.6884
 04  9  7 22 22 15.0040000  0  8G 3G 8G13G10G23G27G19G28
   6385623.74647   4977970.28144  24564194.6054   24564193.3284
     -2937.3284
  -4860672.74249  -3772438.06848  22418255.9964   22418254.1844
       304.3134
  10944114.08249   8517888.96647  22392612.8944   22392610.3244
     -3570.3754
   -438780.73447   -338580.93544  24662267.6294   24662266.1444
      -725.8444
  21587761.57047  16784309.12643  25388292.7464   25388291.5274
     -5026.2974
   1531378.98449   1194893.46047  22032018.6764   22032016.2974
      -935.3754
  -2975665.90648  -2315268.09446  23821894.6134   23821890.3204
      -446.3594
  -3566191.72948  -2774563.56445  24409068.9024   24409067.3444
      1579.7194
 04  9  7 22 22 30.0040000  0  8G 3G 8G13G10G23G27G19G28
   6429748.99247   5012353.56344  24572591.6054   24572589.9654
     -2946.1874
  -4865211.62649  -3775974.85048  22417392.3244   22417389.8674
       300.6724
  10997722.97649   8559662.11347  22402814.2234   22402811.5824
     -3577.7034
   -427822.91447   -330042.35943  24664352.8714   24664351.8404
      -735.4534
  21663171.40048  16843069.90343  25402643.7624   25402641.5984
     -5028.5474
   1545432.70349   1205844.39947  22034693.0514   22034690.6484
      -938.6564
  -2968906.26848  -2310000.83446  23823180.5514   23823176.8284
      -455.1094
  -3589860.74348  -2793006.90044  24404565.4104   24404563.6644
      1575.8754
 04  9  7 22 22 45.0040000  0  8G 3G 8G13G10G23G27G19G28
   6474010.26247   5046842.84943  24581014.5124   24581013.3014
     -2955.2344
  -4869692.11349  -3779466.12548  22416539.6684   22416537.6914
       296.7974
  11051444.69349   8601523.17947  22413037.4184   22413034.1374
     -3585.1564
   -416717.87947   -321389.08943  24666466.5744   24666464.8714
      -745.1564
  21738621.56247  16901862.18643  25417001.6914   25416999.6444
     -5031.2664
   1559540.70849   1216837.66247  22037377.8484   22037375.1954
      -942.2814
  -2962011.50848  -2304628.27746  23824492.6374   23824488.5354
      -464.1094
  -3613467.57748  -2811401.79945  24400072.6294   24400071.3914
      1571.7664
 04  9  7 22 23  0.0040000  0  8G 3G 8G13G10G23G27G19G28
   6518410.40347   5081440.36643  24589463.7234   24589462.0434
     -2964.5474
  -4874111.05749  -3782909.45548  22415698.5194   22415696.5984
       292.6414
  11105282.14649   8643474.41747  22423281.9574   22423279.2504
     -3592.9224
   -405462.60347   -312618.74643  24668607.6524   24668605.7304
      -755.2344
  21814114.68647  16960687.90943  25431366.3244   25431365.1254
     -5034.2664
   1573706.06849   1227875.61248  22040073.3794   22040070.4844
      -946.1724
  -2954978.46348  -2299147.96146  23825831.0514   23825826.8404
      -473.4064
  -3637009.13248  -2829745.82445  24395593.0124   24395590.7934
      1567.4064
 04  9  7 22 23 15.0040000  0  8G 3G 8G13G10G23G27G19G28
   6562943.54047   5116141.49744  24597938.0194   24597936.9144
     -2973.1564
  -4878474.22749  -3786309.32148  22414868.3244   22414865.9964
       289.2344
  11159229.53149   8685511.32247  22433548.0664   22433545.1914
     -3599.9374
   -394062.68847   -303735.69943  24670777.1374   24670775.3094
      -764.6724
  21889644.89647  17019542.52943  25445739.6214   25445738.6484
     -5036.4224
   1587923.06649   1238953.78947  22042779.1054   22042776.5084
      -949.3284
  -2947812.62049  -2293564.17746  23827194.7074   23827190.5554
      -481.9374
  -3660491.01848  -2848043.34945  24391124.3324   24391122.5274
      1563.7194
 04  9  7 22 23 30.0040000  0  7G 3G 8G13G10G27G19G28
   6607609.64447   5150946.25843  24606437.7774   24606436.8054
     -2982.7814
  -4882781.25149  -3789665.42748  22414048.4184   22414046.3554
       284.6254
  11213286.95249   8727633.97747  22443834.6994   22443832.3204
     -3608.1094
   -382517.98646   -294739.80443  24672973.6294   24672972.3524
      -775.0004
   1602192.00749   1250072.45147  22045493.9654   22045491.2344
      -953.6094
  -2940513.70548  -2287876.67946  23828584.0044   23828579.7344
      -491.6564
  -3683912.83948  -2866294.08845  24386667.0664   24386666.0394
      1558.8594
 04  9  7 22 23 45.0040000  0  7G 3G 8G13G10G27G19G28
   6652413.99247   5185858.71844  24614963.4574   24614962.6684
     -2991.0314
  -4887026.63049  -3792973.51148  22413240.7624   22413238.8524
       281.5944
  11267459.50149   8769846.33747  22454143.6134   22454140.6054
     -3614.8444
   -370823.01948   -285626.85543  24675199.6444   24675197.3444
      -784.1414
   1616518.28349   1261235.79547  22048220.1914   22048217.6564
      -956.4374
  -2933076.03348  -2282081.08946  23829998.6994   23829994.5274
      -499.8754
  -3707269.00048  -2884493.62345  24382221.9964   24382220.6804
      1555.4534
 04  9  7 22 24  0.0050000  0  7G 3G 8G13G10G27G19G28
   6697354.53647   5220877.32144  24623514.9704   24623514.9584
     -3000.5474
  -4891215.27049  -3796237.37848  22412443.9464   22412441.4424
       277.0944
  11321746.12049   8812147.58247  22464473.9784   22464471.0134
     -3622.7504
   -358981.56048   -276399.74443  24677453.3064   24677451.5564
      -794.5004
   1630898.27749   1272440.98547  22050956.6734   22050954.0954
      -960.5624
  -2925503.64448  -2276180.51246  23831439.6814   23831435.3024
      -509.5314
  -3730565.53148  -2902646.71745  24377789.5634   24377787.7164
      1550.7504
 04  9  7 22 24 15.0050000  0  7G 3G 8G13G10G27G19G28
   6742426.10547   5255997.99744  24632092.1734   24632091.8134
     -3009.3444
  -4895345.79049  -3799455.95248  22411657.8604   22411655.2984
       273.2974
  11376140.22249   8854532.57347  22474825.0484   22474822.2674
     -3630.1414
   -346994.29748   -267059.02043  24679734.4234   24679732.5284
      -804.2344
   1645331.08049   1283687.31747  22053703.2434   22053700.4314
      -964.0784
  -2917796.37748  -2270174.83646  23832906.2674   23832902.1184
      -518.5474
  -3753798.45248  -2920750.24345  24373368.0564   24373366.6144
      1546.5784
 04  9  7 22 24 30.0050000  0  7G 3G 8G13G10G27G19G28
   6787633.96547   5291224.91443  24640695.4784   24640694.0444
     -3018.1094
  -4899415.79549  -3802627.37148  22410883.3924   22410881.3994
       269.6564
  11430647.74849   8897005.97047  22485197.1814   22485194.4034
     -3637.3444
   -334857.90148   -257602.07743  24682043.5484   24682041.2904
      -813.7034
   1659820.12849   1294977.50047  22056460.1814   22056457.1144
      -967.5004
  -2909951.10749  -2264061.60346  23834399.0874   23834395.0134
      -527.2974
  -3776966.51948  -2938803.22145  24368959.5244   24368958.6344
      1542.6724
 04  9  7 22 24 45.0050000  0  7G 3G 8G13G10G27G19G28
   6832978.13647   5326558.02344  24649324.3994   24649323.0244
     -3027.1874
  -4903425.05849  -3805751.47148  22410120.4384   22410117.9664
       265.6094
  11485268.73749   8939567.76347  22495591.4934   22495588.5444
     -3644.9064
   -322572.23648   -248028.84343  24684380.7984   24684379.3764
      -823.7814
   1674365.66349   1306311.68647  22059228.3294   22059225.7784
      -971.2504
  -2901967.60748  -2257840.67846  23835917.9624   23835914.0794
      -536.4534
  -3800069.47448  -2956805.47845  24364563.3534   24364561.6344
      1538.3594
 04  9  7 22 25  0.0050000  0  7G 3G 8G13G10G27G19G28
   6878453.33847   5361993.24144  24657976.6654   24657976.4544
     -3036.1724
  -4907378.55349  -3808832.09948  22409367.7674   22409365.7744
       261.5784
  11539998.01749   8982213.93747  22506005.8604   22506003.3174
     -3652.3594
   -310142.28248   -238343.16843  24686746.5954   24686744.3564
      -833.6254
   1688962.60249   1317685.92247  22062005.9464   22062003.3294
      -974.9534
  -2893850.69849  -2251515.80046  23837463.0634   23837458.7004
      -545.7344
  -3823112.30849  -2974760.89945  24360178.1814   24360176.3494
      1534.0474
 04  9  7 22 25 15.0050000  0  7G 3G 8G13G10G27G19G28
   6924064.11748   5397534.10744  24666656.6034   24666655.8644
     -3045.5944
  -4911271.41449  -3811865.48548  22408627.2514   22408625.0714
       257.1414
  11594840.08449   9024947.99547  22516442.1734   22516439.5794
     -3660.2974
   -297563.37448   -228541.41244  24689140.4784   24689138.7784
      -843.9224
   1703615.65849   1329103.89347  22064794.3294   22064791.2204
      -979.0944
  -2885595.43049  -2245083.11546  23839034.0324   23839030.1534
      -555.3124
  -3846090.26449  -2992665.75845  24355805.3764   24355804.3214
      1529.3134
 04  9  7 22 25 30.0050000  0  7G 3G 8G13G10G27G19G28
   6969809.55948   5433179.89344  24675361.6884   24675361.2314
     -3053.8444
  -4915104.41849  -3814852.23648  22407897.8294   22407895.9194
       253.8754
  11649794.06749   9067769.27047  22526899.6034   22526896.8294
     -3666.9844
   -284836.23848   -218624.16743  24691562.0564   24691561.0324
      -853.0784
   1718324.31149   1340565.18547  22067593.1814   22067590.5404
      -982.0784
  -2877202.50449  -2238543.15346  23840631.2124   23840627.3174
      -563.7504
  -3869003.71849  -3010520.34945  24351445.3924   24351444.1144
      1525.7504
 04  9  7 22 25 45.0050000  0  7G 3G 8G13G10G27G19G28
   7015687.32348   5468928.79344  24684092.1424   24684091.2474
     -3062.5164
  -4918879.64749  -3817793.96048  22407179.4934   22407177.5874
       250.1724
  11704857.59349   9110675.90247  22537377.7984   22537375.5874
     -3674.1724
   -271962.88848   -208592.98443  24694011.8294   24694009.9544
      -862.7504
   1733086.50849   1352068.20147  22070402.1814   22070399.8024
      -985.5624
  -2868673.87449  -2231897.43546  23842253.7744   23842249.8064
      -572.7344
  -3891854.61648  -3028326.20344  24347096.5954   24347095.2784
      1521.6414
 04  9  7 22 26  0.0050000  0  7G 3G 8G13G10G27G19G28
   7061698.56547   5504781.69943  24692846.6104   24692847.3334
     -3071.6254
  -4922595.47149  -3820689.40348  22406472.1494   22406470.2124
       246.0004
  11760031.96649   9153668.89447  22547877.2904   22547874.2474
     -3681.7344
   -258941.91348   -198446.75043  24696488.8534   24696487.8494
      -872.7504
   1747903.73849   1363614.08547  22073222.1654   22073219.7554
      -989.4064
  -2860007.91049  -2225144.72846  23843902.6494   23843899.1614
      -582.0944
  -3914641.56048  -3046082.22044  24342761.2204   24342758.7904
      1517.2344
 04  9  7 22 26 15.0050000  0  7G 3G 8G13G10G27G19G28
   7107846.20548   5540740.86943  24701628.8214   24701628.8804
     -3080.8754
  -4926248.81449  -3823536.15148  22405777.4854   22405775.2084
       241.6724
  11815320.22349   9196750.64047  22558398.2044   22558395.5714
     -3689.5314
   -245770.15148   -188183.06043  24698995.8294   24698995.2984
      -882.9844
   1762778.95849   1375205.17347  22076052.6654   22076050.3804
      -993.4534
  -2851201.36849  -2218282.47146  23845578.9934   23845574.9504
      -591.6094
  -3937361.22248  -3063785.81344  24338437.3764   24338435.3804
      1512.5314
 04  9  7 22 26 30.0050000  0  7G 3G 8G13G10G27G19G28
   7154126.16148   5576803.18344  24710436.3684   24710435.8724
     -3089.2504
  -4929843.60549  -3826337.28548  22405092.9544   22405090.6144
       238.0944
  11870718.19149   9239917.87547  22568940.1494   22568937.4974
     -3696.4374
   -232451.52148   -177804.89543  24701530.7904   24701529.1304
      -892.3284
   1777708.44849   1386838.55047  22078893.6884   22078890.4894
      -996.6564
  -2842257.98348  -2211313.58046  23847280.4074   23847277.0134
      -600.2664
  -3960017.36548  -3081439.88344  24334126.0404   24334124.1144
      1508.7034
 04  9  7 22 26 45.0050000  0  7G 3G 8G13G10G27G19G28
   7200534.49848   5612965.50443  24719267.8604   24719266.2744
     -3098.2034
  -4933383.33849  -3829095.51048  22404419.8604   22404417.2244
       234.1254
  11926222.05349   9283167.61947  22579502.2514   22579499.3884
     -3703.8124
   -218989.65348   -167315.12643  24704091.6494   24704090.3104
      -902.3124
   1792688.50049   1398511.31347  22081744.2284   22081741.3724
     -1000.4224
  -2833181.28348  -2204240.80546  23849008.4624   23849004.0244
      -609.6564
  -3982613.61148  -3099047.32044  24329826.2674   24329824.2594
      1504.3914
 04  9  7 22 27  0.0050000  0  7G 3G 8G13G10G27G19G28
   7247081.43748   5649235.85143  24728125.2744   24728123.4424
     -3108.1414
  -4936857.60249  -3831802.71248  22403758.7284   22403755.9384
       229.0944
  11981842.08749   9326507.88747  22590086.6424   22590083.8534
     -3712.2194
   -205374.13248   -156705.65943  24706683.6734   24706681.8954
      -913.1724
   1807729.65649   1410231.70747  22084606.5794   22084603.9194
     -1005.1874
  -2823960.73149  -2197055.93946  23850762.3294   23850758.3924
      -619.8444
  -4005139.37148  -3116599.81744  24325539.5094   24325537.6144
      1499.0164
 04  9  7 22 27 15.0050000  0  7G 3G 8G13G10G27G19G28
   7293761.97448   5685610.28543  24737008.1104   24737007.0014
     -3116.6874
  -4940270.95649  -3834462.46448  22403108.7674   22403106.2244
       225.2814
  12037573.41349   9369934.88047  22600691.6424   22600688.6884
     -3719.4534
   -191609.73648   -145980.14944  24709302.8604   24709301.8294
      -922.8444
   1822827.29749   1421996.09947  22087479.4314   22087476.6854
     -1008.6874
  -2814600.78049  -2189762.44746  23852543.7284   23852539.6884
      -628.9064
  -4027599.12148  -3134100.89344  24321265.5014   24321264.2354
      1494.7974
 04  9  7 22 27 30.0050000  0  7G 3G 8G13G10G27G19G28
   7340577.44748   5722089.87643  24745916.2824   24745915.3884
     -3124.9374
  -4943621.89449  -3837073.57948  22402471.1654   22402468.6304
       221.8914
  12093417.37349   9413449.63547  22611318.1034   22611315.6224
     -3726.0314
   -177694.83247   -135137.35844  24711950.5564   24711949.4464
      -932.0784
   1837982.97149   1433805.72147  22090363.3604   22090360.7984
     -1011.6564
  -2805099.79648  -2182359.06846  23854351.5954   23854347.7594
      -637.5164
  -4049991.24948  -3151549.26044  24317004.5324   24317002.3024
      1491.1564
 04  9  7 22 27 45.0050000  0  7G 3G 8G13G10G27G19G28
   7387519.61148   5758668.17244  24754849.5714   24754848.2634
     -3133.7664
  -4946918.19249  -3839642.11348  22401843.8294   22401841.6924
       217.8754
  12149365.72549   9457045.74447  22621965.1814   22621962.2474
     -3733.5004
   -163637.53348   -124183.62544  24714625.9074   24714623.8134
      -942.0004
   1853188.63849   1445654.29247  22093257.0954   22093254.7164
     -1015.5004
  -2795465.73748  -2174851.98846  23856184.9934   23856180.6534
      -646.7194
  -4072323.69748  -3168951.12845  24312754.5794   24312752.3254
      1486.7504
 04  9  7 22 28  0.0050000  0  7G 3G 8G13G10G27G19G28
   7434596.56748   5795351.49643  24763807.7284   24763806.7594
     -3143.1254
  -4950151.57849  -3842161.63348  22401228.4934   22401226.1924
       213.3284
  12205426.60749   9500729.52147  22632633.2514   22632630.3764
     -3741.2974
   -149429.50048   -113112.43744  24717329.3214   24717327.2284
      -952.4534
   1868452.68949   1457548.35647  22096161.7594   22096159.0094
     -1019.7344
  -2785690.06748  -2167234.57546  23858044.9154   23858040.9354
      -656.6724
  -4094587.89248  -3186299.79545  24308518.0014   24308515.8924
      1481.7974
 04  9  7 22 28 15.0050000  0  7G 3G 8G13G10G27G19G28
   7481807.51147   5832139.24543  24772791.3604   24772791.0604
     -3151.6724
  -4953322.53549  -3844632.50048  22400625.0014   22400622.6424
       209.5314
  12261599.40149   9544500.52547  22643322.5484   22643320.0754
     -3748.3754
   -135071.36448   -101924.28344  24720061.3844   24720059.5794
      -961.9534
   1883774.56149   1469487.48247  22099077.2984   22099074.4854
     -1023.1094
  -2775773.32348  -2159507.21446  23859932.0174   23859927.6534
      -665.5474
  -4116784.43949  -3203595.77045  24304293.6814   24304292.3374
      1477.7344
 04  9  7 22 28 30.0050000  0  7G 3G 8G13G10G27G19G28
   7529146.21448   5869026.52243  24781800.4854   24781799.5564
     -3159.6874
  -4956437.31949  -3847059.58648  22400032.3214   22400029.9234
       206.2504
  12317877.88749   9588353.87047  22654031.6034   22654028.7744
     -3754.9064
   -120569.09748    -90623.80944  24722821.3064   24722819.9114
      -971.1564
   1899148.32249   1481467.04747  22102002.7204   22102000.0134
     -1026.2504
  -2765721.32449  -2151674.46846  23861845.1884   23861840.9664
      -674.1874
  -4138919.25349  -3220843.62845  24300081.8454   24300080.1104
      1474.0474
 04  9  7 22 28 45.0050000  0  7G 3G 8G13G10G27G19G28
   7576616.74848   5906016.55443  24790834.0324   24790832.7704
     -3169.1874
  -4959491.34849  -3849439.35548  22399450.8994   22399449.0174
       201.4534
  12374265.96249   9632292.60947  22664762.1734   22664759.6224
     -3763.0164
   -105918.36848    -79207.67544  24725609.4854   24725608.2164
      -981.7814
   1914578.24649   1493490.35448  22104939.1884   22104936.3684
     -1030.6724
  -2755529.69748  -2143732.93446  23863784.4154   23863780.3294
      -684.1874
  -4160987.76049  -3238039.82645  24295882.1814   24295879.6424
      1468.9064
 04  9  7 22 29  0.0050000  0  7G 3G 8G13G10G27G19G28
   7624217.56148   5943108.06644  24799892.1734   24799890.2124
     -3177.8594
  -4962486.13149  -3851772.93848  22398881.2124   22398879.5794
       197.5314
  12430762.12749   9676315.57947  22675512.9934   22675510.1424
     -3770.2034
    -91120.65646    -67676.97544  24728425.0484   24728423.7474
      -991.5784
   1930063.07849   1505556.46147  22107885.9314   22107883.0204
     -1034.2664
  -2745199.69448  -2135683.56646  23865749.9234   23865746.0244
      -693.4374
  -4182991.37848  -3255185.46345  24291694.8924   24291692.3374
      1464.6094
 04  9  7 22 29 15.0050000  0  7G 3G 8G13G10G27G19G28
   7671947.59648   5980300.30844  24808975.0954   24808973.3684
     -3186.3444
  -4965422.28549  -3854060.85148  22398322.5634   22398320.1964
       193.8284
  12487365.40449   9720422.01547  22686284.6424   22686281.2984
     -3777.1724
    -76176.76546    -56032.38944  24731267.9154   24731267.2434
     -1001.2034
   1945601.97349   1517664.69748  22110842.6964   22110840.2824
     -1037.7194
  -2734731.95848  -2127526.87646  23867742.4234   23867738.5404
      -702.4534
  -4204930.74149  -3272281.03444  24287520.5174   24287517.8924
      1460.4844
 04  9  7 22 29 30.0050000  0  7G 3G 8G13G10G27G19G28
   7719808.40048   6017594.42844  24818081.8994   24818081.1224
     -3194.9374
  -4968297.78849  -3856301.48848  22397775.2434   22397772.9854
       189.7504
  12544077.55249   9764613.28847  22697076.3604   22697073.4584
     -3784.3284
    -61084.80947    -44272.42743  24734141.0324   24734139.1494
     -1010.9534
   1961197.00349   1529816.66947  22113810.1424   22113807.7904
     -1041.4374
  -2724124.48148  -2119261.29446  23869760.7514   23869756.5094
      -711.6874
  -4226803.68948  -3289324.84844  24283357.5714   24283355.0954
      1456.1564
 04  9  7 22 29 45.0050000  0  7G 3G 8G13G10G27G19G28
   7767799.16948   6054989.82044  24827214.4934   24827213.2284
     -3203.6874
  -4971113.11649  -3858495.24948  22397239.5564   22397237.4544
       185.7344
  12600897.74549   9808888.73947  22707888.9074   22707885.5714
     -3791.5784
    -45845.40347    -32397.57143  24737040.2984   24737039.5284
     -1020.7664
   1976847.46149   1542011.82547  22116788.8134   22116785.8454
     -1045.2034
  -2713377.67948  -2110887.14846  23871805.4784   23871801.2204
      -721.0474
  -4248610.85149  -3306317.41545  24279208.4234   24279205.8684
      1451.6724
 04  9  7 22 30  0.0050000  0  7G 3G 8G13G10G27G19G28
   7815917.25248   6092484.41143  24836371.1344   24836370.3924
     -3211.6414
  -4973870.69649  -3860644.00548  22396715.1494   22396712.5054
       182.4384
  12657823.61549   9853246.54947  22718721.4934   22718718.3644
     -3798.0624
    -30460.93748    -20409.66743  24739968.1034   24739966.2984
     -1029.8754
   1992551.02349   1554248.37647  22119776.6734   22119774.1384
     -1048.1094
  -2702493.79148  -2102406.17346  23873877.3454   23873872.8214
      -729.6564
  -4270354.45749  -3323260.44745  24275070.6184   24275068.2124
      1447.9384
 04  9  7 22 30 15.0050000  0  7G 3G 8G13G10G27G19G28
   7864157.62548   6130074.34043  24845551.0954   24845549.6184
     -3220.0784
  -4976575.34149  -3862751.51248  22396199.9624   22396197.6654
       178.5784
  12714849.89049   9897682.59247  22729573.3534   22729570.0204
     -3804.9694
    -14936.26848     -8312.52944  24742922.7744   24742921.2314
     -1039.5474
   2008303.10549   1566522.72947  22122774.3214   22122771.6304
     -1051.6254
  -2691477.68048  -2093822.17546  23875973.2824   23875969.0954
      -738.7664
  -4292039.22848  -3340157.63844  24270943.6034   24270941.5914
      1443.7974
 04  9  7 22 30 30.0050000  0  7G 3G 8G13G10G27G19G28
   7912529.21748   6167766.47143  24854755.4384   24854754.2354
     -3229.1094
  -4979217.62749  -3864810.43448  22395697.4234   22395695.0444
       174.1094
  12771985.65349   9942203.94447  22740445.7124   22740442.7674
     -3812.6414
       737.79848      3901.02544  24745905.5794   24745904.1264
     -1049.8914
   2024112.70549   1578841.89248  22125782.9074   22125779.9814
     -1055.8914
  -2680319.99848  -2085127.86846  23878096.1424   23878092.6034
      -748.5624
  -4313655.85248  -3357001.71045  24266830.1574   24266828.1304
      1438.8914
 04  9  7 22 30 45.0050000  0  7G 3G 8G13G10G27G19G28
   7961027.34848   6205557.21943  24863984.1964   24863983.3414
     -3237.6874
  -4981802.32549  -3866824.47048  22395205.5634   22395202.9354
       170.1254
  12829226.12549   9986806.90247  22751338.0714   22751335.1574
     -3819.7664
     16556.65547     16227.39744  24748915.4384   24748914.3604
     -1059.7344
   2039975.46849   1591202.48947  22128801.6494   22128799.3374
     -1059.5944
  -2669024.95048  -2076326.51646  23880245.7984   23880241.1654
      -757.8124
  -4335208.72149  -3373796.10745  24262728.3764   24262726.3764
      1434.5164
 04  9  7 22 31  0.0050000  0  7G 3G 8G13G10G27G19G28
   8009653.23048   6243447.52943  24873237.9074   24873236.6034
     -3246.1254
  -4984327.65149  -3868792.26148  22394724.8214   22394722.6494
       166.2664
  12886572.61049  10031492.45947  22762250.9854   22762247.8804
     -3826.8444
     32521.70048     28667.68343  24751953.6884   24751951.8534
     -1069.3914
   2055892.73549   1603605.56347  22131830.3064   22131827.4584
     -1063.1414
  -2657591.20248  -2067417.08246  23882421.1734   23882417.4784
      -767.1254
  -4356696.29249  -3390539.61845  24258640.1814   24258637.7044
      1430.1254
 04  9  7 22 31 15.0050000  0  7G 3G 8G13G10G27G19G28
   8058407.22648   6281437.64043  24882515.7594   24882514.0284
     -3254.5474
  -4986793.19449  -3870713.45348  22394255.9314   22394253.3764
       162.4384
  12944025.42249  10076260.86947  22773184.0174   22773181.0094
     -3833.7814
     48633.53448     41222.35644  24755020.2594   24755017.5674
     -1079.0474
   2071865.27349   1616051.69947  22134869.9384   22134867.1964
     -1066.6724
  -2646018.02448  -2058399.01346  23884623.5874   23884619.3334
      -776.1874
  -4378117.82848  -3407231.67745  24254562.9854   24254561.6614
      1425.9224
 04  9  7 22 31 30.0050000  0  7G 3G 8G13G10G27G19G28
   8107286.59848   6319525.44543  24891816.3994   24891815.5014
     -3263.2504
  -4989201.29849  -3872589.89348  22393797.1884   22393795.2904
       158.0784
  13001581.99849  10121110.13047  22784136.7354   22784133.6264
     -3841.0164
     64889.70948     53889.50444  24758112.7674   24758111.5794
     -1088.9374
   2087890.60349   1628538.97547  22137918.9934   22137916.6184
     -1070.5624
  -2634307.66148  -2049274.04346  23886852.1494   23886847.7674
      -785.7814
  -4399475.63949  -3423874.07645  24250498.8064   24250496.6304
      1421.2664
 04  9  7 22 31 45.0050000  0  7G 3G 8G13G10G27G19G28
   8156293.33848   6357712.51643  24901142.5874   24901140.9274
     -3270.8914
  -4991549.26949  -3874419.46548  22393350.3454   22393347.9424
       155.0944
  13059244.48949  10166041.92947  22795109.0794   22795106.5754
     -3847.1564
     81292.57348     66670.96044  24761235.1654   24761233.2354
     -1097.8914
   2103971.13949   1641069.26547  22140979.1344   22140976.9384
     -1073.3284
  -2622457.62548  -2040040.22346  23889106.9624   23889103.0284
      -794.2194
  -4420767.33748  -3440464.95745  24246447.2904   24246445.9544
      1417.7664
 04  9  7 22 32  0.0050000  0  7G 3G 8G13G10G27G19G28
   8205427.83048   6395999.11043  24910492.2284   24910491.1454
     -3279.8444
  -4993836.68649  -3876201.86648  22392915.2204   22392912.3924
       150.5314
  13117013.39449  10211056.63747  22806102.2674   22806099.9934
     -3854.7974
     97842.66147     79567.13044  24764383.4074   24764382.6064
     -1108.1874
   2120107.65049   1653643.17248  22144049.7984   22144047.0714
     -1077.6254
  -2610467.23048  -2030697.05046  23891388.6034   23891384.2824
      -804.0474
  -4441992.16249  -3457003.73345  24242408.2514   24242406.4544
      1412.7344
 04  9  7 22 32 15.0050000  0  7G 3G 8G13G10G27G19G28
   8254688.00148   6434383.66243  24919866.8454   24919865.4544
     -3288.4374
  -4996065.36849  -3877938.49348  22392491.1494   22392488.8994
       146.4064
  13174886.46149  10256152.51947  22817115.3454   22817112.7864
     -3861.9224
    114537.96647     92576.45944  24767560.5244   24767558.9274
     -1117.9534
   2136298.12749   1666259.12848  22147130.6884   22147128.6814
     -1081.3754
  -2598338.35548  -2021245.97046  23893696.7204   23893692.3764
      -813.3754
  -4463151.91349  -3473491.83545  24238381.9074   24238379.6034
      1408.2504
 04  9  7 22 32 30.0050000  0  7G 3G 8G13G10G27G19G28
   8304075.81748   6472867.66344  24929264.4074   24929264.4784
     -3296.4224
  -4998233.01449  -3879627.57248  22392078.5714   22392076.2244
       142.8284
  13232865.79349  10301331.19347  22828148.6654   22828145.9894
     -3868.5164
    131380.75747    105700.70744  24770766.2204   24770764.3064
     -1127.4844
   2152544.96249   1678919.00347  22150222.6654   22150219.9784
     -1084.7034
  -2586068.59248  -2011685.10346  23896032.2124   23896027.5954
      -822.3594
  -4484244.12749  -3489927.27745  24234368.3764   24234365.6494
      1404.2034
 04  9  7 22 32 45.0050000  0  7G 3G 8G13G10G27G19G28
   8353586.73948   6511447.59243  24938686.1494   24938685.0754
     -3304.9534
  -5000343.83349  -3881272.35148  22391676.5564   22391674.8134
       138.7344
  13290946.88249  10346589.16447  22839200.8214   22839198.5284
     -3875.6414
    148366.71147    118936.52043  24773998.4704   24773996.4664
     -1137.3124
   2168843.80149   1691619.40947  22153324.2824   22153321.4784
     -1088.4844
  -2573662.00048  -2002017.61446  23898391.9784   23898388.3294
      -831.8284
  -4505273.03548  -3506313.40145  24230366.3374   24230364.7394
      1399.6724
 04  9  7 22 33  0.0050000  0  7G 3G 8G13G10G27G19G28
   8403229.07348   6550129.91643  24948132.7984   24948131.9234
     -3313.5004
  -5002389.39249  -3882866.28948  22391287.7514   22391285.5134
       134.5474
  13349138.18849  10391933.01947  22850274.2824   22850271.6224
     -3882.8284
    165504.44148    132290.58643  24777259.0714   24777257.2474
     -1147.2974
   2185203.36149   1704367.11147  22156437.5484   22156434.7634
     -1092.2664
  -2561110.08448  -1992236.89546  23900781.0954   23900776.8994
      -841.2974
  -4526229.93549  -3522643.41245  24226378.1104   24226376.4894
      1395.0314
 04  9  7 22 33 15.0050000  0  7G 3G 8G13G10G27G19G28
   8452991.39548   6588905.75543  24957602.6574   24957601.0324
     -3321.5784
  -5004380.47849  -3884417.77748  22390909.1344   22390906.8644
       130.8914
  13407428.17449  10437353.77047  22861366.5874   22861364.0364
     -3889.3594
    182782.63848    145754.12644  24780546.3994   24780545.6034
     -1156.5474
   2201612.45349   1717153.42147  22159559.7204   22159557.3454
     -1095.6564
  -2548423.91148  -1982351.55046  23903194.8844   23903190.9314
      -850.3124
  -4547125.98049  -3538926.00145  24222402.0174   24222400.2594
      1391.0004
 04  9  7 22 33 30.0050000  0  7G 3G 8G13G10G27G19G28
   8502884.25748   6627783.31443  24967096.5484   24967094.4584
     -3330.4374
  -5006306.33049  -3885918.43048  22390542.4854   22390539.8534
       126.3134
  13465827.61249  10482859.80647  22872479.5174   22872477.0524
     -3896.8594
    200212.15748    159335.55044  24783864.2204   24783862.5834
     -1166.8914
   2218081.98449   1729986.82347  22162694.0244   22162691.1854
     -1099.8914
  -2535592.50948  -1972353.04246  23905637.0244   23905633.2354
      -860.2034
  -4567950.18549  -3555152.60945  24218439.2124   24218437.2474
      1385.9694
 04  9  7 22 33 45.0050000  0  7G 3G 8G13G10G27G19G28
   8552903.26848   6666759.16744  24976614.7434   24976613.6694
     -3338.9534
  -5008171.12149  -3887371.50548  22390187.9784   22390185.5754
       122.0634
  13524332.02348  10528447.64447  22883612.6104   22883609.6964
     -3904.0314
    217788.66448    173031.54544  24787208.6264   24787207.4704
     -1176.8594
   2234607.72549   1742864.03647  22165838.3924   22165836.1694
     -1103.8124
  -2522619.92548  -1962244.52346  23908105.4074   23908101.2594
      -869.7814
  -4588706.72649  -3571326.49245  24214489.0954   24214487.3454
      1381.2814
 04  9  7 22 34  0.0050000  0  7G 3G 8G13G10G27G19G28
   8603047.84948   6705832.85543  24986157.1264   24986156.3174
     -3346.9694
  -5009975.12949  -3888777.22048  22389844.2824   22389841.9034
       118.4694
  13582940.87848  10574116.85847  22894765.5874   22894763.1344
     -3910.5944
    235511.82347    186841.77644  24790581.8064   24790579.6614
     -1186.2974
   2251189.45749   1755784.85947  22168994.0174   22168991.5564
     -1107.1724
  -2509506.45348  -1952026.22946  23910600.5954   23910596.6264
      -878.8124
  -4609395.71249  -3587447.74445  24210552.3134   24210550.4384
      1377.1414
 04  9  7 22 34 15.0050000  0  7G 3G 8G13G10G27G19G28
   8653317.27848   6745003.83143  24995722.4544   24995721.6854
     -3356.0164
  -5011718.84849  -3890135.96348  22389512.5874   22389510.3994
       113.7344
  13641653.68549  10619867.07147  22905938.2904   22905935.3644
     -3918.1564
    253381.17647    200765.95243  24793980.7514   24793980.0604
     -1196.7344
   2267826.79649   1768749.02047  22172160.1424   22172157.1814
     -1111.5624
  -2496252.31948  -1941698.32846  23913122.6654   23913118.6694
      -888.8444
  -4630017.45749  -3603516.60645  24206628.1184   24206626.0404
      1372.0164
 04  9  7 22 34 30.0050000  0  7G 3G 8G13G10G27G19G28
   8703715.21948   6784274.96543  25005313.4234   25005312.1614
     -3364.0004
  -5013398.09149  -3891444.44648  22389193.0794   22389190.9274
       109.9064
  13700474.01549  10665701.08747  22917131.7124   22917128.6734
     -3924.8284
    271400.59448    214807.05943  24797410.7744   24797409.7284
     -1206.2194
   2284523.84349   1781759.71547  22175337.1424   22175334.7474
     -1115.0164
  -2482853.62948  -1931257.76546  23915672.6344   23915668.9234
      -897.9224
  -4650567.85649  -3619529.83645  24202717.4074   24202715.4234
      1367.7194
 04  9  7 22 34 45.0050000  0  7G 3G 8G13G10G27G19G28
   8754236.56648   6823642.22643  25014927.7514   25014925.9464
     -3371.8914
  -5015017.62149  -3892706.41348  22388885.1184   22388882.3134
       106.1884
  13759396.93849  10711615.03547  22928344.3534   22928341.2674
     -3931.3594
    289565.17448    228961.27744  24800866.9934   24800865.1694
     -1215.6414
   2301275.57649   1794813.01947  22178525.0714   22178522.2944
     -1118.3754
  -2469315.00348  -1920708.17746  23918248.9704   23918244.6614
      -907.0314
  -4671051.67349  -3635491.22645  24198819.4074   24198817.1884
      1363.5944
 04  9  7 22 35  0.0050000  0  7G 3G 8G13G10G27G19G28
   8804875.19448   6863100.89143  25024563.4544   25024562.0244
     -3379.9694
  -5016583.51749  -3893926.57048  22388586.8214   22388584.1184
       102.3914
  13818416.25649  10757604.10047  22939574.6734   22939572.6614
     -3937.9374
    307869.02448    243224.00844  24804350.3764   24804348.9974
     -1225.0624
   2318076.38849   1807904.56647  22181722.0244   22181719.2394
     -1121.9064
  -2455642.24748  -1910054.07146  23920850.6574   23920847.1034
      -916.2194
  -4691474.65249  -3651405.19745  24194932.9854   24194930.4074
      1359.3754
 04  9  7 22 35 15.0050000  0  7G 3G 8G13G10G27G19G28
   8855643.74648   6902660.80743  25034224.4234   25034223.5054
     -3388.8594
  -5018082.51349  -3895094.62348  22388301.4624   22388298.8724
        97.7034
  13877544.75949  10803678.23147  22950826.8844   22950824.1964
     -3945.5164
    326324.88948    257605.21044  24807862.5634   24807860.6814
     -1235.4694
   2334939.00949   1821044.27347  22184931.0484   22184928.3564
     -1126.1874
  -2441822.42048  -1899285.35646  23923480.6884   23923476.6104
      -926.1724
  -4711823.90348  -3667261.70745  24191060.5244   24191058.0054
      1354.2194
 04  9  7 22 35 30.0050000  0  7G 3G 8G13G10G27G19G28
   8906536.64248   6942317.59444  25043909.5714   25043908.6854
     -3396.7814
  -5019519.98549  -3896214.72048  22388027.8994   22388025.8884
        94.0164
  13936776.60549  10849832.90447  22962098.9314   22962095.6964
     -3952.0164
    344927.40548    272100.68144  24811402.0404   24811401.7084
     -1244.8124
   2351858.29949   1834228.13647  22188150.5244   22188148.0634
     -1129.6414
  -2427860.68448  -1888406.08146  23926137.7204   23926133.1774
      -935.2664
  -4732104.60949  -3683064.81245  24187201.0014   24187199.3334
      1349.9694
 04  9  7 22 35 45.0050000  0  7G 3G 8G13G10G27G19G28
   8957551.81448   6982069.66943  25053617.4074   25053616.9974
     -3405.5004
  -5020897.68949  -3897288.25048  22387765.7594   22387763.3604
        89.4384
  13996110.06049  10896066.74847  22973389.2354   22973386.2864
     -3959.3284
    363674.86548    286709.07044  24814969.8844   24814968.4314
     -1255.0314
   2368832.37649   1847454.69147  22191380.9384   22191377.8844
     -1133.8444
  -2413758.88348  -1877417.65146  23928820.8214   23928816.3294
      -945.1414
  -4752318.42049  -3698815.79445  24183354.7204   24183353.2594
      1344.9844
 04  9  7 22 36  0.0050000  0  7G 3G 8G13G10G27G19G28
   9008690.54448   7021918.02743  25063348.6104   25063347.7204
     -3413.4374
  -5022214.10449  -3898314.02848  22387515.0094   22387513.1384
        85.7344
  14055546.40848  10942380.76847  22984699.3294   22984697.5134
     -3965.9064
    382568.55848    301431.42544  24818565.3844   24818563.9194
     -1264.4844
   2385862.85249   1860725.19847  22194621.6574   22194618.8024
     -1137.2504
  -2399515.43648  -1866318.85246  23931531.4934   23931527.0634
      -954.2664
  -4772463.75849  -3714513.42246  24179521.7434   24179519.1964
      1340.7194
 04  9  7 22 36 15.0050000  0  7G 3G 8G13G10G27G19G28
   9059951.72748   7061861.77443  25073102.9934   25073102.2984
     -3421.4534
  -5023470.02149  -3899292.65048  22387276.3844   22387274.0794
        81.7344
  14115084.58349  10988774.14347  22996029.3994   22996026.3844
     -3972.5624
    401607.56948    316267.00244  24822189.0564   24822186.3844
     -1274.0784
   2402948.93749   1874039.02447  22197873.0954   22197870.1494
     -1140.8124
  -2385131.10348  -1855110.26446  23934268.7434   23934264.4664
      -963.5624
  -4792541.47449  -3730158.35445  24175701.0954   24175698.1924
      1336.3284
 04  9  7 22 36 30.0050000  0  7G 3G 8G13G10G27G19G28
   9111332.89648   7101899.04243  25082880.6264   25082879.7944
     -3429.2194
  -5024667.48549  -3900225.73248  22387048.3064   22387046.0754
        78.1414
  14174722.26149  11035245.04947  23007378.1424   23007375.0564
     -3978.9064
    420789.81448    331214.22744  24825838.6264   24825836.8534
     -1283.3284
   2420088.59149   1887394.61547  22201134.4704   22201131.7474
     -1144.2034
  -2370607.76048  -1843793.36346  23937031.8534   23937028.0954
      -972.5944
  -4812553.40749  -3745752.01145  24171892.1264   24171890.6774
      1332.2344
 04  9  7 22 36 45.0050000  0  7G 3G 8G13G10G27G19G28
   9162835.87948   7142031.23243  25092681.4544   25092680.8134
     -3437.4374
  -5025804.34049  -3901111.59348  22386831.8844   22386829.7124
        73.9064
  14234461.25649  11081794.90047  23018746.0094   23018743.9424
     -3985.7814
    440117.21648    346274.52043  24829515.5094   24829514.8684
     -1293.0944
   2437283.85649   1900793.51847  22204406.9704   22204404.2284
     -1148.0474
  -2355943.27448  -1832366.47046  23939822.5014   23939818.5134
      -982.2034
  -4832497.39749  -3761292.74145  24168097.9624   24168095.8374
      1327.5314
 04  9  7 22 37  0.0050000  0  7G 3G 8G13G10G27G19G28
   9214460.06148   7182257.87143  25102505.8684   25102503.8764
     -3445.7344
  -5026880.72149  -3901950.32748  22386627.2434   22386624.9464
        69.6564
  14294301.03249  11128423.26947  23030133.4624   23030130.7784
     -3992.7974
    459589.41748    361447.66643  24833221.7434   24833220.7434
     -1303.0624
   2454534.52749   1914235.60447  22207689.1964   22207686.3604
     -1152.0004
  -2341137.98548  -1820829.87546  23942639.9074   23942635.4744
      -991.8284
  -4852373.80449  -3776780.80445  24164315.1424   24164312.5324
      1322.7664
 04  9  7 22 37 15.0050000  0  7G 3G 8G13G10G27G19G28
   9266208.49048   7222581.31743  25112351.4854   25112350.8884
     -3454.0784
  -5027893.34049  -3902739.36948  22386434.1654   22386432.2394
        65.3914
  14354244.62849  11175132.55447  23041540.0404   23041536.9894
     -3999.7344
    479209.68548    376736.17943  24836955.4384   24836954.1384
     -1313.0164
   2471843.96049   1927723.47147  22210983.2984   22210980.5794
     -1156.0314
  -2326188.47248  -1809180.88946  23945485.3374   23945480.9744
     -1001.4224
  -4872179.08249  -3792213.45845  24160546.2354   24160543.8644
      1317.9534
 04  9  7 22 37 30.0050000  0  7G 3G 8G13G10G27G19G28
   9318080.88648   7263001.35243  25122222.9544   25122222.7244
     -3462.2194
  -5028842.10949  -3903478.66148  22386253.7124   22386251.6534
        61.2504
  14414291.86749  11221922.59747  23052966.4784   23052964.5094
     -4006.5624
    498978.02048    392140.07043  24840716.9074   24840715.8254
     -1322.7664
   2489212.09349   1941257.08647  22214288.1104   22214285.3884
     -1159.7974
  -2311094.67248  -1797419.48046  23948356.9464   23948352.8684
     -1010.9844
  -4891913.21649  -3807590.66545  24156790.4784   24156788.2594
      1313.3134
 04  9  7 22 37 45.0050000  0  7G 3G 8G13G10G27G19G28
   9370073.23648   7303514.86443  25132116.7124   25132116.3024
     -3470.3284
  -5029730.96449  -3904171.26848  22386084.9234   22386082.3994
        57.1254
  14474438.73749  11268790.26647  23064411.9854   23064410.0244
     -4013.2664
    518890.47247    407656.25843  24844505.6184   24844504.0054
     -1332.3754
   2506635.40649   1954833.70447  22217603.6734   22217600.7784
     -1163.4694
  -2295860.34048  -1785548.54846  23951256.5794   23951251.9194
     -1020.3444
  -4911579.82349  -3822915.24345  24153048.1884   24153045.7594
      1308.7034
 04  9  7 22 38  0.0050000  0  7G 3G 8G13G10G27G19G28
   9422189.69448   7344125.08943  25142034.4314   25142033.2164
     -3478.5004
  -5030555.37949  -3904813.65848  22385927.7674   22385925.7204
        52.8914
  14534689.50949  11315738.89947  23075877.3764   23075875.2474
     -4020.1094
    538951.39448    423288.14744  24848323.4624   24848323.0134
     -1342.2974
   2524118.17649   1968456.64347  22220930.8534   22220928.1384
     -1167.4694
  -2280480.87049  -1773564.53546  23954182.9624   23954178.5674
     -1030.1094
  -4931174.39749  -3838183.70645  24149319.7594   24149317.5994
      1303.9384
 04  9  7 22 38 15.0050000  0  7G 3G 8G13G10G27G19G28
   9474425.91948   7384828.63543  25151975.0794   25151973.6454
     -3486.2974
  -5031319.24949  -3905408.87548  22385782.4934   22385780.2904
        49.0164
  14595039.85849  11362765.12047  23087361.5954   23087359.3644
     -4026.4844
    559156.66748    439032.49043  24852169.3134   24852167.6424
     -1351.6564
   2541656.40849   1982122.78547  22224268.0324   22224264.9704
     -1170.9064
  -2264960.29748  -1761470.57046  23957136.2044   23957131.8534
     -1039.2974
  -4950700.84849  -3853399.10145  24145603.3134   24145601.3174
      1299.5164
 04  9  7 22 38 30.0050000  0  7G 3G 8G13G10G27G19G28
   9526778.58048   7425622.89343  25161937.2594   25161936.6534
     -3494.0474
  -5032025.50049  -3905959.19148  22385648.2124   22385645.8604
        45.2344
  14655486.60149  11409866.44947  23098864.5714   23098862.2354
     -4032.9844
    579503.25948    454886.98444  24856041.1574   24856039.5634
     -1361.1564
   2559247.32349   1995830.00447  22227615.7044   22227612.7124
     -1174.4224
  -2249301.58948  -1749268.97446  23960116.3764   23960111.7164
     -1048.3914
  -4970162.06449  -3868563.64546  24141900.3994   24141898.2594
      1295.2974
 04  9  7 22 38 45.0050000  0  7G 3G 8G13G10G27G19G28
   9579255.75248   7466514.17943  25171922.5714   25171922.9664
     -3502.9064
  -5032665.40149  -3906457.81648  22385526.0014   22385523.6694
        40.2034
  14716037.83849  11457049.21247  23110387.0874   23110384.3724
     -4040.4534
    599999.39248    470858.01244  24859940.7594   24859939.1574
     -1371.5624
   2576899.21649   2009584.72747  22230974.2904   22230971.8534
     -1179.0784
  -2233496.20648  -1736953.06546  23963123.7434   23963119.3604
     -1058.8124
  -4989549.60149  -3883670.77145  24138211.0484   24138208.8454
      1289.8594
 04  9  7 22 39  0.0050000  0  7G 3G 8G13G10G27G19G28
   9631850.72848   7507497.26843  25181931.9854   25181931.0564
     -3510.0624
  -5033245.67049  -3906909.95948  22385415.6734   22385413.4234
        36.9064
  14776686.94549  11504308.24247  23121928.1574   23121925.8494
     -4046.3594
    620638.59548    486940.49144  24863868.1344   24863867.3374
     -1380.5944
   2594605.71249   2023381.99247  22234343.7284   22234341.1774
     -1182.0314
  -2217550.53548  -1724527.85546  23966157.7984   23966153.3804
     -1067.5474
  -5008869.81449  -3898725.44845  24134533.8994   24134531.7514
      1285.9384
 04  9  7 22 39 15.0050000  0  7G 3G 8G13G10G27G19G28
   9684567.88848   7548575.59143  25191963.3374   25191962.4234
     -3517.7974
  -5033761.95049  -3907312.25448  22385317.7674   22385315.0444
        33.1254
  14837438.25649  11551646.89447  23133488.7354   23133486.1104
     -4052.7034
    641425.19448    503137.83143  24867824.0954   24867822.4074
     -1389.8754
   2612371.22249   2037225.24847  22237724.4464   22237722.0174
     -1185.5474
  -2201460.17248  -1711989.89746  23969219.8604   23969215.4894
     -1076.6724
  -5028118.19249  -3913724.13145  24130870.9624   24130869.1224
      1281.5944
 04  9  7 22 39 30.0050000  0  7G 3G 8G13G10G27G19G28
   9737401.27948   7589744.42943  25202017.9074   25202016.8294
     -3526.2344
  -5034219.49649  -3907668.77848  22385230.6964   22385227.9424
        28.3594
  14898285.80549  11599060.54547  23145067.8294   23145065.3334
     -4059.9064
    662353.51048    519445.59744  24871806.8134   24871805.1104
     -1400.1254
   2630190.34249   2051110.27747  22241115.4154   22241112.6304
     -1189.8754
  -2185230.52848  -1699343.40946  23972308.3134   23972304.1184
     -1086.7034
  -5047300.18849  -3928671.10045  24127221.2674   24127218.8844
      1276.4064
 04  9  7 22 39 45.0050000  0  7G 3G 8G13G10G27G19G28
   9790354.67048   7631006.82644  25212094.5174   25212093.9034
     -3534.0164
  -5034614.22049  -3907976.34348  22385155.6574   22385152.8174
        24.4064
  14959233.52549  11646552.25047  23156665.7124   23156663.2394
     -4066.3444
    683427.54748    535866.91744  24875816.5014   24875814.5834
     -1409.6724
   2648067.06749   2065040.19747  22244517.5094   22244514.6424
     -1193.4534
  -2168857.46448  -1686585.16346  23975424.0484   23975419.7594
     -1096.1094
  -5066411.54149  -3943563.03645  24123584.1104   24123582.1694
      1271.9064
 04  9  7 22 40  0.0050000  0  7G 3G 8G13G10G27G19G28
   9843425.47848   7672360.66843  25222193.3134   25222192.6774
     -3542.2034
  -5034948.22849  -3908236.61348  22385091.8994   22385089.1304
        20.0634
  15020278.89949  11694120.04947  23168282.0874   23168279.6494
     -4073.1094
    704645.05248    552400.04344  24879854.5564   24879853.3764
     -1419.4534
   2665999.27849   2079013.33747  22247929.6034   22247926.6344
     -1197.5164
  -2152343.21448  -1673716.90146  23978567.0634   23978562.4464
     -1105.8124
  -5085454.40249  -3958401.59645  24119960.6104   24119958.1574
      1267.0314
 04  9  7 22 40 15.0050000  0  7G 3G 8G13G10G27G19G28
   9896616.70548   7713808.39143  25232315.3214   25232314.3644
     -3550.0784
  -5035218.17949  -3908446.95948  22385040.5564   22385038.0324
        15.7974
  15081425.06249  11741766.38447  23179917.9384   23179915.6344
     -4079.7194
    726009.25248    569047.45344  24883919.8994   24883918.2634
     -1429.1874
   2683990.46949   2093032.45347  22251353.4384   22251350.5014
     -1201.3754
  -2135684.39848  -1660735.99946  23981736.4704   23981732.1614
     -1115.3914
  -5104425.50649  -3973184.24545  24116350.9074   24116348.1924
      1262.2974
 04  9  7 22 40 30.0050000  0  7G 3G 8G13G10G27G19G28
   9949927.39548   7755349.16243  25242459.7744   25242459.1854
     -3558.3284
  -5035424.94449  -3908608.06748  22385001.3374   22384998.5994
        11.3284
  15142670.90049  11789490.40347  23191572.8684   23191570.2514
     -4086.7344
    747519.25448    585808.48943  24888012.4934   24888011.6734
     -1439.2034
   2702039.71449   2107096.79947  22254787.7824   22254785.1184
     -1205.6564
  -2118881.74848  -1647643.01046  23984934.2594   23984930.0284
     -1125.3284
  -5123325.48548  -3987911.45345  24112754.0794   24112751.7434
      1257.2504
 04  9  7 22 40 45.0050000  0  7G 3G 8G13G10G27G19G28
  10003357.50648   7796983.02343  25252627.3134   25252626.3684
     -3565.8444
  -5035568.11549  -3908719.62648  22384973.7674   22384971.3254
         7.5164
  15204016.52548  11837292.15147  23203246.1654   23203243.7674
     -4092.8754
    769175.25148    602683.28544  24892133.7744   24892132.8564
     -1448.4844
   2720147.46249   2121206.72947  22258233.8134   22258230.8534
     -1209.0314
  -2101934.94748  -1634437.69446  23988159.3064   23988154.9114
     -1134.4694
  -5142153.89049  -4002582.90245  24109170.5404   24109168.4424
      1252.9694
 04  9  7 22 41  0.0050000  0  7G 3G 8G13G10G27G19G28
  10056904.11648   7838707.63143  25262817.1964   25262815.9584
     -3574.0944
  -5035650.17149  -3908783.55148  22384958.7044   22384955.9114
         3.0634
  15265458.99349  11885169.39047  23214938.5634   23214936.2434
     -4099.7344
    790974.49148    619669.70144  24896281.6104   24896281.3064
     -1458.4534
   2738311.07849   2135360.19847  22261690.0094   22261687.5014
     -1213.0944
  -2084846.53348  -1621122.03246  23991411.0874   23991406.5484
     -1144.3124
  -5160913.32949  -4017200.60845  24105600.8534   24105599.0364
      1247.9384
 04  9  7 22 41 15.0050000  0  7G 3G 8G13G10G27G19G28
  10110568.25848   7880523.84544  25273029.5174   25273028.3064
     -3581.6724
  -5035669.81349  -3908798.85548  22384954.5014   22384952.3494
        -1.0164
  15326999.50849  11933123.00647  23226649.3764   23226647.2704
     -4106.1564
    812918.17348    636768.64944  24900458.1344   24900456.7744
     -1467.9374
   2756531.88548   2149558.22747  22265157.4704   22265155.1034
     -1216.8914
  -2067615.08248  -1607694.92246  23994689.1424   23994685.3214
     -1153.6874
  -5179602.39149  -4031763.47145  24102044.4704   24102042.5604
      1243.4064
 04  9  7 22 41 30.0050000  0  7G 3G 8G13G10G27G19G28
  10164350.96648   7922432.42243  25283263.5484   25283262.2204
     -3590.1254
  -5035625.62049  -3908764.42248  22384963.2984   22384960.7594
        -5.7344
  15388639.19549  11981153.89347  23238378.7434   23238376.6034
     -4113.2034
    835007.60348    653981.20444  24904661.3924   24904660.8414
     -1478.1094
   2774811.25149   2163801.88247  22268636.1814   22268633.0094
     -1221.2034
  -2050239.28348  -1594155.32646  23997996.2124   23997991.7044
     -1163.7814
  -5198219.60149  -4046270.35645  24098501.4704   24098500.3564
      1238.1724
 04  9  7 22 41 45.0050000  0  7G 3G 8G13G10G27G19G28
  10218253.08048   7964434.06444  25293521.4624   25293519.7204
     -3597.6094
  -5035516.48349  -3908679.36648  22384983.6964   22384981.2744
        -9.6254
  15450378.93449  12029262.76947  23250127.7044   23250125.0524
     -4119.4844
    857243.76048    671308.08244  24908892.9074   24908891.6494
     -1487.3754
   2793150.43949   2178092.16747  22272125.8994   22272122.5914
     -1224.7504
  -2032717.93348  -1580502.30246  24001330.2984   24001326.3104
     -1173.0314
  -5216763.72449  -4060720.28845  24094972.9314   24094971.0444
      1233.7034
 04  9  7 22 42  0.0050000  0  7G 3G 8G13G10G27G19G28
  10272269.70148   8006524.95843  25303799.7434   25303798.6614
     -3604.9224
  -5035346.88249  -3908547.20248  22385016.1344   22385013.4384
       -13.3594
  15512214.00949  12077445.91747  23261894.8374   23261891.7514
     -4125.5314
    879622.04548    688745.70244  24913152.0484   24913149.8174
     -1496.6874
   2811544.89149   2192425.50847  22275626.2824   22275623.4424
     -1228.1724
  -2015055.58848  -1566739.43246  24004691.5484   24004687.6614
     -1182.1874
  -5235239.22449  -4075116.74245  24091457.2124   24091455.0444
      1229.2974
 04  9  7 22 42 15.0050000  0  7G 3G 8G13G10G27G19G28
  10326400.26848   8048704.60044  25314100.4234   25314099.1494
     -3612.5314
  -5035117.14349  -3908368.17448  22385059.7434   22385057.0134
       -17.4224
  15574143.72849  12125702.82347  23273679.2674   23273676.9274
     -4131.9374
    902141.95048    706293.66144  24917436.6034   24917435.7394
     -1506.1414
   2829994.34849   2206801.71247  22279136.9154   22279134.3174
     -1231.8444
  -1997252.49248  -1552866.87346  24008078.8604   24008074.8454
     -1191.5624
  -5253646.45849  -4089460.00145  24087954.3134   24087952.4384
      1224.7194
 04  9  7 22 42 30.0060000  0  7G 3G 8G13G10G27G19G28
  10380649.89448   8090977.02643  25324424.1154   25324422.9554
     -3620.2814
  -5034825.33749  -3908140.79348  22385115.2874   22385112.6974
       -21.5474
  15636173.71249  12174037.85247  23285483.2174   23285480.7914
     -4138.3284
    924806.62848    723954.45244  24921750.1074   24921748.0494
     -1515.6724
   2848501.82749   2221223.12247  22282658.9364   22282655.8774
     -1235.7664
  -1979305.65548  -1538882.31146  24011494.0214   24011489.7564
     -1201.2194
  -5271984.74749  -4103749.53446  24084464.7644   24084462.4904
      1220.0634
 04  9  7 22 42 45.0060000  0  7G 3G 8G13G10G27G19G28
  10435011.55948   8133336.75843  25334769.4594   25334767.3814
     -3627.7814
  -5034470.94449  -3907864.63648  22385183.1934   22385180.0334
       -25.4534
  15698295.94649  12222444.76647  23297305.1074   23297302.4244
     -4144.4534
    947613.58248    741726.09944  24926089.7954   24926088.4984
     -1525.0624
   2867065.40149   2235688.23447  22286191.2954   22286188.4634
     -1239.2664
  -1961216.92848  -1524787.18546  24014936.7794   24014932.4324
     -1210.4844
  -5290251.07549  -4117983.00046  24080988.6864   24080986.9044
      1215.5944
 04  9  7 22 43  0.0060000  0  7G 3G 8G13G10G27G19G28
  10489485.62048   8175784.07543  25345135.0534   25345133.6784
     -3635.9224
  -5034056.72849  -3907541.86448  22385261.1934   22385259.0684
       -30.2034
  15760511.41349  12270924.31947  23309144.1314   23309141.5184
     -4151.3124
    970561.15348    759607.31344  24930456.4364   24930455.5844
     -1535.0784
   2885683.45749   2250195.81847  22289734.3034   22289731.5574
     -1243.5624
  -1942988.09748  -1510582.90546  24018405.5294   24018401.3304
     -1220.4534
  -5308449.49149  -4132163.55945  24077525.4204   24077523.4864
      1210.3284
 04  9  7 22 43 15.0060000  0  7G 3G 8G13G10G27G19G28
  10544077.97148   8218323.55343  25355523.1234   25355522.1744
     -3643.0164
  -5033576.46649  -3907167.61748  22385353.1624   22385350.2994
       -33.8594
  15822826.08749  12319481.19247  23321002.3034   23320998.8854
     -4157.2814
    993655.44148    777602.88044  24934850.8814   24934849.8894
     -1544.1874
   2904362.14049   2264750.64047  22293288.6234   22293285.7954
     -1246.8914
  -1924612.82949  -1496264.49646  24021901.7324   24021897.7134
     -1229.5474
  -5326573.67449  -4146286.25345  24074076.5214   24074073.9714
      1206.1254
 04  9  7 22 43 30.0060000  0  7G 3G 8G13G10G27G19G28
  10598783.14948   8260950.94043  25365932.9754   25365932.3184
     -3650.9534
  -5033035.01349  -3906745.70948  22385455.7564   22385453.4554
       -38.3444
  15885234.70949  12368111.26246  23332877.8574   23332875.3534
     -4163.8444
   1016891.25348    795708.66944  24939273.2794   24939272.1004
     -1553.8754
   2923096.48749   2279348.83147  22296853.9514   22296851.0964
     -1250.9374
  -1906096.19649  -1481835.93546  24025425.6074   24025421.4634
     -1239.2814
  -5344628.70349  -4160355.07945  24070641.1154   24070638.6354
      1201.2504
 04  9  7 22 43 45.0060000  0  7G 3G 8G13G10G27G19G28
  10653600.13148   8303665.46243  25376364.8654   25376363.7754
     -3657.9694
  -5032433.46049  -3906276.96348  22385570.4984   22385567.8224
       -41.8754
  15947736.34749  12416813.81446  23344771.5844   23344769.1934
     -4169.5944
   1040267.67148    813924.06744  24943721.7954   24943719.9364
     -1562.9064
   2941885.83449   2293989.87547  22300429.2014   22300426.5214
     -1254.2814
  -1887438.86649  -1467297.75346  24028975.6704   24028971.6034
     -1248.2974
  -5362615.09349  -4174370.43245  24067218.3574   24067215.8574
      1197.0474
 04  9  7 22 44  0.0060000  0  7G 3G 8G13G10G27G19G28
  10708529.75548   8346467.76443  25386816.7874   25386816.0804
     -3665.8284
  -5031770.39249  -3905760.28048  22385696.6074   22385693.7914
       -46.3754
  16010331.71849  12465589.41246  23356683.4204   23356680.5064
     -4176.2814
   1063785.83648    832249.89944  24948196.6074   24948194.7404
     -1572.6414
   2960731.29949   2308674.66247  22304015.3034   22304012.4244
     -1258.3444
  -1868639.73849  -1452649.08846  24032553.2174   24032549.2214
     -1258.1414
  -5380531.84649  -4188331.50246  24063808.4364   24063805.9824
      1192.0314
 04  9  7 22 44 15.0060000  0  7G 3G 8G13G10G27G19G28
  10763573.89048   8389359.28643  25397291.8344   25397290.6464
     -3673.3284
  -5031043.56649  -3905193.90748  22385834.8424   22385832.6034
       -50.4374
  16073022.67949  12514439.49346  23368613.0924   23368610.6004
     -4182.4844
   1087447.73148    850687.74444  24952699.5294   24952698.0724
     -1582.2034
   2979635.07549   2323404.86947  22307612.8424   22307609.9324
     -1262.0474
  -1849696.71049  -1437888.26646  24036158.3734   24036153.9204
     -1267.6094
  -5398376.62749  -4202236.48846  24060413.1464   24060410.8694
      1187.2814
 04  9  7 22 44 30.0060000  0  7G 3G 8G13G10G27G19G28
  10818727.64748   8432336.22943  25407787.9674   25407786.3734
     -3680.5944
  -5030257.61149  -3904581.47248  22385984.4364   22385981.8734
       -54.3914
  16135804.62549  12563360.46246  23380560.2404   23380557.1504
     -4188.5004
   1111248.69848    869233.93144  24957228.1704   24957226.5454
     -1591.3444
   2998592.63049   2338176.99247  22311219.9364   22311217.7174
     -1265.6414
  -1830614.15549  -1423018.74046  24039789.7794   24039785.3424
     -1276.8444
  -5416153.91349  -4216088.87746  24057029.8814   24057028.1004
      1182.9384
 04  9  7 22 44 45.0060000  0  7G 3G 8G13G10G27G19G28
  10873996.50848   8475402.87543  25418304.5924   25418304.2094
     -3688.3444
  -5029406.61049  -3903918.35148  22386146.3264   22386143.9594
       -58.8284
  16198683.01649  12612356.58446  23392525.7794   23392522.9084
     -4195.0624
   1135194.35348    887892.87944  24961785.2484   24961783.7914
     -1601.1254
   3017609.78949   2352995.55647  22314839.0844   22314836.4004
     -1269.7194
  -1811386.36849  -1408036.03646  24043448.0614   24043443.8424
     -1286.6724
  -5433857.80749  -4229884.07646  24053660.7714   24053658.6154
      1177.8444
 04  9  7 22 45  0.0060000  0  7G 3G 8G13G10G27G19G28
  10929374.67547   8518554.67043  25428841.6544   25428842.1504
     -3695.8124
  -5028496.21449  -3903208.94448  22386319.5614   22386317.4904
       -63.0164
  16261651.97749  12661423.28546  23404508.0144   23404505.8734
     -4201.2194
   1159278.98848    906660.11544  24966368.5614   24966366.9754
     -1610.6254
   3036681.01749   2367856.25447  22318468.3654   22318465.0454
     -1273.5164
  -1792018.97249  -1392944.55446  24047133.4594   24047129.3814
     -1296.1724
  -5451493.95249  -4243626.49346  24050305.4124   24050302.7794
      1173.1724
 04  9  7 22 45 15.0060000  0  7G 3G 8G13G10G27G19G28
  10984867.17747   8561795.55643  25439402.0614   25439402.2254
     -3703.2194
  -5027520.86449  -3902448.92148  22386505.1784   22386503.0144
       -67.0944
  16324716.74749  12710564.65246  23416509.1154   23416506.5024
     -4207.4224
   1183507.95848    925539.82244  24970979.1314   24970977.8384
     -1619.9534
   3055811.90649   2382763.44947  22322108.6394   22322105.8534
     -1277.2344
  -1772506.30849  -1377739.86446  24050847.2014   24050842.8614
     -1305.6254
  -5469056.58549  -4257311.62045  24046962.5374   24046960.6314
      1168.5004
 04  9  7 22 45 30.0060000  0  7G 3G 8G13G10G27G19G28
  11040472.18848   8605124.12243  25449984.2794   25449983.5764
     -3710.8914
  -5026482.01649  -3901639.42748  22386703.1074   22386700.5024
       -71.5314
  16387875.49849  12759779.22846  23428527.7014   23428524.9904
     -4213.9064
   1207879.46548    944530.59444  24975616.7254   24975615.6354
     -1629.7344
   3075000.84149   2397715.85447  22325759.9904   22325756.8934
     -1281.4064
  -1752850.00549  -1362423.26346  24054587.5294   24054583.0924
     -1315.4064
  -5486547.40249  -4270940.80545  24043634.4204   24043631.7484
      1163.4694
 04  9  7 22 45 45.0060000  0  7G 3G 8G13G10G27G19G28
  11096190.88447   8648541.27643  25460585.5534   25460585.5064
     -3718.8594
  -5025378.23549  -3900779.32348  22386912.8964   22386911.0574
       -76.2034
  16451129.39449  12809067.96546  23440564.6154   23440561.9514
     -4220.5004
   1232394.84648    963633.50544  24980282.2174   24980280.8424
     -1639.4844
   3094249.20249   2412714.58247  22329422.8034   22329420.0924
     -1285.6254
  -1733048.75949  -1346993.71046  24058355.5454   24058350.9324
     -1325.3124
  -5503964.92149  -4284512.85646  24040320.2794   24040317.7174
      1158.3284
 04  9  7 22 46  0.0060000  0  7G 3G 8G13G10G27G19G28
  11152019.72447   8692044.26043  25471210.2404   25471209.6004
     -3725.6874
  -5024212.62449  -3899871.05248  22387134.4984   22387132.1744
       -79.9224
  16514475.08649  12858428.22246  23452618.5614   23452616.5374
     -4226.2504
   1257050.94648    982846.03244  24984973.8574   24984972.7324
     -1648.6414
   3113554.08249   2427757.34847  22333096.2324   22333093.3694
     -1289.0624
  -1713105.63149  -1331453.59946  24062150.3574   24062146.3504
     -1334.4534
  -5521312.04149  -4298030.03046  24037018.9754   24037016.6464
      1153.9384
 04  9  7 22 46 15.0060000  0  7G 3G 8G13G10G27G19G28
  11207955.77547   8735630.74743  25481854.8504   25481854.3934
     -3732.4064
  -5022987.67249  -3898916.53948  22387367.8734   22387365.6194
       -83.3754
  16577909.56448  12907857.65546  23464690.0764   23464687.8854
     -4231.6724
   1281844.75348   1002165.86744  24989691.9754   24989690.8144
     -1657.2814
   3132912.60149   2442841.89647  22336780.2174   22336777.9904
     -1292.0164
  -1693023.22449  -1315804.96146  24065971.9364   24065967.6354
     -1343.1874
  -5538591.36649  -4311494.41846  24033730.6074   24033728.0964
      1149.9064
 04  9  7 22 46 30.0060000  0  7G 3G 8G13G10G27G19G28
  11264001.10047   8779302.44443  25492520.5534   25492519.3144
     -3739.8754
  -5021700.98549  -3897913.92648  22387612.8424   22387610.4284
       -87.7814
  16641434.92448  12957357.90346  23476778.2484   23476775.6664
     -4237.9534
   1306778.53248   1021594.76743  24994437.2954   24994434.9474
     -1666.8284
   3152327.40849   2457970.31847  22340474.9364   22340472.1394
     -1296.0784
  -1672799.15749  -1300045.94446  24069820.9044   24069816.3534
     -1352.9374
  -5555800.62549  -4324904.19046  24030455.9754   24030453.5294
      1145.0634
 04  9  7 22 46 45.0060000  0  7G 3G 8G13G10G27G19G28
  11320156.12347   8823059.57243  25503205.7324   25503205.4044
     -3747.7814
  -5020351.81049  -3896862.61848  22387869.2794   22387866.7174
       -92.6094
  16705051.70349  13006929.40346  23488884.3114   23488881.8854
     -4244.6414
   1331852.90648   1041133.24044  24999208.1004   24999206.0454
     -1676.8284
   3171799.12448   2473143.08447  22344180.0214   22344177.4754
     -1300.5314
  -1652432.74548  -1284176.00046  24073696.3114   24073691.6314
     -1363.0164
  -5572938.97649  -4338258.71945  24027194.7174   24027192.1004
      1139.6724
 04  9  7 22 47  0.0060000  0  7G 3G 8G13G10G27G19G28
  11376425.09047   8866905.49543  25513913.5374   25513913.3654
     -3754.7974
  -5018935.59449  -3895759.06248  22388139.3034   22388136.7444
       -96.4064
  16768764.29949  13056575.56246  23501008.3264   23501005.9754
     -4250.4534
   1357072.46448   1060784.83344  25004007.7324   25004005.7174
     -1685.9064
   3191332.47849   2488363.88048  22347897.2014   22347894.7684
     -1304.0944
  -1631919.26448  -1268191.46346  24077599.9434   24077595.4674
     -1372.2504
  -5590001.63549  -4351554.26246  24023947.3184   24023945.1704
      1135.2034
 04  9  7 22 47 15.0060000  0  7G 3G 8G13G10G27G19G28
  11432802.45547   8910835.89942  25524642.1074   25524641.2754
     -3762.5474
  -5017457.13049  -3894607.01448  22388420.3114   22388417.7254
      -101.0624
  16832567.25349  13106292.12246  23513149.7094   23513146.9754
     -4256.9694
   1382431.85548   1080545.38444  25008833.2094   25008831.7714
     -1695.7034
   3210922.47248   2503628.80147  22351625.0614   22351622.3034
     -1308.3444
  -1611263.85448  -1252096.34046  24081530.3654   24081525.7754
     -1382.2194
  -5606993.66449  -4364794.78046  24020714.6624   24020711.0144
      1130.0164
 04  9  7 22 47 30.0060000  0  7G 3G 8G13G10G27G19G28
  11489290.91647   8954852.89143  25535391.9594   25535390.8074
     -3768.9224
  -5015913.64649  -3893404.27848  22388713.9594   22388711.6544
      -104.4534
  16896463.19448  13156081.15446  23525309.1864   23525306.5724
     -4262.2034
   1407933.81548   1100417.04344  25013685.8184   25013685.0684
     -1704.2344
   3230571.90548   2518940.06947  22355364.2954   22355361.4864
     -1311.3594
  -1590463.68949  -1235888.40146  24085488.3504   24085484.0924
     -1390.8914
  -5623912.13349  -4377977.95446  24017494.7324   24017492.3654
      1126.0634
 04  9  7 22 47 45.0060000  0  7G 3G 8G13G10G27G19G28
  11545883.61247   8998951.08342  25546161.0684   25546159.6354
     -3776.3444
  -5014311.73949  -3892156.04448  22389018.7484   22389016.4904
      -108.7664
  16960445.28649  13205937.30547  23537484.4984   23537481.9474
     -4268.4844
   1433571.63248   1120394.54844  25018564.9674   25018563.2604
     -1713.7504
   3250274.28449   2534292.56447  22359113.4204   22359110.6824
     -1315.2814
  -1569525.29749  -1219572.76846  24089472.8034   24089469.1314
     -1400.5164
  -5640763.61249  -4391108.93546  24014287.6704   24014285.4514
      1121.1564
 04  9  7 22 48  0.0060000  0  7G 3G 8G13G10G27G19G28
  11602587.00047   9043135.51643  25556950.3504   25556949.7054
     -3784.4844
  -5012644.32249  -3890856.75348  22389336.0684   22389333.7014
      -113.9374
  17024520.16149  13255865.74846  23549677.1234   23549675.2834
     -4275.3444
   1459352.00548   1140483.12744  25023470.4364   25023469.1234
     -1723.9844
   3270036.48349   2549691.66347  22362874.2254   22362870.9514
     -1320.0474
  -1548441.90449  -1203144.15246  24093485.2404   24093481.0374
     -1410.9694
  -5657541.12849  -4404182.28946  24011095.2794   24011093.3424
      1115.5314
 04  9  7 22 48 15.0060000  0  7G 3G 8G13G10G27G19G28
  11659401.68047   9087406.69443  25567761.7564   25567761.7714
     -3791.3124
  -5010910.54449  -3889505.75148  22389665.9904   22389663.7054
      -117.7664
  17088688.37549  13305866.92346  23561887.8574   23561886.0644
     -4280.8754
   1485275.67048   1160683.37544  25028403.4044   25028401.9474
     -1732.9374
   3289859.45849   2565138.13347  22366646.2874   22366643.5644
     -1323.5164
  -1527212.58449  -1186601.81746  24097524.3734   24097520.6394
     -1420.1254
  -5674243.74349  -4417197.27446  24007917.3114   24007914.2604
      1111.0314
 04  9  7 22 48 30.0060000  0  7G 3G 8G13G10G27G19G28
  11716321.52848   9131759.79343  25578594.0144   25578593.2954
     -3798.1874
  -5009116.26849  -3888107.60848  22390007.2254   22390005.0064
      -121.6874
  17152943.83749  13355936.09646  23574115.5214   23574113.6274
     -4286.6254
   1511336.59248   1180990.58344  25033362.9984   25033361.5024
     -1741.9844
   3309737.33949   2580627.39747  22370428.7174   22370426.0684
     -1327.0474
  -1505843.22949  -1169950.36246  24101590.7484   24101587.0374
     -1429.3124
  -5690877.33749  -4430158.49246  24004751.9284   24004748.7684
      1106.5314
 04  9  7 22 48 45.0060000  0  7G 3G 8G13G10G27G19G28
  11773350.85547   9176198.23943  25589446.2874   25589446.1234
     -3805.4064
  -5007256.57449  -3886658.48248  22390361.5534   22390359.0884
      -125.9374
  17217291.11748  13406076.80946  23586360.3654   23586358.3074
     -4292.7194
   1537539.31648   1201408.30344  25038349.5064   25038348.2834
     -1751.3594
   3329674.97548   2596163.22447  22374222.6934   22374220.3464
     -1331.0314
  -1484329.04049  -1153186.04546  24105684.6934   24105680.7404
     -1439.0164
  -5707436.98349  -4443062.08046  24001600.2954   24001597.4674
      1101.7194
 04  9  7 22 49  0.0060000  0  7G 3G 8G13G10G27G19G28
  11830486.78547   9220719.74043  25600318.9904   25600317.7524
     -3812.7974
  -5005334.21649  -3885160.53848  22390727.5684   22390724.7174
      -130.4844
  17281727.36949  13456286.84946  23598622.4044   23598620.0494
     -4298.8914
   1563881.24448   1221934.45244  25043362.4514   25043361.0924
     -1760.8444
   3349669.84149   2611743.63447  22378027.9284   22378024.8774
     -1335.1254
  -1462672.63549  -1136310.92446  24109806.0844   24109802.1004
     -1448.7034
  -5723925.12549  -4455909.94946  23998462.6864   23998460.1504
      1096.6414
 04  9  7 22 49 15.0060000  0  7G 3G 8G13G10G27G19G28
  11887732.01248   9265326.38543  25611212.8654   25611211.3934
     -3820.3914
  -5003345.82449  -3883611.14348  22391105.5534   22391102.8464
      -135.1874
  17346255.18149  13506568.23046  23610901.5064   23610899.0144
     -4305.3124
   1590365.21548   1242571.29743  25048401.5064   25048399.6314
     -1770.7344
   3369724.94049   2627370.98547  22381844.0294   22381841.4904
     -1339.5004
  -1440870.97649  -1119322.60046  24113955.3184   24113950.9674
     -1458.6414
  -5740338.79349  -4468699.79546  23995339.1624   23995336.8814
      1091.3914
 04  9  7 22 49 30.0060000  0  7G 3G 8G13G10G27G19G28
  11945081.46048   9310014.24143  25622125.2714   25622124.8504
     -3826.4844
  -5001296.33849  -3882014.12548  22391495.8034   22391493.1584
      -138.4694
  17410869.66349  13556917.16146  23623197.3424   23623195.2644
     -4310.3124
   1616986.28248   1263314.98644  25053467.2484   25053466.1154
     -1779.0944
   3389835.66149   2643041.68347  22385671.2014   22385668.3734
     -1342.3754
  -1418928.87349  -1102224.84446  24118130.0764   24118126.3814
     -1467.2814
  -5756682.64649  -4481435.22046  23992228.6624   23992226.9044
      1087.5314
 04  9  7 22 49 45.0060000  0  7G 3G 8G13G10G27G19G28
  12002540.22348   9354787.30043  25633060.3814   25633058.6744
     -3834.0164
  -4999180.34749  -3880365.29348  22391897.9904   22391895.7834
      -143.0164
  17475575.84548  13607337.52946  23635510.3264   23635508.1394
     -4316.5314
   1643749.55648   1284169.48243  25058559.8114   25058558.5844
     -1788.7194
   3410007.16249   2658759.73547  22389509.9594   22389506.8034
     -1346.5784
  -1396841.03849  -1085013.53746  24122333.6074   24122329.6434
     -1477.0624
  -5772951.27549  -4494112.04246  23989133.4124   23989130.7254
      1082.3134
 04  9  7 22 50  0.0060000  0  7G 3G 8G13G10G27G19G28
  12060100.55148   9399639.50143  25644012.4044   25644012.0534
     -3840.8284
  -4997004.91149  -3878670.14348  22392312.1934   22392309.9284
      -147.0784
  17540366.18649  13657823.49446  23647839.4514   23647837.6194
     -4322.2814
   1670647.62147   1305128.99644  25063678.3264   25063677.2564
     -1797.8444
   3430232.30549   2674519.59048  22393358.1544   22393355.3534
     -1350.2194
  -1374614.69349  -1067694.29446  24126562.8964   24126558.6894
     -1486.4844
  -5789151.90149  -4506735.86446  23986050.1864   23986047.7524
      1077.7034
 04  9  7 22 50 15.0060000  0  7G 3G 8G13G10G27G19G28
  12117767.59947   9444574.83043  25654986.9044   25654985.8534
     -3847.9224
  -4994764.58049  -3876924.43048  22392738.8424   22392735.8694
      -151.5004
  17605245.85749  13708379.05246  23660185.4284   23660182.9904
     -4328.2814
   1697685.88847   1326197.75044  25068824.4434   25068822.7254
     -1807.2814
   3450516.66449   2690325.57647  22397218.3184   22397215.8184
     -1354.2974
  -1352244.34549  -1050262.84746  24130820.1234   24130815.8184
     -1496.2034
  -5805278.96849  -4519302.38946  23982981.9044   23982979.3224
      1072.6884
 04  9  7 22 50 30.0060000  0  7G 3G 8G13G10G27G19G28
  12175536.82647   9489589.79443  25665980.5214   25665978.8654
     -3855.1254
  -4992463.69449  -3875131.52548  22393176.3264   22393173.8614
      -155.8754
  17670210.31249  13759000.68146  23672548.1004   23672545.6894
     -4334.2344
   1724859.77047   1347372.17943  25073994.4124   25073993.7014
     -1816.5474
   3470856.01449   2706174.41747  22401088.9434   22401086.3114
     -1358.2504
  -1329734.39749  -1032722.62246  24135103.5454   24135099.0884
     -1505.8444
  -5821336.91449  -4531815.04346  23979925.5684   23979923.1934
      1067.7664
 04  9  7 22 50 45.0060000  0  7G 3G 8G13G10G27G19G28
  12233414.62748   9534689.38043  25676994.0764   25676992.5214
     -3862.0784
  -4990095.37449  -3873286.07248  22393626.9514   22393624.3464
      -160.0004
  17735265.95848  13809693.35646  23684927.8734   23684925.7444
     -4340.0164
   1752175.84947   1368657.44644  25079193.4124   25079191.9394
     -1825.6724
   3491256.91349   2722071.22847  22404971.2794   22404968.3424
     -1362.0164
  -1307078.23249  -1015068.45646  24139415.0614   24139410.4984
     -1515.1874
  -5837318.95749  -4544268.53846  23976884.4364   23976882.2914
      1062.9694
 04  9  7 22 51  0.0060000  0  7G 3G 8G13G10G27G19G28
  12291396.19247   9579869.79543  25688027.4594   25688026.2054
     -3869.2504
  -4987664.14749  -3871391.60248  22394089.3574   22394086.7714
      -164.5474
  17800408.08649  13860453.43146  23697324.1464   23697321.6354
     -4346.0624
   1779629.51147   1390049.90243  25084417.6314   25084415.8534
     -1835.1094
   3511715.08749   2738012.66147  22408864.0534   22408861.5454
     -1366.1254
  -1284280.18849   -997303.73246  24143753.1864   24143748.7014
     -1525.0004
  -5853229.33549  -4556666.19546  23973856.4434   23973854.4004
      1057.9694
 04  9  7 22 51 15.0060000  0  7G 3G 8G13G10G27G19G28
  12349487.63947   9625135.89143  25699081.6624   25699080.7284
     -3876.2034
  -4985163.43249  -3869442.98748  22394565.3814   22394562.9674
      -168.7814
  17865642.96649  13911285.78246  23709737.7404   23709735.1864
     -4351.8124
   1807227.06748   1411554.48843  25089669.5214   25089667.8534
     -1844.4534
   3532237.10049   2754003.83747  22412769.6314   22412766.4714
     -1370.0314
  -1261333.90149   -979423.49246  24148119.5614   24148115.3114
     -1534.4534
  -5869061.44549  -4569002.87146  23970844.0214   23970840.9784
      1053.1414
 04  9  7 22 51 30.0060000  0  7G 3G 8G13G10G27G19G28
  12407681.39747   9670481.62043  25710155.6784   25710154.6074
     -3882.8754
  -4982600.09749  -3867445.57048  22395052.8424   22395050.5614
      -172.8284
  17930963.08549  13962184.55546  23722167.5534   23722165.3184
     -4357.4534
   1834961.09647   1433165.41643  25094946.7794   25094945.2324
     -1853.2974
   3552815.63949   2770039.06947  22416685.2954   22416682.7994
     -1373.7194
  -1238246.60149   -961433.36946  24152512.7254   24152508.5254
     -1543.7814
  -5884822.50749  -4581284.18646  23967844.3894   23967842.1544
      1048.4694
 04  9  7 22 51 45.0060000  0  7G 3G 8G13G10G27G19G28
  12465976.87147   9715906.68643  25721249.0924   25721247.4714
     -3889.7344
  -4979974.60649  -3865399.73248  22395552.5064   22395550.2484
      -177.1724
  17996367.88649  14013149.29446  23734614.1394   23734612.0964
     -4363.1874
   1862831.20548   1454882.34543  25100250.0534   25100249.0964
     -1862.6564
   3573450.55649   2786118.21147  22420611.6704   22420609.1894
     -1377.6254
  -1215018.50549   -943333.54746  24156933.2094   24156929.0884
     -1553.3444
  -5900512.66449  -4593510.25046  23964858.9124   23964855.9784
      1043.6094
 04  9  7 22 52  0.0060000  0  7G 3G 8G13G10G27G19G28
  12524374.29747   9761411.14843  25732360.6004   25732360.5534
     -3896.9694
  -4977286.48149  -3863305.08148  22396064.4594   22396062.1784
      -181.7344
  18061857.64449  14064180.24946  23747076.2644   23747073.6034
     -4369.2664
   1890837.67348   1476705.55844  25105580.0374   25105578.6624
     -1872.0944
   3594142.37449   2802241.71847  22424549.4674   22424546.6864
     -1381.8284
  -1191649.27049   -925123.74146  24161380.5144   24161375.5844
     -1563.1094
  -5916131.57449  -4605680.78946  23961887.0614   23961884.8654
      1038.3134
 04  9  7 22 52 15.0060000  0  7G 3G 8G13G10G27G19G28
  12582875.65347   9806996.59543  25743493.2954   25743493.0214
     -3904.0004
  -4974533.42749  -3861159.83948  22396588.3424   22396585.8304
      -186.0624
  18127434.33549  14115278.94446  23759555.5294   23759552.8424
     -4375.0474
   1918982.77648   1498636.80844  25110935.6934   25110934.1114
     -1881.4064
   3614893.57949   2818411.49247  22428497.9124   22428495.6584
     -1385.8124
  -1168136.42549   -906802.04346  24165854.3184   24165850.3384
     -1572.7664
  -5931676.69649  -4617793.84246  23958928.7404   23958926.0024
      1033.4534
 04  9  7 22 52 30.0060000  0  7G 3G 8G13G10G27G19G28
  12641484.17847   9852665.56343  25754646.3734   25754646.4554
     -3910.3914
  -4971711.70549  -3858961.09048  22397125.3964   22397122.4714
      -190.0314
  18193101.26449  14166447.96346  23772051.1004   23772048.5104
     -4380.4224
   1947269.80747   1520678.65044  25116317.8114   25116316.7954
     -1890.1254
   3635707.62649   2834630.21347  22432459.0144   22432456.1744
     -1389.3124
  -1144476.55349   -888365.76546  24170356.3264   24170352.3894
     -1581.8284
  -5947144.46649  -4629846.61946  23955985.1234   23955982.3424
      1029.0164
 04  9  7 22 52 45.0060000  0  7G 3G 8G13G10G27G19G28
  12700190.78647   9898410.92343  25765817.4044   25765817.6434
     -3917.2664
  -4968829.69349  -3856715.35948  22397673.6624   22397670.9824
      -194.2814
  18258849.42349  14217680.26446  23784562.8734   23784560.0494
     -4386.0474
   1975689.92148   1542824.17344  25121726.6314   25121725.0104
     -1899.2194
   3656575.88649   2850891.20247  22436430.1074   22436427.9244
     -1393.1874
  -1120678.35249   -869821.70846  24174885.6004   24174880.8734
     -1591.2814
  -5962543.57149  -4641845.89046  23953054.5214   23953052.3464
      1024.1564
 04  9  7 22 53  0.0060000  0  7G 3G 8G13G10G27G19G28
  12759002.14847   9944237.96843  25777009.0214   25777008.9434
     -3924.1564
  -4965880.40649  -3854417.21248  22398234.7564   22398232.8934
      -198.7194
  18324685.57349  14268981.13046  23797090.5374   23797088.7134
     -4391.8124
   2004249.96548   1565078.73844  25127161.7714   25127159.5534
     -1908.4694
   3677505.50049   2867199.98847  22440413.0064   22440410.1434
     -1397.2194
  -1096734.85649   -851164.42846  24179442.1544   24179437.4864
     -1600.9224
  -5977866.83449  -4653786.06846  23950138.4434   23950136.1784
      1019.1254
 04  9  7 22 53 15.0060000  0  7G 3G 8G13G10G27G19G28
  12817919.98346   9990147.93542  25788220.5534   25788221.0844
     -3931.6724
  -4962862.02349  -3852065.21148  22398809.0534   22398806.7254
      -203.7344
  18390611.32849  14320351.82546  23809636.1464   23809633.4434
     -4398.2664
   2032951.66747   1587443.70044  25132622.9364   25132622.0764
     -1918.4064
   3698498.42549   2883558.11947  22444408.0844   22444405.6354
     -1401.8284
  -1072644.11949   -832392.41646  24184026.1314   24184021.3304
     -1611.1874
  -5993112.35449  -4665665.66446  23947237.6704   23947235.3074
      1013.5164
 04  9  7 22 53 30.0060000  0  7G 3G 8G13G10G27G19G28
  12876939.52947  10036137.21043  25799452.3814   25799452.0764
     -3938.4694
  -4959778.77949  -3849662.69248  22399396.0064   22399393.5614
      -208.1564
  18456622.19649  14371788.82646  23822197.2094   23822195.2564
     -4403.9534
   2061790.62247   1609915.59044  25138110.6074   25138109.3894
     -1927.5784
   3719550.37649   2899962.22847  22448414.0534   22448411.0024
     -1405.8594
  -1048410.41649   -813509.00246  24188637.0684   24188632.6504
     -1620.7974
  -6008284.29249  -4677487.92246  23944350.3964   23944348.0844
      1008.5314
 04  9  7 22 53 45.0060000  0  7G 3G 8G13G10G27G19G28
  12936064.46947  10082208.56943  25810703.9594   25810703.0924
     -3945.4534
  -4956626.61849  -3847206.44548  22399996.0534   22399992.9674
      -212.7034
  18522721.84449  14423295.03146  23834775.8734   23834773.5844
     -4409.8754
   2090770.37948   1632497.20944  25143626.0764   25143623.5684
     -1936.8754
   3740665.29249   2916415.42347  22452431.8184   22452428.7214
     -1409.9844
  -1024030.01249   -794511.27046  24193276.8504   24193272.3344
     -1630.4844
  -6023378.75049  -4689249.79546  23941477.9754   23941475.7524
      1003.4064
 04  9  7 22 54  0.0060000  0  7G 3G 8G13G10G27G19G28
  12995290.92647  10128359.03043  25821973.2954   25821973.9204
     -3951.5314
  -4953408.90249  -3844699.13048  22400608.1314   22400605.4044
      -216.5004
  18588906.63549  14474867.56446  23847371.0294   23847368.4634
     -4415.0474
   2119887.37847   1655185.76544  25149166.0684   25149164.4004
     -1945.5474
   3761839.81949   2932915.04647  22456461.0374   22456458.4394
     -1413.4064
   -999506.27949   -775401.85846  24197943.3964   24197939.8184
     -1639.5314
  -6038398.97148  -4700953.82746  23938619.5294   23938617.3814
       999.0634
 04  9  7 22 54 15.0060000  0  7G 3G 8G13G10G27G19G28
  13054617.97147  10174587.89343  25833262.8894   25833263.0614
     -3958.1094
  -4950126.37249  -3842141.30848  22401232.9594   22401230.5614
      -220.6564
  18655175.33249  14526505.48746  23859981.5064   23859978.8814
     -4420.3914
   2149140.69947   1677980.56243  25154733.3894   25154731.7094
     -1954.3754
   3783073.29649   2949460.60747  22460501.8504   22460498.8424
     -1417.1724
   -974840.06649   -756181.42946  24202637.5374   24202633.2014
     -1648.7974
  -6053345.70749  -4712600.61346  23935775.4674   23935772.6744
       994.3914
 04  9  7 22 54 30.0060000  0  7G 3G 8G13G10G27G19G28
  13114042.86047  10220892.96042  25844571.2874   25844571.2324
     -3964.5784
  -4946781.23249  -3839534.69748  22401869.1464   22401866.9204
      -224.9224
  18721525.41749  14578206.83146  23872607.1154   23872604.8694
     -4425.8124
   2178527.88147   1700879.66743  25160325.3114   25160323.7714
     -1963.3754
   3804363.40849   2966050.31947  22464552.9594   22464550.4984
     -1421.0004
   -950033.64549   -736851.74246  24207357.6864   24207353.6114
     -1658.1254
  -6068221.33248  -4724191.96946  23932944.3734   23932942.2014
       989.5784
 04  9  7 22 54 45.0060000  0  7G 3G 8G13G10G27G19G28
  13173567.00247  10267275.38143  25855898.6704   25855898.4554
     -3971.8754
  -4943371.46949  -3836877.74548  22402518.0924   22402515.8734
      -229.8124
  18787958.55549  14629972.88746  23885249.3184   23885247.2644
     -4431.9374
   2208050.60847   1723884.37344  25165942.9044   25165941.9714
     -1973.0944
   3825712.04249   2982685.61647  22468615.8504   22468612.7054
     -1425.5474
   -925085.31649   -717411.48046  24212105.7404   24212101.5294
     -1668.2814
  -6083023.84649  -4735726.36646  23930127.6234   23930124.9824
       984.0474
 04  9  7 22 55  0.0060000  0  7G 3G 8G13G10G27G19G28
  13233196.16847  10313739.66342  25867244.7014   25867245.4714
     -3978.6874
  -4939891.13549  -3834165.78748  22403180.5144   22403178.1664
      -234.2344
  18854480.42049  14681808.07846  23897907.5454   23897905.1154
     -4437.6414
   2237714.62348   1746999.18444  25171588.8424   25171586.7254
     -1982.2504
   3847125.22849   2999371.20947  22472690.1544   22472687.5414
     -1429.6414
   -899989.07149   -697855.95946  24216880.5144   24216876.4554
     -1677.8914
  -6097747.21349  -4747199.08946  23927325.8964   23927323.5804
       979.0474
 04  9  7 22 55 15.0060000  0  7G 3G 8G13G10G27G19G28
  13292921.86147  10360279.15942  25878611.7644   25878610.6274
     -3984.8284
  -4936348.33949  -3831405.16048  22403854.4904   22403851.9434
      -238.2194
  18921082.56149  14733705.81846  23910581.4674   23910579.6464
     -4442.7194
   2267511.59247   1770217.58543  25177258.4674   25177257.2054
     -1990.9064
   3868594.80649   3016100.76147  22476775.9824   22476773.1584
     -1433.1724
   -874753.12049   -678191.57446  24221683.4434   24221679.2284
     -1687.0314
  -6112399.55748  -4758616.45846  23924537.5844   23924535.0884
       974.5474
 04  9  7 22 55 30.0060000  0  7G 3G 8G13G10G27G19G28
  13352744.21046  10406893.94142  25889994.5534   25889994.2214
     -3991.8914
  -4932742.77449  -3828595.63348  22404540.6864   22404538.3144
      -242.9694
  18987765.07349  14785666.18246  23923271.0454   23923268.9554
     -4448.6094
   2297441.59247   1793539.65643  25182954.4124   25182952.2444
     -2000.2974
   3890121.30749   3032874.65347  22480872.2254   22480869.5374
     -1437.4844
   -849377.11549   -658418.07046  24226512.0144   24226507.6314
     -1696.8284
  -6126980.42549  -4769978.15246  23921763.0214   23921760.8934
       969.2664
 04  9  7 22 55 45.0060000  0  7G 3G 8G13G10G27G19G28
  13412669.08046  10453588.66842  25901398.0454   25901397.2444
     -3998.2664
  -4929067.87349  -3825732.05948  22405239.9904   22405237.5844
      -247.0624
  19054534.01449  14837693.91046  23935976.4434   23935974.4944
     -4453.8594
   2327510.93347   1816970.30744  25188676.3654   25188674.3074
     -2009.0004
   3911711.03449   3049697.81447  22484980.7714   22484978.3034
     -1441.1874
   -823854.77449   -638530.51846  24231368.7874   24231364.4324
     -1706.1414
  -6141483.39049  -4781279.12046  23919003.5374   23919000.8034
       964.5164
 04  9  7 22 56  0.0060000  0  7G 3G 8G13G10G27G19G28
  13472697.00647  10500363.66143  25912821.6704   25912820.4474
     -4005.6724
  -4925322.79449  -3822813.81948  22405952.9674   22405950.3344
      -252.4374
  19121389.98349  14889789.43846  23948699.0214   23948696.8734
     -4460.3754
   2357720.25048   1840509.99244  25194425.3814   25194423.3774
     -2018.9844
   3933364.98649   3066571.01847  22489101.3424   22489098.6894
     -1446.0944
   -798185.26549   -618528.31046  24236253.7564   24236249.2444
     -1716.5784
  -6155907.60749  -4792518.75046  23916258.2324   23916255.8464
       958.6254
 04  9  7 22 56 15.0060000  0  7G 3G 8G13G10G27G19G28
  13532834.49046  10547224.03142  25924264.8814   25924264.7054
     -4012.6414
  -4921500.66349  -3819835.53248  22406680.2174   22406677.3964
      -257.2034
  19188339.41949  14941957.81646  23961439.0844   23961437.2324
     -4466.2664
   2388076.03147   1864163.84044  25200200.7644   25200200.0534
     -2028.4224
   3955089.87449   3083499.50347  22493235.4434   22493232.9204
     -1450.4694
   -772361.91649   -598406.20846  24241167.9514   24241163.4164
     -1726.4064
  -6170246.26949  -4803691.70346  23913529.9044   23913526.8034
       953.2034
 04  9  7 22 56 30.0060000  0  7G 3G 8G13G10G27G19G28
  13593067.63247  10594158.91942  25935727.0614   25935726.4594
     -4019.0164
  -4917614.91549  -3816807.66948  22407419.5214   22407417.0644
      -261.3754
  19255368.63549  14994188.34246  23974194.4044   23974192.2954
     -4471.5004
   2418564.70147   1887921.23844  25206003.0684   25206001.1824
     -2037.2664
   3976872.35749   3100472.86747  22497380.5454   22497377.9514
     -1454.3124
   -746398.07849   -578174.64546  24246108.6154   24246104.5024
     -1735.8124
  -6184512.68049  -4814808.35546  23910814.8424   23910812.2444
       948.4534
 04  9  7 22 56 45.0060000  0  7G 3G 8G13G10G27G19G28
  13653396.94746  10641168.78543  25947206.6074   25947206.4824
     -4025.2194
  -4913664.52149  -3813729.43648  22408170.9434   22408168.5024
      -265.5624
  19322478.20149  15046481.48146  23986964.8504   23986962.5644
     -4476.6724
   2449187.04848   1911782.80144  25211829.9044   25211828.9394
     -2045.9534
   3998713.23749   3117491.72347  22501536.4824   22501533.8734
     -1458.0944
   -720293.09149   -557833.10646  24251076.6154   24251072.4474
     -1745.0474
  -6198706.03249  -4825868.08146  23908114.4044   23908111.4204
       943.7664
 04  9  7 22 57  0.0060000  0  7G 3G 8G13G10G27G19G28
  13713824.65246  10688255.27642  25958705.2954   25958706.1194
     -4032.0784
  -4909646.97249  -3810598.87148  22408935.6314   22408933.0454
      -270.3754
  19389670.28149  15098838.92246  23999751.3264   23999748.7364
     -4482.5944
   2479945.26148   1935750.23344  25217683.1544   25217682.3964
     -2055.4374
   4020615.22449   3134558.21747  22505704.4434   22505701.7404
     -1462.5004
   -694044.53249   -537379.67446  24256071.5214   24256067.0184
     -1755.0314
  -6212823.75249  -4836868.86846  23905427.6864   23905425.3034
       938.2974
 04  9  7 22 57 15.0060000  0  7G 3G 8G13G10G27G19G28
  13774351.88146  10735419.31442  25970223.8114   25970224.4044
     -4038.1254
  -4905560.52749  -3807414.61948  22409713.2874   22409710.6074
      -274.4534
  19456946.14248  15151261.64446  24012553.0764   24012551.1934
     -4487.5314
   2510840.59647   1959824.49044  25223562.1074   25223562.0494
     -2063.8594
   4042579.86049   3151673.52147  22509884.4124   22509881.7174
     -1466.1254
   -667650.95549   -516813.24346  24261093.7794   24261089.8504
     -1764.1414
  -6226864.25549  -4847809.48846  23902756.2404   23902752.5844
       933.7034
 04  9  7 22 57 30.0060000  0  7G 3G 8G13G10G27G19G28
  13834979.80846  10782661.84942  25981761.0294   25981761.2714
     -4045.2344
  -4901403.92949  -3804175.71248  22410504.2404   22410501.8074
      -279.5944
  19524306.85748  15203750.50046  24025371.8034   24025369.0644
     -4493.6724
   2541874.29847   1984006.60644  25229467.1464   25229466.3614
     -2073.6874
   4064608.43549   3168838.64147  22514076.2484   22514073.1314
     -1470.7814
   -641110.95349   -496132.71446  24266144.0454   24266139.6894
     -1774.3914
  -6240826.17449  -4858688.88346  23900099.0684   23900095.8654
       928.0164
 04  9  7 22 57 45.0060000  0  7G 3G 8G13G10G27G19G28
  13895706.94347  10829981.68242  25993317.2014   25993317.3304
     -4051.1874
  -4897178.32049  -3800883.01648  22411308.4514   22411306.0574
      -283.3754
  19591751.18349  15256304.49546  24038205.9204   24038204.0144
     -4498.4694
   2573045.14847   2008295.55944  25235399.4364   25235398.6544
     -2082.0314
   4086700.02649   3186052.87347  22518280.0144   22518277.3034
     -1474.2194
   -614425.73149   -475339.03046  24271221.8264   24271217.9864
     -1783.2504
  -6254710.54649  -4869507.84846  23897456.7874   23897453.7524
       923.6724
 04  9  7 22 58  0.0060000  0  6G 8G13G10G27G19G28
  -4892889.09749  -3797540.75948  22412124.4594   22412122.1624
      -288.1724
  19659273.10449  15308918.95546  24051055.2094   24051052.8384
     -4504.1414
   2604347.24248   2032686.78544  25241356.4984   25241355.6194
     -2091.2814
   4108849.08549   3203311.88147  22522494.8504   22522492.0884
     -1478.6874
   -587600.96949   -454436.61746  24276327.2094   24276322.7094
     -1793.0314
  -6268522.70949  -4880270.54946  23894828.3654   23894826.0494
       918.2814
 04  9  7 22 58 15.0060000  0  6G 8G13G10G27G19G28
  -4888534.84949  -3794147.84248  22412952.9364   22412951.0104
      -292.0314
  19726873.68348  15361594.69046  24063918.6464   24063916.7214
     -4509.0004
   2635781.68448   2057181.14744  25247338.3814   25247337.4554
     -2099.7344
   4131057.01849   3220616.75547  22526721.0844   22526718.3424
     -1482.1414
   -560635.35749   -433424.47346  24281457.9044   24281453.7754
     -1802.0004
  -6282261.52849  -4890976.08746  23892214.0534   23892211.1504
       913.7814
 04  9  7 22 58 30.0060000  0  6G 8G13G10G27G19G28
  -4884114.23149  -3790703.20248  22413794.4284   22413791.9004
      -297.3284
  19794553.98149  15414332.56546  24076797.9204   24076796.4784
     -4515.0944
   2667349.48547   2081779.42744  25253345.5374   25253344.5684
     -2109.4064
   4153325.03049   3237968.44947  22530958.6864   22530955.6784
     -1486.9534
   -533527.70649   -412301.61346  24286616.7874   24286612.5064
     -1812.3444
  -6295925.64149  -4901623.41846  23889613.4434   23889610.8964
       908.0314
 04  9  7 22 58 45.0060000  0  6G 8G13G10G27G19G28
  -4879620.52749  -3787201.61248  22414649.6784   22414647.1934
      -302.0004
  19862320.37049  15467137.50946  24089693.5614   24089691.3264
     -4520.6874
   2699057.24047   2106486.75844  25259379.2954   25259377.8654
     -2118.5164
   4175659.94549   3255372.27647  22535208.5214   22535205.9824
     -1491.2664
   -506271.38949   -391062.92746  24291803.0374   24291798.5534
     -1822.0944
  -6309508.27449  -4912207.28246  23887029.3424   23887026.1584
       902.7974
